GFSSGP_sfc_temp_000.txt.gz
Temp
82 87 84 74 60 61 59 65 75 71 71 75 78 74 70 71 69 58 73 76 80 79 79 77 78 78 78 78 78 77 77 77 78 78 78 77 77 77 77 77 76 76 76 76 75 75 77 76 76
80 85 76 68 57 54 59 73 69 72 75 75 75 75 72 68 76 71 71 78 82 81 79 78 77 77 78 78 77 77 77 77 78 78 77 77 77 77 76 76 76 75 75 74 74 73 75 75 76
80 87 66 62 59 56 61 71 71 76 78 75 72 74 73 69 75 73 75 79 81 79 80 79 77 77 77 78 77 77 77 77 77 77 77 77 77 77 76 75 75 75 74 74 73 73 74 74 73
78 73 70 59 59 67 70 67 76 75 76 75 74 71 74 75 75 77 78 79 78 78 76 75 76 77 77 77 77 77 77 77 78 77 76 75 77 77 75 75 75 74 74 73 73 72 73 73 73
77 69 59 58 62 70 76 67 76 73 75 75 75 71 68 73 77 78 77 80 77 78 76 76 77 77 77 77 77 77 77 77 78 77 75 75 75 76 75 74 74 74 72 72 72 72 72 72 72
65 67 56 55 63 72 77 78 78 74 77 76 72 72 66 75 75 76 78 77 80 78 78 75 75 76 77 77 76 76 77 77 77 76 75 75 76 75 74 74 73 73 73 73 72 72 71 72 72
63 59 56 60 63 69 76 81 73 75 75 74 75 68 68 72 76 77 76 78 78 79 77 75 73 74 74 75 75 76 76 76 76 75 75 75 74 74 73 73 72 73 72 72 72 72 72 72 72
68 62 58 60 62 65 79 77 79 76 72 77 76 69 65 73 76 76 76 76 75 76 77 74 74 74 71 70 74 74 74 74 74 74 73 72 71 72 72 71 71 72 71 71 71 72 72 72 72
73 56 54 60 64 69 76 73 78 77 74 75 76 75 74 76 76 73 71 73 74 76 75 75 74 74 73 73 72 72 73 73 72 71 70 68 66 68 69 69 70 71 71 71 71 72 71 70 69
63 54 59 70 72 69 74 73 75 71 73 73 74 75 75 74 72 70 69 68 70 71 73 75 74 74 73 79 71 68 71 68 68 68 65 66 67 67 71 67 68 70 70 70 71 71 70 68 62
65 58 67 70 74 73 71 72 77 72 68 75 74 72 73 71 70 71 71 71 70 72 73 75 74 74 73 72 70 70 69 69 70 69 69 68 71 65 65 62 63 61 65 63 65 63 62 61 61
62 69 71 72 73 71 69 75 72 73 73 78 78 78 73 71 70 71 71 73 73 72 73 75 75 73 72 71 69 69 69 70 68 69 70 67 66 65 64 64 63 62 62 61 61 61 62 62 64
65 68 72 74 73 71 74 69 70 72 78 79 80 77 73 73 73 74 75 76 76 73 74 74 74 73 73 71 69 69 69 69 69 69 70 68 66 64 64 64 64 63 64 63 62 62 63 63 63
69 69 70 73 73 74 70 69 68 74 77 77 77 75 74 75 75 74 74 75 75 75 75 76 76 74 74 73 70 70 69 69 69 68 68 70 67 65 65 64 64 63 63 64 63 62 62 63 63
70 63 66 69 71 69 68 64 66 74 75 73 75 74 76 76 77 76 76 75 76 76 77 76 76 76 73 72 72 71 69 71 68 68 69 69 68 66 66 64 63 64 65 65 64 64 63 62 64
61 61 54 67 70 69 66 55 71 75 67 71 74 73 74 77 78 78 79 78 78 77 76 77 81 77 74 72 72 72 71 69 68 68 68 69 70 67 65 64 63 64 64 64 63 62 61 61 60
58 49 55 61 70 68 64 58 69 73 71 69 71 72 74 75 76 76 78 78 78 77 77 76 76 75 73 73 73 72 72 70 69 69 68 69 71 70 68 67 66 65 64 63 63 62 61 59 59
51 52 58 57 63 63 61 60 68 70 70 68 69 67 70 72 73 75 76 75 76 77 78 77 76 75 74 72 72 70 69 70 70 71 72 70 72 71 69 68 68 67 66 64 63 61 61 60 60
61 58 57 61 65 57 59 61 62 67 67 63 67 66 67 69 71 73 72 71 71 72 73 75 75 74 73 70 68 66 67 66 67 70 72 72 72 72 70 69 68 68 67 66 66 64 62 62 60
60 56 56 60 65 57 59 59 63 64 64 64 65 64 65 66 68 69 69 67 67 67 68 69 73 74 73 71 70 69 69 70 71 71 72 73 72 72 71 70 68 68 67 66 66 65 63 63 60
57 54 54 54 60 61 56 54 58 63 66 66 66 66 66 65 65 66 66 65 63 63 63 67 68 70 73 72 70 68 68 67 66 68 68 69 71 71 70 70 69 68 68 67 66 66 63 61 59
53 60 59 58 53 46 57 42 53 60 61 63 61 61 62 63 65 65 65 63 62 62 63 65 68 69 72 71 69 67 65 63 66 67 68 68 69 71 71 70 69 69 69 68 67 68 66 66 63
55 60 56 56 51 49 52 45 51 59 57 59 60 61 62 63 64 64 64 65 64 62 62 63 66 68 69 68 67 65 65 66 66 67 67 67 68 71 70 70 69 69 70 70 68 69 69 68 65
61 57 56 53 49 41 47 47 47 55 58 59 61 62 64 64 64 64 65 65 62 61 62 62 64 65 66 66 66 65 63 63 63 63 64 65 66 67 67 69 68 68 68 68 68 68 68 66 66
56 49 41 38 38 40 50 45 50 60 63 62 61 61 62 63 62 62 61 61 61 60 61 64 63 63 64 64 64 64 64 63 62 63 63 64 64 65 66 66 67 68 68 68 68 68 67 66 65
53 49 42 35 38 42 49 42 52 63 65 64 65 63 63 62 62 61 61 60 60 61 61 62 63 62 63 63 63 63 63 62 63 63 64 64 65 65 67 67 67 67 68 68 68 68 67 67 65
52 47 51 47 44 40 47 52 58 63 61 61 62 63 60 61 61 60 60 60 60 60 61 61 62 62 63 63 62 62 63 62 61 62 62 62 63 68 67 65 66 67 69 70 70 68 68 67 67
51 56 45 46 35 32 44 44 48 54 56 60 60 59 60 62 61 60 60 60 60 60 61 62 62 62 62 62 62 63 62 63 63 62 62 62 63 63 63 63 63 64 65 66 66 67 68 67 67
50 49 50 48 46 37 36 43 55 57 60 60 59 61 60 59 59 59 60 61 61 61 61 61 61 62 61 61 61 60 61 62 62 62 63 63 63 63 63 63 63 63 62 64 64 66 66 65 66
52 51 53 42 41 43 39 41 59 58 59 60 60 61 59 59 59 60 60 60 60 60 61 60 60 60 60 60 60 59 60 59 58 59 60 61 61 63 63 64 64 64 63 63 61 63 64 63 63

GFSSGP_sfc_temp_003.txt.gz
Temp
76 75 70 68 56 53 49 58 62 64 67 67 70 72 68 65 66 57 66 73 73 72 75 77 78 78 78 78 77 77 77 77 78 78 78 77 77 77 77 76 76 76 75 75 74 75 77 76 75
72 76 68 60 51 46 51 61 63 67 71 70 70 71 65 63 68 66 66 75 75 75 74 75 77 78 78 78 77 77 77 78 78 78 77 77 77 77 76 76 75 76 75 74 73 75 76 76 76
75 75 61 55 50 48 51 61 65 70 73 71 67 72 68 65 67 67 69 76 76 74 75 76 77 78 78 78 77 77 77 77 77 77 77 77 77 77 76 75 75 74 74 74 73 73 75 75 75
71 66 61 52 50 57 60 64 71 72 72 70 70 65 66 67 70 71 73 75 72 70 72 75 76 77 77 77 77 77 77 77 78 77 76 76 77 76 75 75 75 74 73 73 73 72 73 74 73
66 59 51 49 53 60 63 72 77 68 70 69 69 66 63 67 71 72 73 75 72 69 72 75 77 77 77 77 77 77 77 77 77 76 75 75 76 77 75 74 74 74 72 72 72 72 72 72 72
59 57 47 45 52 62 65 76 78 69 71 69 70 66 62 68 69 70 73 72 75 71 73 75 75 76 77 77 77 76 77 77 78 76 75 75 76 75 75 74 74 73 73 72 72 72 72 72 72
56 51 46 48 53 58 66 74 68 70 67 68 72 63 60 64 70 72 72 72 74 73 71 71 72 74 75 75 75 76 76 77 76 76 75 75 74 73 74 74 73 73 73 72 72 72 72 72 72
60 55 48 47 53 56 68 72 74 71 66 73 71 64 60 68 71 71 70 71 71 71 71 68 69 70 69 69 74 74 74 75 75 74 73 72 71 71 72 71 72 72 72 72 71 72 72 72 72
64 50 46 52 55 60 69 67 74 73 69 72 70 67 68 71 71 68 66 67 69 72 69 69 68 68 68 67 70 72 73 73 73 71 70 68 65 66 68 68 69 71 71 71 71 72 72 71 70
57 48 52 61 62 62 68 67 68 69 69 67 66 67 69 70 67 66 65 65 66 68 69 70 70 69 68 74 69 66 68 66 66 66 65 63 63 63 69 66 69 70 70 70 71 71 71 68 60
58 52 61 65 67 68 67 68 70 67 63 69 69 67 67 65 66 66 66 66 66 67 68 71 68 70 69 70 67 64 64 63 63 64 63 63 66 62 63 61 63 62 64 62 65 63 61 59 57
55 63 64 67 69 67 66 69 66 65 69 73 72 71 66 65 65 66 66 67 66 67 69 71 70 68 68 67 66 66 66 65 64 65 64 63 61 60 59 61 60 59 60 60 59 58 58 58 58
56 62 66 68 67 66 69 65 65 67 73 72 73 71 68 66 66 67 68 69 68 67 69 69 69 68 67 66 66 64 66 67 67 65 66 65 63 60 60 60 59 60 60 60 58 59 59 59 58
63 63 63 66 66 66 65 65 63 69 72 71 73 69 68 68 68 67 67 68 69 68 69 70 71 68 68 67 65 66 64 65 65 64 65 65 65 63 61 61 62 61 62 61 60 60 61 59 59
64 57 60 62 64 64 64 60 62 70 68 71 69 68 71 70 70 70 72 71 73 71 70 70 71 72 68 67 67 68 67 67 65 65 65 65 65 63 63 63 62 63 62 61 60 59 59 58 60
56 52 46 58 63 64 65 53 65 69 67 69 68 67 67 71 71 70 71 71 71 70 71 72 77 73 71 67 67 68 69 67 66 67 66 66 67 65 63 64 64 63 62 62 60 61 60 58 59
48 42 46 53 63 63 60 54 64 67 65 64 65 65 66 66 67 67 69 68 69 70 71 70 72 71 71 71 70 68 69 68 67 65 67 68 67 67 66 66 65 61 61 62 63 60 61 60 60
44 43 48 49 58 59 56 56 62 64 62 60 58 60 62 64 64 64 67 65 66 66 68 69 71 72 71 71 70 66 65 68 64 67 68 66 68 67 65 66 65 61 62 62 58 62 58 62 62
52 49 49 53 60 57 55 55 59 63 61 59 57 59 60 63 63 65 64 62 62 62 63 64 68 68 70 63 64 63 67 62 63 64 66 66 66 66 64 66 63 61 63 64 63 62 60 61 56
53 50 49 55 61 56 53 55 58 60 59 58 59 58 59 61 63 63 62 60 60 60 60 63 65 66 67 67 66 65 63 63 65 65 66 66 66 66 65 66 66 64 64 64 62 62 62 62 58
53 47 48 50 56 55 50 50 53 58 59 59 60 60 60 60 60 59 59 58 58 59 59 63 64 65 66 67 66 65 64 63 62 62 63 66 67 68 67 69 67 66 64 65 64 63 62 61 58
47 56 56 54 48 42 51 39 47 54 55 56 54 56 57 58 58 59 60 59 58 58 59 62 63 64 67 65 64 63 61 61 62 63 64 65 66 68 69 69 68 66 65 65 65 66 64 64 62
53 57 54 52 45 41 46 42 47 52 51 53 54 55 57 57 58 59 59 60 59 58 58 59 62 63 63 63 62 60 59 60 61 62 62 63 64 65 66 67 67 66 66 66 67 68 66 65 63
59 52 51 47 45 37 44 44 43 50 52 53 54 56 59 58 58 59 59 60 59 57 58 59 60 61 61 61 61 60 59 59 59 59 59 60 62 63 64 64 65 66 66 66 67 67 68 66 65
53 45 37 35 34 36 46 43 46 56 58 59 56 56 57 58 57 57 57 57 57 57 57 60 59 59 60 60 60 59 59 58 58 58 58 58 59 60 62 63 65 67 67 67 67 66 65 65 65
48 47 38 33 34 39 46 40 50 59 60 59 59 58 57 57 56 57 56 56 56 57 57 58 59 59 60 59 59 59 59 58 58 58 58 58 58 59 61 61 61 62 66 68 67 66 65 65 64
49 45 50 43 40 37 42 46 55 55 54 56 56 56 56 56 56 57 56 56 56 57 58 58 59 59 59 59 58 58 58 58 58 57 57 57 59 64 63 61 60 62 62 62 61 62 63 65 65
49 52 44 42 34 31 38 40 44 48 51 54 54 53 55 56 56 56 56 57 58 57 57 57 57 57 57 57 57 58 57 57 57 57 56 57 60 60 60 59 59 60 61 61 61 61 62 61 62
48 46 46 45 41 35 32 39 51 53 54 54 54 55 55 55 55 55 56 57 57 57 55 55 55 56 57 57 57 56 56 56 57 57 57 58 59 59 60 60 60 60 60 60 60 60 60 60 60
49 49 48 40 38 38 36 40 54 52 54 55 56 57 54 55 55 56 57 56 54 54 54 54 55 55 54 55 54 54 54 54 54 55 56 58 57 58 58 59 58 59 59 60 59 59 60 59 59

GFSSGP_sfc_temp_006.txt.gz
Temp
75 72 66 65 56 51 47 54 60 62 63 67 68 66 66 63 65 58 63 69 70 71 73 76 78 77 78 78 77 77 77 77 78 77 78 76 77 76 76 76 75 75 75 75 74 77 76 76 75
71 74 65 58 50 44 48 57 59 65 67 69 67 65 64 62 64 63 64 69 72 72 73 73 77 78 78 77 77 77 77 77 77 78 77 77 77 76 76 75 75 75 75 73 73 76 76 75 75
74 72 59 53 47 45 49 58 62 68 69 69 65 67 64 63 65 65 67 71 72 71 73 74 77 78 78 77 77 77 77 77 77 78 76 76 77 76 76 75 75 74 73 73 73 73 75 75 75
68 63 58 50 47 55 55 61 67 67 69 70 67 62 64 65 66 69 70 71 69 68 70 74 76 77 77 77 77 76 77 77 77 76 76 76 76 76 75 75 74 73 73 73 72 72 73 74 74
63 56 48 46 49 56 60 67 71 67 66 68 68 63 62 67 66 69 69 72 68 67 70 74 76 77 77 77 76 76 77 77 77 77 76 75 76 76 75 74 74 73 73 72 72 72 72 73 72
58 54 44 43 49 57 61 66 70 67 67 67 66 64 62 64 66 68 70 68 71 69 71 73 75 76 76 77 76 76 76 76 77 77 75 75 75 75 75 74 73 73 72 72 72 72 72 72 72
55 50 44 44 49 54 62 69 64 68 63 67 69 62 59 62 68 69 68 68 69 69 70 71 72 74 75 75 75 76 76 76 76 77 75 74 74 73 74 74 73 73 73 72 72 72 72 72 72
57 53 45 45 49 53 63 66 69 68 70 71 69 63 62 65 69 69 68 68 66 67 69 68 68 70 69 70 74 74 74 74 75 75 73 72 71 71 73 72 72 73 72 72 72 72 72 72 71
60 48 44 49 51 57 64 62 70 70 67 69 67 65 67 68 68 65 63 65 64 67 66 67 67 66 67 67 70 72 72 72 72 71 70 68 64 65 66 68 69 71 72 71 71 71 72 71 70
55 47 51 58 57 58 63 63 66 66 65 64 64 65 64 66 64 64 63 64 63 64 64 66 66 66 65 72 67 66 67 66 66 65 64 63 62 62 66 65 68 70 71 70 71 71 71 69 60
56 51 58 62 64 63 62 63 66 62 62 66 67 65 64 63 63 64 64 65 65 65 65 67 65 66 66 68 64 62 62 62 62 63 62 62 63 60 61 60 62 63 65 62 65 62 61 58 56
52 60 61 63 65 62 62 66 64 63 66 70 71 70 64 63 63 64 65 65 63 64 66 67 67 65 64 66 65 63 63 62 61 62 62 60 60 59 58 60 61 61 60 59 58 57 57 57 56
54 59 62 64 63 62 64 62 62 63 70 68 71 67 65 64 64 64 65 65 65 65 66 67 66 66 66 62 62 62 63 64 63 62 63 63 61 60 58 59 60 60 59 58 57 57 58 56 55
59 60 61 62 63 62 61 62 60 66 69 68 68 66 64 64 66 63 64 67 65 66 68 69 69 68 67 66 62 64 64 64 63 64 64 64 64 63 60 61 61 60 59 59 59 58 58 57 57
61 54 57 60 61 61 60 58 60 66 64 66 67 66 67 66 64 65 66 66 67 68 68 68 69 69 67 67 65 66 65 65 64 64 64 65 65 64 65 62 62 61 57 58 58 57 56 55 57
53 50 46 55 58 61 61 49 62 66 58 62 65 60 63 64 65 64 66 67 67 67 67 68 73 71 68 69 67 67 67 64 65 64 64 65 65 63 61 61 61 60 58 58 57 58 58 56 56
47 42 43 50 59 58 57 52 62 61 62 62 57 57 60 60 62 61 63 62 63 63 65 66 67 69 69 69 68 66 66 65 66 62 62 64 64 64 61 61 61 60 58 58 59 60 57 60 58
42 42 45 45 54 54 52 54 59 60 60 56 55 54 57 60 60 60 62 60 61 60 62 64 66 67 66 67 65 62 62 65 63 64 64 63 64 63 62 64 63 60 59 60 57 60 59 60 62
50 45 44 50 57 55 53 52 58 57 56 54 54 55 56 58 58 60 59 59 59 59 60 61 64 64 64 61 60 60 64 62 61 63 64 64 64 64 63 64 64 61 61 63 62 60 59 59 56
49 46 45 52 57 54 51 53 56 55 55 54 56 55 56 56 58 59 59 57 57 57 58 60 61 62 62 62 63 63 62 61 62 63 64 64 64 65 64 64 65 64 62 62 62 60 60 60 57
48 45 46 49 54 53 47 48 50 54 54 55 55 56 57 57 57 57 56 55 55 55 56 60 60 61 61 63 63 62 62 61 61 61 62 63 64 65 65 66 65 65 62 63 62 61 59 60 64
44 53 54 51 46 41 48 38 43 49 52 52 51 54 55 56 56 56 56 56 55 55 56 58 59 60 62 60 60 59 58 58 59 60 61 62 63 63 64 65 65 65 64 62 63 64 62 62 59
51 56 51 49 43 39 42 40 44 50 49 52 51 52 54 54 55 55 55 57 55 55 55 57 58 60 59 58 58 56 56 56 57 57 58 59 61 62 62 62 62 63 64 65 65 64 63 64 62
57 51 48 44 41 35 42 43 42 46 52 51 50 52 55 54 54 55 55 57 56 55 56 56 58 58 58 58 57 56 55 55 56 55 56 56 58 59 60 61 61 61 62 63 65 65 64 64 63
50 43 35 34 33 34 41 40 47 53 53 58 54 53 54 54 54 54 54 54 55 55 55 58 57 56 57 56 56 56 55 54 54 54 54 54 56 56 60 58 59 59 60 61 62 62 62 62 62
46 45 36 32 31 37 43 39 48 52 54 57 56 54 54 54 54 54 54 54 55 56 55 55 55 55 55 55 55 55 55 54 54 54 54 54 54 55 56 58 59 59 60 60 59 57 58 60 60
46 42 47 41 36 36 40 45 49 51 50 53 52 53 53 53 53 54 54 55 55 54 53 54 54 54 54 54 54 54 53 53 53 53 53 53 55 60 58 57 56 57 58 58 58 58 57 57 56
48 51 41 39 33 31 36 38 43 45 47 50 50 51 52 53 53 53 54 55 53 53 52 52 53 52 52 53 52 53 52 52 52 53 52 54 56 56 56 56 57 57 57 57 57 57 58 57 57
46 43 44 42 39 34 31 38 48 49 50 52 52 53 53 52 52 53 53 52 52 51 51 51 51 51 51 51 51 50 50 51 51 51 52 53 53 54 54 55 55 56 56 56 56 56 56 56 56
47 47 45 39 37 35 34 39 52 47 52 53 53 54 51 53 53 52 51 50 49 49 49 48 49 49 49 50 49 49 50 50 50 50 52 53 52 53 53 54 54 54 55 55 54 54 55 53 53

GFSSGP_sfc_temp_009.txt.gz
Temp
74 71 64 64 55 50 45 53 56 61 61 63 66 64 63 61 63 58 62 66 67 68 71 75 78 78 78 78 77 77 77 77 77 78 79 76 76 75 76 75 75 75 75 75 75 77 76 76 75
70 72 63 56 49 43 47 54 57 61 66 66 65 65 63 62 63 61 61 68 69 70 72 73 77 77 77 77 77 77 77 77 77 77 77 76 77 77 76 76 75 76 75 73 73 75 76 75 74
72 69 59 52 45 44 48 56 59 65 68 65 63 64 62 63 64 63 65 68 69 69 71 73 76 77 77 77 77 76 76 77 77 77 76 76 76 76 75 75 75 74 74 73 73 73 74 75 75
67 63 56 49 45 52 53 60 62 63 69 66 64 63 63 64 64 66 68 68 67 67 68 73 76 77 77 77 76 76 76 77 77 77 77 76 76 76 75 74 74 73 73 73 72 72 72 73 74
61 56 48 43 47 53 57 62 64 63 65 66 67 64 62 64 64 66 66 68 66 66 68 72 76 77 77 77 76 76 76 76 76 76 76 76 77 77 76 74 74 73 73 72 72 72 72 73 73
58 53 44 41 46 54 57 62 61 62 63 66 63 59 63 62 65 66 67 65 68 66 68 71 75 76 76 76 76 76 76 76 77 77 76 75 75 76 75 74 74 73 73 72 72 72 72 72 72
54 49 43 41 46 52 59 64 61 61 62 64 66 59 62 60 66 67 65 65 67 67 68 69 71 73 74 75 75 75 76 76 76 76 75 74 74 74 74 74 73 73 73 72 72 72 72 72 72
55 52 44 42 46 52 60 63 65 63 62 70 64 63 63 64 67 66 65 64 64 66 68 68 68 69 69 69 73 74 74 74 74 74 73 72 71 71 72 72 72 73 73 73 72 72 72 72 72
57 48 43 47 49 54 60 59 65 68 64 67 63 62 64 66 65 63 61 62 62 65 65 67 67 66 67 67 69 72 72 72 72 71 70 68 64 64 65 67 68 71 72 72 72 72 71 71 70
54 46 50 56 55 56 60 59 62 63 62 63 64 63 63 62 61 62 61 61 60 63 64 65 65 65 65 71 66 65 67 66 65 65 64 63 62 61 65 64 68 70 71 71 71 71 71 69 60
53 49 56 59 62 61 59 60 63 60 59 64 65 66 62 61 61 62 62 62 60 62 63 65 64 64 64 66 63 62 62 62 62 63 62 61 62 59 59 59 60 61 63 62 64 62 61 58 56
50 58 59 61 62 60 58 62 60 62 65 69 68 68 63 62 62 62 62 62 61 62 63 65 65 63 63 64 62 62 63 61 60 61 61 60 59 58 57 58 58 59 60 59 58 58 57 56 56
51 57 60 62 61 59 61 58 59 61 67 66 68 67 64 63 62 63 63 63 62 63 64 64 63 64 63 62 61 60 62 61 61 60 61 60 59 58 57 57 57 58 58 58 57 57 57 56 55
57 58 59 60 61 60 58 59 57 62 65 65 65 67 64 62 63 61 61 62 62 63 64 66 65 65 64 64 61 62 60 61 60 60 61 61 61 59 58 57 57 58 58 58 58 58 57 57 56
58 53 56 58 59 58 58 56 56 64 62 61 62 63 63 63 62 64 64 64 65 66 66 65 66 66 63 64 61 62 62 62 61 62 61 60 61 60 61 58 57 58 57 57 57 56 56 55 56
51 49 44 54 56 58 60 48 59 63 58 61 59 56 58 59 60 60 61 61 61 62 64 65 71 67 65 65 63 64 62 62 62 62 61 61 62 61 59 61 60 59 57 58 57 57 56 56 56
48 40 42 50 56 54 54 49 60 59 58 60 54 55 57 58 59 57 59 58 59 59 59 61 64 65 65 64 64 63 63 63 64 60 61 62 62 61 61 61 62 58 59 57 58 59 56 59 58
42 40 44 44 52 50 49 51 59 56 57 52 51 52 54 57 57 57 58 57 58 57 59 60 62 63 63 63 62 60 60 61 61 61 62 62 62 62 61 62 62 59 59 59 57 58 58 58 60
48 45 42 47 53 50 49 51 56 56 54 52 52 53 54 56 56 57 56 56 57 58 58 58 60 59 60 60 59 58 59 60 59 60 62 63 62 62 60 62 62 61 60 62 62 58 57 58 57
49 43 43 50 53 50 48 50 54 54 53 52 53 52 53 54 54 55 55 54 54 54 56 57 59 59 59 59 60 60 60 60 61 61 62 62 62 62 61 61 62 62 60 60 60 59 58 58 58
46 43 43 46 51 50 47 46 50 51 51 53 53 54 55 54 53 53 53 53 53 53 53 57 57 59 59 59 60 60 60 60 59 59 60 61 62 62 61 61 61 61 59 60 61 59 58 57 60
46 51 49 48 44 39 45 36 44 48 49 50 48 51 53 53 52 53 54 53 53 53 54 56 57 59 60 58 58 55 54 55 55 56 57 58 59 60 60 60 60 60 61 59 60 63 62 60 57
47 53 50 47 42 37 40 38 44 46 47 49 49 50 51 52 53 53 54 55 53 53 53 54 56 57 56 56 54 53 53 53 53 54 55 55 57 57 57 57 57 57 59 59 60 61 62 63 60
54 49 46 41 40 33 40 41 42 43 50 47 48 50 52 52 52 52 53 55 54 53 53 54 55 55 55 55 54 53 52 52 53 52 53 53 54 55 57 58 56 54 54 55 56 57 58 59 60
48 43 34 32 32 32 38 37 48 50 52 55 52 50 51 51 51 52 52 53 53 52 52 55 53 53 53 53 53 52 51 51 50 50 50 51 53 54 55 54 55 55 55 54 54 53 53 54 54
45 45 35 30 29 33 39 36 47 49 51 56 55 52 51 51 51 51 52 52 51 52 51 51 51 51 52 51 51 51 51 51 51 50 50 51 51 52 53 54 55 55 55 55 55 53 51 52 51
44 41 45 39 33 32 37 43 48 49 47 49 51 51 50 51 51 51 52 51 50 49 50 50 50 50 50 50 50 49 49 49 49 49 49 49 50 55 54 53 53 54 54 54 54 54 53 53 52
48 50 40 37 31 30 34 35 42 44 44 46 48 49 50 51 51 51 51 50 49 49 49 49 50 49 49 49 48 49 48 48 48 48 48 49 50 51 51 51 52 52 53 53 53 52 53 53 53
44 41 41 41 37 32 30 37 46 48 48 48 50 51 51 50 50 50 49 48 48 48 48 47 48 48 47 48 47 46 46 46 46 47 47 48 48 49 49 50 50 50 50 51 50 51 52 51 51
44 45 43 37 35 33 32 37 48 47 49 50 51 51 49 51 50 49 48 47 47 46 46 46 46 46 46 47 46 45 45 46 45 45 46 47 46 47 47 48 47 47 48 48 48 48 50 49 48

GFSSGP_sfc_temp_012.txt.gz
Temp
73 69 63 62 54 49 44 51 54 58 59 61 65 61 61 60 63 57 61 65 66 67 70 74 78 78 78 78 77 76 76 76 77 77 78 77 77 76 76 75 76 76 75 76 76 77 78 78 76
69 71 63 55 48 42 46 52 55 59 64 65 63 62 62 62 62 62 61 67 68 68 70 71 77 78 78 77 77 76 76 76 77 77 78 77 77 78 77 76 75 76 76 75 73 75 77 76 75
70 68 59 50 44 43 46 53 57 62 65 63 62 63 61 63 63 63 64 67 68 68 69 71 76 77 77 77 77 76 76 76 77 77 77 76 77 77 76 75 75 75 74 73 73 74 74 74 75
66 63 55 49 44 50 51 54 59 61 66 64 62 63 63 64 63 65 66 67 66 66 68 72 76 77 77 77 76 76 76 76 77 77 77 76 76 77 75 75 74 73 73 73 72 73 73 74 73
61 56 47 43 44 51 55 59 61 58 61 63 62 62 62 63 64 63 65 67 65 66 67 70 76 77 77 77 76 76 76 76 77 77 77 77 76 77 76 74 74 74 73 73 73 73 73 72 73
57 54 45 40 43 52 56 59 58 57 61 65 60 59 63 60 61 63 65 65 66 66 67 70 74 76 76 76 76 76 76 76 76 77 76 76 75 76 76 74 74 74 73 73 73 72 73 72 72
53 49 44 40 44 49 56 61 57 60 59 61 63 59 62 62 65 64 63 64 65 66 67 68 70 72 74 75 75 75 76 76 76 76 76 75 74 74 75 74 74 73 73 73 72 72 72 72 72
54 51 43 41 45 49 58 61 62 58 60 67 63 60 61 61 64 64 62 63 62 64 66 67 68 69 69 69 74 74 74 74 74 74 74 72 71 71 73 72 72 73 73 73 73 72 72 72 72
56 47 43 47 48 52 57 58 62 64 61 64 63 61 64 64 63 60 58 60 60 64 65 66 67 67 67 67 68 72 72 72 72 71 70 68 64 64 64 66 69 70 71 72 73 72 72 71 70
53 45 49 55 54 54 58 56 60 60 60 61 62 65 62 60 58 61 60 59 59 61 63 66 65 65 65 69 66 66 66 65 65 65 64 63 62 61 64 63 67 69 70 70 71 72 71 68 59
52 48 54 58 60 59 57 58 60 57 57 62 64 66 65 59 61 61 61 61 59 59 62 65 64 65 64 65 63 63 63 62 62 62 62 61 62 59 59 58 58 59 62 61 62 61 60 59 57
49 56 56 59 60 58 56 59 58 59 62 67 66 65 63 62 61 61 60 59 58 61 62 64 64 63 63 63 62 62 61 61 60 60 61 59 59 58 57 57 57 57 58 58 58 58 58 57 57
50 54 58 60 59 58 58 56 56 59 64 66 65 65 64 62 61 59 61 61 61 61 63 62 63 64 63 61 61 60 60 61 61 60 60 60 58 58 57 57 56 57 57 57 57 57 58 57 57
56 57 57 58 59 58 57 58 57 59 61 63 63 63 62 61 61 59 62 62 61 62 62 64 63 63 63 63 61 61 60 60 60 59 60 60 59 58 58 57 57 56 57 58 58 58 58 57 56
56 50 55 56 57 57 56 55 54 61 58 60 60 58 60 60 60 58 60 60 61 61 62 63 64 63 62 62 61 62 61 61 59 60 59 60 59 59 59 57 57 58 57 58 57 57 57 56 57
51 47 43 53 54 57 56 50 57 60 56 59 58 54 54 57 56 56 57 57 58 58 59 60 67 64 62 61 61 61 60 60 60 59 59 59 60 59 58 58 59 60 56 56 56 57 56 55 56
47 41 41 48 55 53 51 47 57 57 57 55 53 50 53 55 56 55 56 55 56 56 57 58 60 62 62 61 60 60 60 59 59 58 58 59 60 60 59 59 61 58 56 55 57 58 55 58 58
39 40 41 43 49 49 48 49 58 56 54 52 49 48 50 53 53 54 56 55 56 55 56 57 58 59 60 60 59 59 58 58 58 58 59 60 60 60 58 59 59 58 56 57 55 57 61 59 60
47 43 42 46 51 46 47 47 53 55 53 52 50 51 50 53 53 54 54 54 55 55 55 55 58 56 58 58 57 57 58 59 59 60 60 61 60 60 59 58 59 59 57 59 62 62 58 58 57
47 47 41 48 50 47 47 48 53 53 54 51 52 51 51 51 52 53 53 52 52 52 54 57 57 57 57 58 58 59 58 59 59 59 60 60 60 60 60 58 58 58 57 57 57 57 59 59 60
45 45 41 44 48 48 45 44 46 49 49 50 51 52 51 52 52 51 51 51 51 51 52 55 55 57 57 57 58 58 58 57 56 56 57 57 58 59 58 57 57 57 57 57 57 58 58 57 60
41 49 49 46 42 37 44 35 42 46 47 48 47 49 50 51 51 52 53 52 52 51 53 54 55 55 56 54 55 53 52 51 51 52 53 55 55 56 57 56 55 54 55 54 55 58 57 57 57
45 53 50 48 39 35 37 36 41 42 45 47 47 48 49 49 51 51 52 53 52 52 51 51 54 54 53 54 52 52 51 50 51 51 52 52 54 54 55 55 53 53 53 52 51 52 53 53 53
54 51 48 41 38 31 38 40 38 42 45 45 46 48 50 50 50 51 52 52 51 50 51 51 53 52 52 53 51 50 49 49 50 50 50 51 52 52 53 54 53 52 52 52 52 51 50 50 51
51 46 36 32 31 31 35 34 41 47 49 52 51 49 49 49 49 50 50 50 50 49 50 52 51 50 50 50 50 49 48 47 47 47 48 48 50 50 51 51 51 52 52 52 52 50 49 49 49
47 42 34 30 28 32 36 34 44 45 48 51 54 52 49 48 48 50 50 49 48 49 49 49 49 49 49 49 48 47 47 48 48 47 47 47 48 48 50 50 50 50 51 51 51 50 48 49 48
42 41 43 37 31 31 35 41 49 47 46 45 48 50 48 48 48 49 48 48 47 47 47 48 48 48 47 47 47 45 46 45 45 45 45 46 46 51 49 47 47 48 49 49 49 48 48 49 48
46 49 39 36 30 28 32 34 40 46 45 44 45 47 47 48 48 48 48 47 46 47 46 47 47 46 46 46 45 45 44 44 44 44 43 44 45 45 45 46 46 46 46 47 46 47 47 47 47
43 41 39 40 35 31 29 36 44 46 46 47 46 47 47 48 49 48 47 46 46 45 45 45 45 45 45 45 44 43 44 43 43 42 42 42 42 43 43 44 44 44 44 45 44 45 46 46 45
44 44 42 36 32 31 30 36 46 45 45 47 48 49 48 49 49 47 45 45 45 44 44 44 44 44 44 44 43 42 42 41 40 40 40 41 40 42 42 42 42 42 43 43 43 42 43 43 42

GFSSGP_sfc_temp_015.txt.gz
Temp
75 73 71 69 61 58 53 58 64 65 68 73 72 71 73 74 72 69 74 75 73 75 77 79 78 78 78 77 77 77 77 77 77 77 78 78 78 77 76 76 77 77 76 76 76 76 78 78 77
74 75 68 61 55 51 54 60 62 67 72 72 71 72 72 74 75 75 74 74 74 76 77 78 77 78 78 78 77 76 77 76 77 77 78 78 78 78 78 76 76 76 76 75 74 75 77 76 77
75 71 64 56 51 52 55 61 65 68 69 68 73 75 74 75 76 76 76 75 74 75 77 77 77 78 78 77 77 76 76 76 77 77 77 76 77 78 77 75 75 75 74 74 73 74 75 75 75
70 68 63 56 52 58 59 64 66 66 72 70 73 72 76 77 77 76 75 75 74 75 77 76 76 77 77 77 77 77 76 77 77 77 77 77 77 77 76 75 74 74 73 73 73 73 73 73 74
66 62 55 52 53 58 62 64 66 64 66 70 73 72 73 75 73 74 73 73 74 74 76 77 76 77 77 77 76 76 76 76 77 77 77 77 76 77 77 75 74 74 73 73 73 73 73 73 73
62 61 53 50 52 58 61 64 64 65 66 69 70 71 75 73 73 73 72 73 75 74 74 76 75 76 76 77 76 76 76 76 76 77 77 76 76 76 76 75 74 74 74 73 73 73 73 73 73
60 56 52 51 52 55 61 66 65 65 65 69 72 69 76 75 73 71 72 72 73 74 74 75 77 77 74 75 75 75 76 76 76 76 76 75 74 73 75 75 74 74 74 74 73 73 72 73 73
60 58 50 51 52 55 64 65 68 66 68 73 73 69 72 74 72 71 71 71 71 72 74 74 76 77 77 78 74 74 74 74 74 74 73 72 71 71 73 72 72 73 73 73 73 73 73 73 72
62 53 49 53 52 59 64 62 67 70 68 69 73 72 75 72 69 70 69 68 69 70 72 73 74 75 76 76 75 73 73 72 72 72 70 71 75 73 72 69 69 70 71 72 72 73 73 71 70
58 51 52 59 59 60 63 62 65 65 65 67 71 74 74 71 69 69 69 69 68 69 71 72 72 73 74 74 75 75 75 76 76 75 74 74 73 72 70 67 66 69 69 69 70 71 71 70 73
56 52 57 61 62 63 61 61 65 64 61 67 69 72 72 71 71 69 69 69 70 71 71 72 70 72 73 73 74 73 73 73 73 73 73 72 71 70 70 69 70 70 66 71 70 71 71 71 72
55 58 60 62 64 63 61 63 62 63 68 71 71 70 69 71 71 70 69 70 70 70 72 72 72 71 72 73 72 73 72 72 71 72 71 70 70 68 68 69 69 68 70 68 69 70 70 70 70
55 58 60 62 61 60 61 60 61 63 68 71 68 68 68 69 70 69 69 70 71 69 71 71 72 71 72 70 71 71 71 71 72 71 71 70 69 69 69 69 69 68 68 68 68 69 69 69 70
58 59 61 61 62 61 59 62 60 68 67 68 67 67 66 66 68 68 68 69 69 69 70 71 71 71 72 71 70 71 71 71 70 70 70 70 70 69 68 69 68 68 69 69 69 69 69 69 69
59 55 58 59 61 61 60 56 55 67 65 66 66 64 63 62 63 63 63 65 66 67 67 68 70 71 70 71 71 71 70 70 70 70 70 69 69 68 68 68 68 69 69 68 68 68 67 67 68
55 55 48 57 59 60 61 53 62 63 61 63 64 62 61 60 60 61 62 63 64 64 65 66 68 70 69 70 70 70 70 70 70 70 70 69 69 68 68 68 69 70 68 68 67 67 66 65 64
50 44 45 52 58 58 57 53 60 64 63 63 63 61 61 60 61 60 61 61 62 64 64 65 65 67 67 67 68 68 68 69 69 69 69 69 69 69 68 68 69 69 68 67 66 66 65 64 65
44 44 46 48 55 54 53 52 59 61 60 62 63 59 59 58 58 59 61 61 62 63 64 64 64 65 66 67 67 67 68 68 69 68 68 68 68 68 67 67 67 67 66 66 66 64 66 65 65
48 47 48 51 55 53 52 51 57 61 59 59 58 57 58 58 59 59 60 60 62 62 63 62 63 63 67 66 66 67 65 66 66 66 67 67 67 67 67 67 67 66 65 65 65 64 63 63 66
49 48 46 50 53 53 52 52 58 58 58 60 57 56 57 57 58 58 58 59 59 60 61 62 62 62 63 65 65 66 66 65 64 64 64 65 65 64 65 63 63 64 64 64 64 63 61 62 65
47 45 45 47 50 52 49 49 52 57 57 55 56 57 57 57 57 57 57 57 58 57 58 60 61 61 61 63 65 65 64 63 62 61 61 61 63 62 62 61 61 61 61 60 60 60 59 57 61
43 50 50 48 47 42 51 40 47 55 53 53 53 54 55 56 56 56 57 57 57 57 58 59 59 60 60 62 61 59 59 57 58 59 60 60 60 60 60 60 59 59 59 58 58 60 58 57 55
47 52 51 49 46 43 44 42 48 49 50 51 52 52 54 55 56 55 55 56 56 56 56 57 58 57 58 59 59 58 56 57 57 57 57 58 59 59 58 58 57 57 58 57 57 57 56 57 54
52 50 48 46 45 37 42 44 45 49 52 50 51 52 53 54 55 55 55 55 55 55 56 56 56 55 56 56 56 55 55 55 55 54 54 55 56 56 56 56 56 56 56 55 56 56 55 54 54
50 47 34 34 36 35 40 39 47 51 54 55 54 53 53 54 54 54 54 54 54 54 55 56 55 53 55 55 54 54 53 53 52 52 52 53 53 53 53 54 54 54 54 54 54 52 52 52 51
45 46 38 32 32 36 39 38 49 54 53 53 56 55 53 53 54 54 54 53 53 53 53 54 53 52 53 53 52 53 52 52 52 51 51 51 51 52 52 52 52 52 52 52 52 51 51 51 50
43 40 48 38 37 36 40 45 53 53 51 50 51 52 52 52 52 53 52 53 52 52 52 52 52 51 51 51 51 51 51 50 49 50 50 50 50 51 50 50 50 50 50 50 50 49 50 50 51
48 51 41 40 34 32 37 38 44 50 50 49 48 51 51 51 52 52 52 51 51 51 51 51 51 50 50 50 50 49 49 49 49 49 48 47 48 48 48 48 48 48 49 49 48 48 49 49 48
44 41 42 43 39 35 34 41 48 49 50 50 49 51 51 51 52 51 51 50 50 50 50 49 50 49 48 49 48 48 47 47 47 47 47 47 47 47 46 46 46 47 46 47 47 47 48 46 46
48 46 45 39 35 34 36 41 51 47 48 49 49 51 52 53 52 51 49 48 48 48 48 48 48 47 47 47 47 46 46 46 45 45 45 46 45 46 45 45 45 45 45 45 45 44 45 45 44

GFSSGP_sfc_temp_018.txt.gz
Temp
85 84 89 84 70 71 66 67 73 71 73 80 83 79 80 83 80 74 84 87 85 87 87 83 78 79 79 78 77 77 77 77 77 77 78 78 78 77 77 76 77 77 77 76 75 76 77 78 78
87 86 84 77 66 61 67 72 69 73 79 81 82 80 79 81 87 86 87 86 84 87 87 87 77 78 78 78 77 77 77 77 77 77 78 78 78 78 77 76 76 76 76 75 74 74 75 77 76
85 85 79 72 65 61 65 70 73 77 81 77 80 84 84 83 87 88 86 86 85 86 87 86 77 78 78 78 77 77 77 77 77 77 77 77 77 78 77 76 75 75 74 74 73 73 75 74 74
84 84 79 67 63 67 67 71 74 75 80 79 82 80 86 88 87 87 86 86 86 87 88 80 77 78 78 78 77 77 77 77 76 77 77 77 76 77 76 75 74 74 73 73 73 73 74 73 73
86 79 68 64 64 69 74 75 76 73 76 79 80 80 82 85 85 85 85 85 86 86 87 85 76 77 78 77 77 77 76 77 76 77 77 77 77 76 77 75 74 74 74 73 73 73 73 73 73
76 76 64 60 64 69 74 75 74 75 77 79 79 79 82 85 84 83 84 85 86 85 85 86 76 76 77 77 76 76 76 76 76 77 78 76 76 75 76 75 74 74 74 74 73 74 73 73 73
70 68 64 64 64 66 70 75 74 74 77 76 81 76 84 86 83 83 84 85 84 85 85 85 85 80 74 75 76 76 76 76 76 76 76 75 74 74 75 74 74 74 74 74 74 73 73 73 73
74 70 63 65 64 63 72 74 76 75 75 83 83 77 80 83 83 82 82 83 84 83 84 85 85 86 85 83 74 74 74 74 75 74 73 73 72 72 73 72 73 72 73 73 73 73 73 73 73
73 64 60 63 63 67 73 71 76 79 76 80 82 82 84 83 81 81 80 81 82 81 83 84 85 85 85 86 82 74 73 73 72 73 71 72 80 81 78 72 69 70 71 72 72 72 72 71 70
69 62 63 70 72 69 71 71 73 72 76 77 81 85 86 85 84 82 81 82 80 82 83 84 84 84 84 84 84 82 84 83 83 83 82 82 82 81 76 70 67 69 70 70 70 71 71 70 79
68 62 69 69 71 72 70 71 74 71 70 76 77 82 85 84 85 84 83 83 85 85 85 83 84 84 84 83 84 85 84 83 83 82 82 81 81 81 79 78 77 77 70 77 77 77 78 78 79
62 69 70 71 70 69 69 73 71 73 73 81 82 83 81 82 84 84 84 84 84 83 84 85 85 84 84 84 83 84 83 82 82 82 81 81 80 79 79 79 78 77 78 78 78 78 79 78 78
63 69 70 71 70 70 71 69 71 72 79 83 82 79 79 81 83 85 82 82 83 82 83 83 84 84 84 83 83 83 83 82 82 81 81 81 79 78 79 79 79 79 79 79 78 78 78 78 79
68 67 69 71 70 71 66 70 69 75 82 81 80 78 80 77 78 79 79 80 81 81 81 82 82 83 85 83 82 83 83 83 81 81 80 79 79 79 78 78 78 78 79 79 78 77 77 77 78
69 61 66 68 69 68 70 65 67 77 78 75 77 78 74 72 74 73 74 75 76 79 79 79 79 82 82 83 83 82 82 81 81 81 80 78 78 77 77 77 77 78 79 77 78 77 77 77 77
61 60 55 67 68 69 67 58 72 76 74 73 74 75 73 70 71 73 73 74 75 76 76 77 77 78 80 81 81 82 82 82 81 81 80 78 78 77 76 76 77 78 77 77 76 75 74 74 74
55 51 54 60 68 68 65 62 72 74 73 74 78 74 72 71 72 72 72 73 74 76 77 76 76 76 77 77 79 79 78 80 80 80 80 77 77 76 75 76 76 76 75 75 74 73 73 71 71
49 51 58 57 65 63 63 62 70 75 72 74 76 74 72 71 69 71 71 73 74 75 76 76 76 76 76 77 78 78 77 77 77 76 76 76 76 75 75 75 74 75 74 74 73 71 73 72 71
59 58 55 61 66 61 62 64 67 73 74 73 73 73 71 70 69 70 71 73 73 74 74 75 75 76 78 78 76 75 72 73 73 73 73 73 73 73 72 72 72 72 71 71 71 70 69 69 71
59 56 55 62 62 60 62 62 68 72 73 73 74 71 70 68 69 69 70 71 72 72 73 73 73 74 75 75 75 74 72 71 71 70 70 71 71 70 70 69 69 69 69 68 67 67 65 66 68
55 53 56 57 58 62 59 60 66 68 67 67 69 73 71 69 68 68 69 69 69 69 70 70 71 71 73 74 73 72 72 71 69 68 68 68 69 68 68 67 67 67 66 65 65 64 62 60 64
51 60 59 55 53 49 59 50 62 68 66 64 67 68 68 68 69 68 68 67 67 67 69 69 70 70 71 72 71 69 68 64 66 67 67 67 67 66 65 65 65 65 65 63 63 64 62 61 58
56 60 58 56 52 49 55 51 61 61 63 63 65 66 67 68 68 66 65 65 66 66 66 67 68 68 68 69 69 68 65 65 66 66 65 65 65 64 63 63 62 62 62 62 61 60 60 61 58
59 57 55 54 50 45 55 53 59 63 63 63 65 66 66 67 67 66 64 65 64 65 65 65 65 65 66 66 66 64 63 63 63 62 63 63 64 63 61 61 61 61 59 59 59 59 58 58 56
58 53 38 37 39 45 52 50 61 65 64 65 64 65 66 66 65 63 63 64 64 63 63 64 64 62 64 64 63 63 62 61 60 61 61 60 61 60 58 59 59 59 58 58 58 56 55 55 53
50 54 48 38 42 47 48 48 60 64 64 65 69 68 66 65 66 65 64 64 63 62 63 63 62 61 62 61 61 61 61 60 60 59 59 59 58 58 57 57 57 57 57 57 57 55 54 55 55
46 47 56 48 48 49 53 57 63 62 62 61 64 65 63 64 64 64 63 64 63 62 62 61 60 60 60 60 60 60 60 59 57 58 58 56 56 56 56 56 56 56 56 56 55 54 54 55 55
51 56 43 49 41 40 49 50 58 61 61 59 61 62 64 64 64 63 63 62 62 61 60 60 61 59 58 59 59 58 58 58 57 57 55 55 55 55 55 55 55 55 55 54 54 54 54 53 53
47 42 45 51 51 47 46 52 63 61 62 61 63 64 64 63 63 63 62 61 60 60 60 59 59 58 57 57 57 57 56 55 56 55 54 54 54 54 53 53 53 53 52 53 52 52 52 50 50
56 51 53 46 44 50 50 54 63 62 60 59 63 63 65 64 64 63 61 59 58 58 58 58 58 57 56 56 55 54 54 54 54 53 53 53 52 53 52 52 51 51 51 51 50 49 50 49 48

GFSSGP_sfc_temp_021.txt.gz
Temp
87 94 90 83 70 71 67 72 79 75 76 83 85 82 82 84 81 73 89 91 91 90 90 82 79 78 79 79 78 77 77 77 77 77 78 78 78 77 77 77 77 77 77 76 75 75 76 77 76
88 91 89 79 63 62 67 79 73 78 81 84 83 84 82 82 91 89 89 90 90 91 90 87 77 78 78 78 77 77 77 77 77 77 78 78 78 77 77 77 77 76 75 75 74 74 74 74 75
90 91 79 74 68 60 65 75 78 80 84 82 81 87 86 84 90 91 90 90 90 90 91 86 78 78 78 78 77 77 77 76 77 77 77 77 76 77 78 77 75 75 74 74 73 73 74 74 74
86 86 82 68 65 71 71 75 77 77 83 84 84 81 89 90 90 90 91 91 91 91 92 78 77 78 78 78 77 77 77 77 76 76 77 77 77 77 77 75 74 74 73 73 73 73 73 73 73
86 80 68 66 68 73 78 80 78 75 78 80 82 80 84 88 90 91 90 90 91 91 91 84 77 78 78 78 77 76 76 76 76 76 77 77 77 76 76 75 74 74 73 73 73 74 73 73 73
74 77 64 62 68 74 78 81 79 79 81 81 80 80 82 89 89 88 89 90 91 90 89 86 76 76 77 77 76 76 76 76 76 76 77 76 75 76 75 75 74 74 74 74 74 74 74 73 73
70 69 63 66 68 70 75 80 77 77 79 81 84 77 86 86 88 88 89 91 90 90 89 88 85 79 74 75 75 76 76 76 76 76 76 76 74 74 75 74 74 74 74 74 73 74 73 74 74
77 73 64 67 66 67 76 77 80 78 78 87 86 79 81 85 87 87 88 89 89 88 89 89 88 86 84 82 74 75 74 74 75 74 74 73 72 72 73 73 73 73 72 73 73 73 73 73 73
78 65 61 64 67 70 78 74 81 83 78 82 85 85 88 88 88 86 85 86 87 87 88 89 89 88 88 88 81 74 73 73 73 73 71 72 78 81 80 74 71 71 71 72 72 72 72 71 70
69 62 64 74 75 73 76 74 76 75 77 79 83 89 90 90 89 87 86 86 84 85 86 88 88 88 87 87 85 83 84 82 81 82 83 81 83 83 80 72 69 70 70 70 71 71 71 70 75
69 62 72 74 77 76 73 74 79 74 71 78 79 83 87 88 87 88 88 89 90 89 89 88 88 88 88 86 86 87 86 85 85 85 84 84 83 82 81 80 79 77 70 74 76 76 74 78 79
64 71 72 75 76 73 70 76 73 75 76 83 83 85 85 85 86 88 88 89 89 89 89 89 89 88 88 88 85 87 86 85 85 84 84 82 81 80 81 81 80 79 79 78 78 78 79 79 79
64 70 74 75 75 73 74 71 71 73 80 84 85 84 84 84 86 88 89 88 89 88 88 88 88 88 88 86 86 86 86 84 85 83 83 83 81 80 81 80 80 80 80 79 78 78 78 79 80
67 70 71 74 73 74 70 71 73 75 81 82 83 83 84 84 83 83 85 85 86 87 86 87 87 87 88 87 86 86 85 85 84 83 82 81 80 80 79 79 79 79 79 80 79 78 78 77 78
66 61 68 70 72 71 74 65 67 77 80 79 80 83 83 81 80 80 79 80 81 84 84 83 84 86 86 87 86 85 84 84 83 82 82 81 80 79 78 77 77 78 80 79 78 77 76 74 74
61 60 51 67 70 72 70 58 72 81 78 77 80 81 79 77 78 78 78 79 80 80 80 81 81 81 84 84 85 84 84 84 83 82 82 80 80 79 77 77 77 77 76 74 72 72 73 73 74
55 50 52 57 71 70 67 61 73 79 77 76 79 81 79 77 77 77 77 78 79 81 81 79 80 80 81 82 82 82 81 81 80 80 80 78 78 77 76 74 73 76 75 75 74 73 73 71 72
48 52 54 55 67 68 64 64 71 76 77 76 78 81 79 77 75 76 76 78 79 80 80 79 79 79 79 80 80 80 79 78 77 76 76 76 76 75 75 74 74 74 73 72 71 70 71 70 70
58 56 54 63 70 67 65 64 69 75 75 75 77 79 78 76 74 75 76 77 77 78 78 78 79 79 80 79 77 75 72 73 72 73 74 73 73 73 72 71 72 71 70 70 69 68 66 66 68
54 55 57 65 68 65 63 63 70 74 74 76 78 78 77 73 73 73 75 76 76 75 76 75 76 78 78 77 75 74 73 72 71 71 71 72 71 70 70 68 68 68 67 67 65 65 62 63 65
52 54 57 58 65 64 62 59 64 71 74 77 78 80 78 72 71 72 72 72 73 72 73 73 74 74 74 74 73 73 72 71 70 69 68 69 69 68 67 66 66 65 65 63 63 62 60 58 61
47 61 60 59 56 51 63 50 65 71 69 69 73 76 75 73 73 72 71 70 70 70 72 72 73 73 74 75 73 71 68 65 67 68 68 68 67 65 65 64 64 63 63 61 61 62 60 59 56
53 62 59 59 56 54 53 51 61 70 66 69 72 73 73 72 72 70 69 69 69 69 69 70 70 70 72 72 71 69 67 67 67 68 67 67 67 65 63 63 62 61 61 60 59 58 58 59 56
59 57 57 57 54 42 54 55 59 64 67 71 71 71 71 71 71 69 68 68 66 67 67 67 68 68 69 68 68 67 65 65 64 64 64 64 65 63 61 61 61 60 59 57 58 58 56 55 55
55 50 38 37 39 44 59 56 62 66 68 70 69 69 70 70 68 66 65 65 65 65 65 67 67 65 67 66 66 65 64 63 62 62 62 61 61 60 58 59 59 58 58 58 57 55 54 53 53
49 50 47 37 40 48 55 48 60 69 69 71 72 71 69 68 68 66 67 66 65 65 66 66 65 64 65 64 64 64 63 62 62 61 60 59 58 58 58 58 58 58 58 57 57 54 54 53 53
49 50 58 52 55 53 53 59 65 67 65 67 70 68 67 67 67 67 67 66 65 65 65 64 63 63 63 63 63 62 62 61 59 60 60 58 58 58 57 57 56 56 56 56 55 54 53 54 53
54 62 48 53 43 42 52 55 56 62 65 65 66 67 67 68 67 67 66 66 66 65 64 64 64 62 61 62 61 61 60 60 59 59 57 56 57 57 56 55 55 55 55 55 54 53 53 52 52
47 51 53 56 54 49 47 53 68 64 65 66 66 68 67 67 67 66 66 66 64 64 63 62 61 60 60 60 60 59 58 58 58 57 56 55 56 55 55 54 54 53 53 53 52 51 51 50 50
55 53 56 50 46 54 53 53 67 67 65 66 67 68 69 68 67 67 66 64 62 62 62 61 61 60 59 59 58 57 57 57 56 55 55 55 54 55 53 53 52 52 51 51 50 49 49 48 47

GFSSGP_sfc_temp_024.txt.gz
Temp
81 85 85 73 58 58 55 62 72 69 69 72 76 73 71 75 73 60 77 82 84 81 80 79 78 79 79 78 78 77 77 77 77 77 78 78 78 77 77 77 77 77 76 76 75 75 75 75 75
79 83 77 67 53 50 56 69 66 70 74 76 76 74 72 71 81 77 76 83 86 84 80 80 78 78 78 78 78 77 77 77 77 77 78 78 77 77 77 77 76 76 75 75 74 74 74 75 74
82 86 66 61 57 51 56 68 69 73 77 75 72 74 73 72 80 77 80 83 85 82 82 81 77 78 78 78 78 77 77 76 77 76 76 77 77 77 78 77 75 74 74 73 73 73 73 74 74
78 73 70 58 56 64 62 69 71 71 76 75 76 71 76 78 76 79 84 85 83 81 77 76 77 78 78 77 77 77 77 76 76 76 76 77 77 76 77 75 75 74 73 73 73 73 73 73 73
77 68 57 56 60 67 66 73 73 68 71 73 73 70 71 77 82 82 82 84 82 81 77 76 77 77 77 77 77 77 76 76 76 76 76 77 77 76 76 75 74 74 73 73 73 74 74 73 73
65 67 54 53 60 70 69 73 70 72 74 74 70 70 68 77 78 78 82 79 84 81 80 76 75 76 77 77 76 76 76 76 76 76 76 76 76 75 76 75 74 74 74 74 74 74 74 74 74
63 60 55 57 60 65 70 75 65 70 70 72 74 66 70 75 77 80 80 81 80 82 80 77 75 75 75 75 75 75 76 75 76 76 76 75 74 74 75 74 74 74 74 74 73 74 74 74 74
68 64 57 59 58 61 71 72 71 69 69 78 74 66 63 71 78 80 77 79 78 79 80 78 76 76 74 72 74 74 74 74 74 74 73 72 71 72 73 73 73 73 73 73 73 73 73 73 73
73 56 53 58 60 64 72 68 74 75 70 75 77 75 76 80 80 77 75 76 76 79 78 79 78 77 77 76 74 73 73 72 72 72 70 69 67 70 71 70 71 71 72 72 72 72 72 71 70
63 54 56 67 68 67 72 70 70 69 69 71 73 79 80 80 77 74 74 73 75 75 77 78 78 78 78 83 73 72 73 70 70 71 70 69 69 70 73 68 70 71 71 71 71 72 71 70 67
63 55 64 68 72 74 69 69 72 68 64 70 70 74 77 76 75 76 77 78 76 77 77 79 78 78 77 77 74 75 73 74 74 73 73 71 72 70 68 67 67 64 66 64 68 67 67 66 67
59 65 67 68 72 71 66 70 67 69 68 75 76 76 76 76 75 77 76 74 74 77 78 79 79 77 77 76 75 75 74 73 72 73 74 71 69 68 69 68 67 67 67 65 66 66 69 69 70
60 64 69 71 71 72 71 65 66 67 72 76 77 77 75 76 76 77 77 75 74 75 78 78 78 77 77 76 75 75 74 73 73 73 73 71 69 68 68 68 68 67 68 67 67 67 69 70 70
64 64 66 69 70 70 67 66 66 69 73 73 75 74 75 75 74 71 74 72 71 74 76 78 78 77 77 75 75 74 74 74 73 74 72 73 70 68 68 68 69 70 71 71 71 71 69 70 71
63 56 63 64 67 67 69 61 62 70 73 71 72 72 74 73 73 67 70 70 71 72 73 75 75 75 75 75 75 75 76 75 75 74 75 73 71 69 68 67 67 70 71 71 70 70 69 67 67
55 55 47 60 64 67 64 52 65 71 70 70 71 69 69 71 69 70 69 68 69 68 71 72 76 71 72 73 74 75 77 75 75 74 73 75 74 72 67 70 69 70 70 69 67 63 62 61 61
49 42 47 52 64 64 62 55 66 71 70 66 67 69 69 68 69 68 68 66 67 70 70 70 71 71 72 73 72 75 74 73 71 70 73 73 72 70 70 68 64 64 63 61 61 60 58 57 58
41 43 49 49 59 61 58 59 64 69 67 65 67 68 67 67 67 67 68 67 68 70 69 69 69 69 70 70 70 70 69 68 67 65 65 66 65 65 62 62 61 61 59 59 58 57 57 56 56
50 49 48 55 63 58 57 59 62 67 67 65 66 66 66 65 66 67 66 66 66 68 68 68 68 69 69 67 66 65 62 61 61 62 64 63 63 62 59 58 59 58 57 57 58 56 54 53 54
47 45 46 56 62 60 58 59 63 64 66 68 68 67 66 63 63 64 65 64 65 64 65 66 67 68 68 67 65 65 62 61 60 61 61 62 60 60 61 56 56 56 54 54 53 52 50 51 52
46 44 46 44 58 62 55 51 55 63 67 68 68 70 67 64 62 62 61 61 61 61 62 64 64 64 64 65 66 64 61 59 57 57 57 58 59 58 57 56 54 53 53 51 50 50 49 46 49
40 50 51 47 51 43 54 37 52 60 62 66 64 65 64 64 64 63 61 60 59 59 61 63 64 64 64 63 61 59 56 54 55 56 57 57 58 56 56 55 54 52 51 49 49 53 48 47 45
44 52 47 49 46 46 49 44 49 59 58 62 60 62 63 64 64 61 60 61 60 59 58 59 61 61 61 61 60 57 55 55 55 55 55 56 55 55 54 54 52 51 50 49 48 48 47 47 45
49 47 45 46 47 37 46 44 46 54 59 59 61 62 63 63 62 60 60 60 57 57 57 57 58 58 59 58 57 55 54 53 53 52 52 52 52 51 52 53 51 50 49 48 48 47 46 45 45
46 40 32 33 34 35 50 45 50 56 62 64 62 61 62 62 60 58 56 56 56 56 57 58 57 56 57 56 55 55 53 52 51 50 50 49 49 48 48 49 49 48 48 49 48 46 44 44 43
41 36 35 29 31 37 51 41 48 60 62 65 64 62 62 61 59 58 56 56 55 56 56 56 56 55 55 54 53 53 53 51 51 50 49 48 48 47 49 48 48 48 49 48 47 45 44 45 42
40 34 46 45 46 41 42 47 53 58 56 59 60 61 59 60 58 58 57 56 55 55 55 55 54 54 54 53 52 51 51 50 49 49 49 48 48 53 48 47 47 47 47 47 46 43 43 43 43
45 50 43 41 35 35 40 43 45 51 53 57 58 58 59 60 59 58 58 57 56 56 55 55 54 53 53 52 52 51 50 50 49 48 47 48 48 48 47 46 46 46 46 46 44 43 43 43 42
42 44 47 47 47 38 34 41 54 55 57 56 57 60 60 59 59 59 58 57 55 54 54 53 52 52 51 51 50 49 49 49 49 47 47 46 47 46 46 46 45 45 44 44 42 42 43 43 41
51 49 48 41 40 43 42 40 58 56 58 58 59 61 61 60 60 59 57 56 53 53 52 52 52 51 50 51 49 48 48 48 46 46 46 47 45 46 45 45 44 44 43 42 41 41 41 40 40

GFSSGP_sfc_temp_027.txt.gz
Temp
76 75 73 70 55 52 50 57 60 66 67 68 70 67 65 67 67 59 72 75 75 74 77 78 78 78 78 78 78 77 77 77 77 78 78 78 78 77 77 77 77 77 77 75 75 75 75 75 75
72 76 69 61 50 44 49 59 60 64 68 71 73 69 67 66 72 71 71 78 77 76 76 77 78 78 78 78 78 77 77 77 77 77 78 78 77 78 77 77 76 75 75 74 74 74 74 74 74
75 76 61 54 49 47 49 59 60 68 73 71 69 71 67 66 71 72 74 79 77 76 77 77 77 78 78 78 78 77 77 76 76 76 77 76 77 77 78 76 75 74 74 73 73 73 73 73 73
70 66 62 52 50 58 58 62 62 68 72 74 70 67 69 71 70 75 79 80 77 74 76 76 77 78 78 77 77 77 77 76 76 76 76 76 76 77 77 76 74 73 73 73 73 73 73 73 73
67 59 50 47 52 59 62 69 67 64 66 69 69 65 65 72 74 76 78 79 73 71 75 76 77 78 77 77 77 77 76 76 76 76 76 76 77 77 76 75 74 74 73 73 73 73 74 73 73
58 57 45 44 51 61 65 69 67 64 66 69 67 64 63 70 73 73 78 76 75 73 75 76 75 76 77 77 77 76 76 76 76 76 76 75 76 76 76 74 74 74 73 73 74 74 74 74 74
54 50 46 47 51 57 64 70 65 63 62 65 68 63 62 67 74 77 75 76 76 75 73 72 73 74 74 75 75 75 76 76 76 76 76 74 74 74 75 75 74 74 74 74 73 73 74 74 74
58 53 48 48 52 54 64 68 68 66 62 72 70 63 60 70 76 76 76 77 75 74 73 70 70 71 71 72 74 74 74 74 74 74 73 71 71 72 74 73 73 74 73 73 73 73 73 73 73
61 47 46 50 53 59 65 65 70 72 66 68 69 68 73 75 75 71 70 71 72 75 72 71 70 70 70 71 72 72 72 72 72 71 70 69 66 67 68 69 70 72 72 72 72 72 72 71 70
54 47 51 59 60 60 66 66 67 65 64 63 66 72 71 70 68 69 69 69 70 71 72 73 72 71 72 76 71 69 71 68 68 68 67 66 65 65 70 67 69 71 71 71 72 72 71 69 64
55 50 58 62 66 66 65 63 67 62 59 65 66 69 70 74 72 74 71 69 70 72 72 74 72 73 73 72 70 70 69 67 67 67 67 66 68 65 65 63 64 63 65 64 66 65 64 63 63
51 59 61 63 66 65 62 66 62 63 64 69 70 70 69 71 72 73 73 72 71 71 73 74 74 72 72 71 71 71 70 68 66 67 68 66 65 65 64 63 63 62 63 62 62 62 64 64 66
53 58 63 65 66 66 67 62 63 62 67 71 73 72 70 70 71 72 71 72 71 71 72 73 73 72 72 71 71 70 72 70 69 69 70 68 65 64 64 64 64 64 65 65 66 68 69 69 67
57 59 60 63 64 65 64 61 61 64 68 67 69 69 69 69 71 69 68 68 68 69 72 73 74 72 72 70 70 71 70 74 72 72 73 70 67 65 65 65 66 69 69 70 69 68 68 68 67
56 53 56 59 61 60 64 57 57 64 67 66 68 66 70 67 68 67 67 68 66 67 68 71 71 71 70 71 71 71 75 74 73 73 73 73 69 66 66 67 68 68 69 69 68 67 62 59 61
48 47 43 55 58 60 61 50 61 65 63 63 65 63 64 67 68 66 68 67 67 66 68 68 73 70 70 70 70 72 74 73 72 72 71 71 71 70 67 67 65 66 65 60 58 56 56 55 55
41 37 40 47 58 58 57 52 62 64 64 63 60 61 63 63 63 64 67 66 65 65 66 67 68 68 68 67 70 71 71 70 69 69 69 68 66 64 65 63 59 58 57 56 56 54 53 52 53
36 36 40 41 52 55 53 53 58 62 63 64 61 62 60 62 61 64 66 65 66 65 65 64 65 65 66 67 67 67 67 65 66 64 62 62 61 60 58 57 56 56 54 54 53 52 52 51 50
43 40 40 47 55 53 53 53 57 60 62 57 60 59 58 59 61 63 63 64 63 63 64 64 64 65 67 65 63 62 58 60 60 60 60 59 58 58 55 54 54 53 52 51 53 51 49 49 49
43 39 39 47 54 52 52 52 59 62 61 64 61 61 57 57 58 60 61 61 61 59 60 61 62 62 64 64 61 59 58 57 57 56 56 57 56 56 56 52 51 51 50 49 48 47 46 47 47
41 38 39 42 49 51 49 48 53 59 63 62 64 64 62 59 59 57 56 57 57 58 59 60 61 62 63 63 63 61 58 55 54 53 53 54 55 54 53 52 50 49 48 46 46 46 45 43 44
38 47 47 45 44 37 49 36 46 55 57 58 58 57 60 58 59 58 57 55 56 55 57 59 60 61 61 61 59 56 53 51 52 52 52 52 53 52 52 52 50 48 47 46 46 49 44 43 41
40 49 45 45 42 42 43 40 43 52 52 58 62 54 58 59 59 58 57 57 56 55 54 55 56 57 57 56 56 55 51 51 51 51 50 50 50 51 51 50 48 47 46 45 45 44 43 43 42
49 43 43 43 41 33 41 40 39 47 55 57 59 56 58 58 57 57 57 57 54 53 53 53 56 54 55 54 53 52 50 50 49 48 48 48 48 47 48 50 47 46 46 45 44 44 43 42 42
43 35 28 26 29 31 43 40 43 52 56 60 56 56 57 57 56 55 54 54 52 52 52 54 54 52 52 53 52 50 49 48 47 47 46 46 46 45 45 46 45 44 45 45 44 43 42 41 40
37 36 28 22 29 33 44 34 44 60 58 60 60 59 57 55 55 54 54 53 52 53 52 52 52 51 51 50 49 49 49 47 47 47 46 45 45 45 45 45 45 45 45 44 43 41 40 42 39
37 32 42 34 34 35 39 44 50 52 53 56 56 56 54 53 54 53 54 53 51 50 51 51 51 50 50 49 48 47 47 47 46 45 45 44 45 50 45 44 44 44 44 43 42 40 40 39 39
43 47 32 33 27 28 35 37 41 46 49 53 54 53 53 54 54 54 54 53 51 52 50 50 50 50 49 48 48 48 47 46 46 45 44 44 44 44 44 43 43 42 42 42 40 39 40 39 38
38 37 39 40 37 30 29 37 48 50 53 53 54 55 53 54 54 54 54 54 52 51 51 49 49 49 48 47 46 46 46 46 45 44 44 43 43 43 43 42 42 42 41 41 39 39 40 38 37
47 43 42 32 32 37 37 37 51 52 53 55 54 56 55 55 55 54 54 52 51 50 50 49 48 47 47 47 46 45 45 44 43 43 43 43 42 42 42 42 42 41 42 41 39 38 38 36 35

GFSSGP_sfc_temp_030.txt.gz
Temp
74 72 67 66 55 51 47 53 55 59 63 67 68 68 64 63 64 57 67 72 73 73 76 77 78 78 78 78 77 77 76 77 77 77 78 77 77 77 77 77 77 77 76 75 75 75 75 75 75
71 74 66 57 49 44 48 56 57 61 66 68 70 68 64 62 67 68 67 72 74 75 76 76 78 78 78 78 77 77 77 76 77 77 78 78 79 78 77 76 76 75 75 74 74 74 74 74 74
73 72 59 52 46 44 48 56 60 68 69 69 66 68 64 64 68 69 69 73 74 74 76 76 77 78 78 78 77 77 77 76 76 77 77 77 76 77 77 76 75 74 74 73 73 73 73 73 73
67 63 58 49 47 53 55 59 64 66 70 69 67 64 66 68 70 73 73 74 72 72 73 75 77 78 78 77 77 77 77 76 76 76 76 76 76 77 78 76 74 73 73 73 73 73 73 73 73
63 56 48 45 48 54 55 63 63 64 64 65 66 61 62 69 71 74 73 73 70 70 73 75 77 77 77 77 77 77 76 76 76 76 76 76 76 76 77 75 74 73 73 73 73 73 73 73 73
56 54 42 42 48 56 59 64 63 64 63 67 65 59 62 68 72 73 75 71 73 71 73 75 75 76 77 77 77 76 76 76 76 76 76 76 76 76 76 74 74 73 73 73 73 74 74 73 74
53 48 43 44 48 52 59 66 58 62 62 64 65 57 60 66 72 75 72 70 71 72 72 72 73 74 74 75 75 76 76 75 76 76 75 74 74 75 75 74 74 74 73 73 73 73 73 73 73
56 51 44 45 48 51 61 63 65 63 62 69 70 59 58 68 73 73 71 69 68 70 71 70 71 72 72 73 74 74 74 74 74 74 73 71 71 72 73 73 73 73 73 73 72 73 73 73 73
58 45 43 48 50 54 62 61 68 67 63 66 66 67 69 71 72 68 66 67 67 69 69 70 70 70 70 71 72 72 72 72 72 71 70 68 65 65 67 68 70 71 73 73 73 73 72 71 70
51 45 48 55 57 57 61 61 64 62 61 61 63 68 69 70 66 68 67 67 66 66 68 68 69 69 69 74 70 69 70 67 67 67 66 65 64 64 68 66 69 71 71 71 72 72 71 69 64
52 48 55 58 62 62 59 60 66 61 58 63 63 64 67 68 67 68 68 67 68 70 69 70 68 69 69 72 68 68 67 66 65 65 65 64 65 62 63 62 63 63 64 63 65 64 63 62 62
47 55 58 59 62 60 57 62 60 61 63 67 67 67 66 67 68 68 68 67 66 68 71 72 71 69 68 70 69 68 67 65 64 65 66 63 62 61 60 60 61 61 62 61 61 61 62 64 67
48 52 58 60 61 62 63 59 59 61 67 68 69 69 67 67 67 69 69 71 68 67 71 70 71 71 69 68 69 67 67 66 66 65 66 64 62 61 62 62 62 62 62 65 66 67 68 68 68
52 53 55 58 59 60 58 60 59 62 66 65 67 67 66 67 68 65 68 69 67 68 69 71 70 70 70 70 67 68 68 69 69 70 70 69 66 63 63 62 63 66 68 68 67 66 64 63 61
52 47 51 53 55 55 60 54 56 63 64 63 64 65 65 67 67 68 67 66 66 65 67 69 70 69 68 69 69 68 73 73 71 71 71 70 68 64 64 64 64 65 65 65 63 61 57 55 56
45 43 38 50 55 56 57 47 57 63 59 61 61 62 60 64 67 64 65 65 65 66 67 68 72 68 67 67 67 69 72 71 70 69 68 69 68 67 65 63 62 62 61 56 54 52 52 52 51
39 34 37 44 56 54 53 50 59 63 59 58 59 59 61 61 62 61 64 65 65 64 65 66 67 66 65 66 67 67 67 68 67 66 66 65 64 62 60 57 54 54 53 52 52 51 50 49 49
37 34 37 38 48 52 50 50 56 58 58 59 63 64 58 59 61 61 64 62 63 62 63 63 63 62 63 64 64 64 65 65 64 63 62 59 58 57 55 53 52 52 51 50 49 49 49 47 46
41 36 35 40 50 47 47 50 54 58 56 54 57 56 57 58 59 59 60 60 60 60 61 61 61 61 64 63 60 57 54 59 59 59 57 56 55 54 52 51 51 50 49 47 49 47 46 45 45
39 36 36 43 49 49 45 45 52 58 59 59 61 58 57 55 56 58 58 57 59 58 59 60 60 60 61 61 58 57 55 54 57 54 54 53 53 53 53 50 48 48 47 46 45 44 43 43 43
38 36 37 37 44 47 46 43 48 55 59 61 63 64 57 58 56 55 55 55 55 55 57 58 59 59 60 61 60 58 57 54 52 50 50 51 52 52 50 49 48 47 45 44 43 43 42 40 42
34 43 43 41 40 30 45 34 43 50 54 57 61 56 56 58 57 55 54 53 54 54 55 57 59 59 59 60 58 57 54 51 49 49 48 49 50 50 50 49 47 46 44 43 43 46 42 41 39
38 47 43 44 40 38 38 34 41 50 50 54 58 58 58 58 58 55 55 55 54 54 53 55 56 56 55 55 55 54 50 49 48 48 47 47 47 48 49 48 46 45 44 43 42 42 41 40 39
47 43 42 40 39 29 36 36 38 45 50 53 59 55 55 57 56 54 53 54 51 51 52 53 54 52 53 54 52 51 49 48 47 45 45 45 45 45 46 47 44 43 43 42 41 41 40 40 39
43 36 27 25 25 25 39 35 40 46 52 57 59 55 55 56 53 52 52 52 51 51 51 53 53 50 51 51 50 49 48 47 46 45 44 44 44 43 43 44 43 42 42 42 41 40 39 39 37
37 36 28 18 17 27 40 33 40 53 59 61 57 57 55 53 54 53 53 52 51 51 50 51 51 49 50 49 47 47 47 45 45 45 44 44 43 43 43 42 42 42 42 41 40 39 38 39 36
34 31 40 31 33 28 33 37 48 52 50 51 52 53 52 52 53 52 52 52 51 50 50 50 50 48 48 48 47 45 45 45 44 44 43 43 43 48 42 42 41 41 41 40 39 38 37 37 36
42 43 29 31 17 21 31 34 41 46 45 47 49 50 51 51 51 51 52 51 50 50 48 48 49 48 47 46 46 45 44 44 43 43 42 43 42 42 41 41 40 40 40 40 38 37 37 36 36
34 33 36 35 32 26 28 35 51 53 51 48 50 51 50 50 50 51 51 51 49 49 49 47 48 47 46 46 44 44 43 43 43 42 42 42 41 41 41 40 39 39 39 39 37 37 37 36 35
40 37 38 30 28 34 30 33 50 50 52 54 52 51 51 52 51 51 51 49 48 48 47 47 46 46 45 45 44 43 43 42 41 41 41 41 40 40 39 39 39 39 39 38 37 36 35 34 34

GFSSGP_sfc_temp_033.txt.gz
Temp
73 70 65 63 53 49 45 51 53 58 58 62 65 65 66 62 63 56 66 70 70 73 75 77 78 78 78 78 77 77 77 77 77 77 77 77 77 77 77 77 77 77 75 75 75 75 75 75 75
69 71 64 55 47 41 46 53 56 61 64 66 63 62 63 60 65 64 65 70 73 74 75 75 78 78 78 78 77 77 77 77 77 77 77 78 78 77 77 76 76 75 75 74 74 73 74 74 74
70 69 59 51 43 42 45 55 57 65 68 67 63 64 61 62 66 67 67 70 73 73 74 75 77 78 78 78 77 77 77 76 77 77 77 78 78 77 77 76 75 74 74 73 73 73 73 73 73
65 62 56 48 45 50 51 54 59 63 69 69 66 60 64 67 67 71 70 71 70 71 71 74 77 77 78 77 77 77 77 76 76 77 77 77 76 77 77 76 74 73 73 73 72 72 72 72 72
61 54 46 43 46 50 53 59 59 61 63 64 64 61 61 70 69 69 69 71 69 69 71 73 77 77 77 77 77 77 76 76 76 76 76 76 76 76 77 75 74 73 73 72 72 73 73 73 73
54 52 41 41 46 52 55 60 58 59 62 64 63 60 62 69 68 69 70 68 71 70 71 73 75 76 77 77 77 76 76 76 76 76 76 76 76 76 76 75 74 73 73 73 73 73 73 73 74
51 46 42 40 45 50 56 62 57 60 58 63 67 59 61 66 71 71 69 68 70 70 71 71 73 74 74 75 76 76 76 75 76 76 75 75 74 75 75 74 74 73 73 73 73 73 73 73 73
54 49 41 43 46 49 58 60 63 60 62 65 65 59 57 67 71 70 67 67 68 69 71 71 72 72 72 72 74 74 74 74 74 74 73 71 71 72 74 73 72 73 73 73 73 73 73 73 73
56 44 42 47 47 52 57 57 63 65 60 63 63 63 66 68 70 68 64 64 65 68 68 70 70 70 70 70 71 72 72 72 72 71 70 68 64 64 66 68 69 71 72 73 73 73 73 71 70
50 45 47 53 53 53 59 59 60 61 60 59 60 64 66 66 67 67 65 64 63 65 66 70 69 69 69 73 69 68 69 67 67 66 65 64 63 62 66 65 68 71 71 71 72 72 71 69 63
50 48 54 55 58 60 56 57 60 58 56 62 62 63 66 65 63 66 66 66 65 66 65 68 68 69 68 70 68 67 66 65 65 65 64 63 64 61 61 60 61 62 63 62 63 62 62 61 61
45 52 55 57 59 58 55 58 57 58 60 64 65 65 63 65 65 66 66 67 65 65 68 69 67 67 67 68 68 67 66 65 64 64 64 62 61 60 59 59 60 59 60 60 60 60 64 66 67
45 49 55 57 57 57 59 56 55 57 63 65 66 65 65 64 65 66 67 67 67 65 67 69 68 66 66 66 67 66 66 65 64 64 65 63 61 60 59 59 60 60 61 65 66 66 65 65 65
49 50 51 54 55 56 54 55 55 56 62 62 63 64 65 65 64 64 65 67 66 67 67 69 69 69 67 68 65 66 65 65 66 68 68 68 66 65 63 60 60 61 66 65 64 63 61 59 55
50 44 48 50 52 52 56 52 53 59 61 59 61 61 64 65 64 64 66 66 67 66 65 66 69 69 67 68 66 65 68 70 69 69 70 69 67 65 61 63 61 61 63 62 61 59 53 52 53
43 40 36 48 51 53 55 45 54 61 60 58 59 58 60 62 64 64 65 64 64 63 64 64 71 68 67 67 65 68 71 69 67 67 67 67 67 65 63 61 60 59 56 53 51 50 50 49 48
37 33 33 41 52 51 50 46 55 60 57 55 56 57 59 60 62 62 62 61 63 63 63 63 65 65 64 65 65 66 68 66 65 65 64 64 63 62 58 55 52 51 50 49 50 49 47 46 47
31 37 36 36 45 47 47 47 52 56 55 54 55 56 57 58 61 62 61 60 61 61 61 62 61 61 63 63 63 63 64 63 63 61 61 60 59 55 53 51 50 49 48 47 47 46 46 44 43
38 35 33 38 46 42 41 43 48 52 54 56 53 55 56 56 58 59 59 59 58 58 59 59 59 59 63 61 60 58 58 59 58 59 59 57 54 52 50 48 48 47 46 45 46 45 43 43 43
37 35 34 40 46 43 42 42 48 51 52 54 57 57 57 54 55 57 57 56 57 57 57 57 58 57 59 59 56 56 56 57 55 54 55 52 51 51 51 47 46 46 45 44 43 42 41 41 41
36 33 36 36 42 44 40 40 45 52 55 56 59 61 61 59 55 55 54 55 55 55 55 56 56 57 57 58 58 56 57 56 55 53 48 49 50 49 48 47 46 45 43 42 41 41 40 38 40
33 41 40 38 35 27 39 28 40 45 50 53 56 58 59 55 57 57 53 53 53 54 54 55 57 57 58 59 58 58 55 51 47 46 46 47 48 48 48 47 45 44 42 41 42 43 39 39 37
37 45 41 39 34 31 35 28 34 46 46 51 50 56 55 55 57 55 54 55 53 52 52 54 55 56 54 55 56 54 50 49 46 46 45 45 45 46 47 46 44 43 41 40 40 39 39 38 37
45 41 40 37 36 26 34 31 33 40 46 48 52 54 55 57 56 55 52 52 50 50 51 53 54 51 52 53 51 52 49 47 46 43 43 43 43 44 44 45 43 41 41 40 39 39 39 37 37
42 34 26 24 26 24 36 32 37 44 47 50 52 52 55 53 53 50 51 51 50 50 50 52 53 49 50 50 49 49 48 47 45 43 43 43 43 42 42 42 41 40 40 40 39 38 37 37 35
36 34 27 20 22 25 37 29 37 49 54 57 58 54 52 52 52 52 52 51 51 50 50 51 50 48 48 48 46 45 46 45 44 43 43 42 42 42 41 41 40 40 40 39 38 37 36 37 35
33 30 38 30 31 27 30 35 43 50 51 49 51 52 50 50 52 52 51 51 50 49 49 49 48 47 47 46 46 43 44 44 43 42 42 41 42 45 41 40 39 39 39 39 37 36 36 35 34
38 40 29 30 20 20 26 30 37 42 50 55 47 47 48 50 51 50 50 49 49 48 47 47 49 47 45 45 45 44 42 42 42 42 41 41 41 41 40 39 38 38 38 38 36 35 36 35 34
35 32 35 33 28 21 19 30 40 48 51 49 45 47 48 49 48 49 49 49 48 47 47 46 46 45 44 44 43 43 41 41 41 41 40 40 40 39 39 38 38 37 37 37 35 35 36 34 33
41 36 36 28 22 29 28 31 46 44 47 48 47 48 48 49 49 48 48 47 47 46 45 45 45 44 43 43 43 41 41 41 40 40 40 40 39 39 38 37 37 37 36 36 34 33 34 33 32

GFSSGP_sfc_temp_036.txt.gz
Temp
72 68 64 62 53 47 42 48 50 57 57 61 62 62 63 61 64 57 64 67 69 71 73 76 79 78 78 78 78 77 77 77 77 77 77 77 77 77 76 77 77 76 75 75 75 75 75 75 75
68 69 63 54 46 40 44 49 53 58 64 65 63 61 59 59 64 66 65 69 71 73 74 73 78 78 78 78 77 77 77 77 77 77 77 77 77 77 77 76 76 75 75 74 74 74 74 74 74
68 67 58 50 42 41 44 52 54 61 64 65 61 63 62 60 65 67 68 69 71 74 73 74 77 78 78 78 77 77 77 76 77 77 77 78 78 77 76 76 75 74 73 73 73 73 73 73 73
63 61 55 47 44 48 50 51 55 60 65 64 63 60 63 65 64 67 70 71 72 71 71 74 77 78 77 77 77 77 77 76 76 77 77 77 76 77 77 75 74 73 73 72 72 72 72 72 72
59 53 45 41 45 48 51 56 57 57 59 60 62 61 61 67 67 67 68 70 69 69 70 73 76 77 77 77 77 77 76 76 76 76 77 77 76 77 77 75 74 73 72 72 72 73 73 73 73
53 51 40 40 44 49 53 57 56 56 59 62 59 59 62 67 68 67 68 68 70 69 70 72 75 76 77 77 77 76 76 76 76 76 76 76 76 76 77 75 74 73 73 73 73 73 73 73 73
50 45 40 39 42 47 54 60 55 57 57 60 60 56 61 65 69 69 67 67 69 69 70 70 72 73 75 75 76 76 76 75 76 76 76 75 74 75 76 74 74 73 73 73 73 73 73 73 73
51 48 40 42 46 46 56 58 60 58 59 63 63 57 56 64 69 68 67 67 66 68 69 69 71 71 71 72 74 74 74 74 74 74 73 72 71 72 74 72 72 73 73 73 73 73 73 73 73
53 44 40 43 45 49 55 54 61 62 58 61 61 61 64 66 67 65 63 65 65 67 68 69 71 70 70 70 71 72 73 72 72 71 70 68 64 64 65 67 69 71 72 73 73 73 73 71 69
50 44 45 51 51 51 56 55 58 59 58 58 60 63 63 64 64 65 63 63 63 65 66 70 72 72 69 72 69 68 69 67 67 66 64 63 62 62 65 64 67 70 70 70 71 71 69 66 62
48 46 51 53 56 56 54 55 57 54 54 60 58 62 64 61 61 64 63 63 63 63 66 69 71 71 70 72 67 66 66 65 65 64 63 63 63 61 60 59 60 60 63 61 62 61 61 60 60
43 49 52 54 57 56 52 56 53 55 58 62 60 64 62 62 64 64 64 65 64 64 65 67 68 69 70 68 68 67 66 65 64 64 63 61 60 60 59 58 58 59 59 59 59 61 65 65 65
43 47 52 54 54 54 56 53 53 54 60 63 64 63 63 63 63 64 65 64 63 64 65 66 67 67 68 67 67 66 66 65 64 63 64 63 62 61 58 58 59 59 60 65 64 64 63 62 61
46 48 49 52 52 53 52 53 52 55 59 58 60 61 62 61 64 61 63 64 63 64 65 66 66 67 66 68 66 66 66 65 66 67 67 67 66 65 63 62 62 63 63 63 62 61 58 52 52
48 42 46 47 50 50 53 48 49 58 59 58 59 59 61 62 62 63 65 64 65 66 65 64 66 67 65 67 66 65 65 68 68 68 69 68 66 64 63 62 60 58 59 60 57 53 51 49 50
43 42 34 45 48 51 52 42 53 58 58 56 56 56 58 62 64 62 63 63 63 62 62 62 69 66 66 67 64 64 67 69 67 67 67 67 66 65 62 60 57 55 52 51 49 47 48 46 45
42 30 33 40 48 48 47 42 50 55 54 52 53 54 57 59 61 61 62 62 61 61 61 61 63 63 63 63 64 65 66 66 65 65 64 63 62 61 59 55 51 50 48 47 48 46 45 43 45
29 30 33 34 42 43 42 42 49 54 53 53 52 52 53 56 60 62 62 61 60 60 59 59 59 61 62 62 62 61 61 62 62 61 61 60 59 57 54 50 48 48 46 45 45 45 43 42 41
35 32 32 37 44 39 39 41 46 50 48 48 52 54 53 55 60 59 60 59 58 57 58 57 57 58 62 60 59 59 56 56 58 58 58 57 55 52 50 47 47 46 45 43 45 43 41 41 41
36 35 36 41 43 41 40 40 46 49 50 51 52 54 54 56 54 57 57 55 56 57 57 56 56 57 60 61 56 55 55 55 55 54 53 54 54 50 49 46 45 45 44 43 41 40 40 39 39
34 33 35 35 39 42 38 37 44 50 53 53 55 56 58 57 57 54 54 54 54 55 55 55 55 55 55 56 56 55 55 55 54 53 52 51 49 48 47 45 44 43 42 40 39 39 39 37 38
32 40 38 36 32 27 36 27 38 42 46 49 52 53 55 55 55 55 54 52 53 54 54 54 55 54 55 57 57 56 55 53 53 51 50 48 46 46 46 45 44 42 41 40 41 41 37 38 35
35 42 38 38 33 30 32 27 32 40 42 46 45 48 54 56 57 55 54 57 53 53 52 52 53 54 53 55 57 54 50 49 50 48 47 44 44 45 45 44 42 41 40 39 39 38 37 37 36
43 39 38 37 34 26 32 29 34 39 43 46 48 49 54 55 53 56 54 53 51 50 50 52 53 50 51 53 54 54 51 49 47 43 43 42 42 42 42 43 41 40 39 39 38 37 37 36 35
38 33 24 22 24 23 34 30 35 42 44 46 48 49 50 52 50 49 49 50 49 49 50 51 52 49 54 54 53 53 50 48 45 43 42 42 41 40 40 40 40 39 39 39 38 37 36 35 34
34 34 23 15 19 23 34 27 36 46 52 54 55 53 51 49 48 50 51 52 51 50 51 52 51 48 51 50 46 46 47 45 44 43 42 41 40 40 40 39 39 39 39 38 37 36 35 35 33
34 30 38 28 28 24 31 32 41 47 48 49 47 50 48 48 47 49 50 51 50 50 50 50 49 47 47 46 46 44 44 43 42 41 41 40 40 43 39 39 38 38 38 37 36 35 34 33 33
38 42 29 29 20 18 24 26 31 41 44 49 52 51 48 46 47 48 49 48 49 49 48 48 49 47 45 44 45 43 42 42 41 41 39 39 39 39 39 38 38 37 37 36 35 34 34 33 33
34 31 33 34 30 18 17 28 38 42 42 45 46 50 46 47 48 48 47 47 46 47 47 46 46 46 44 44 43 42 41 40 40 40 39 38 38 38 38 37 37 36 35 35 33 33 34 33 32
42 35 35 27 23 26 23 30 45 42 45 47 46 45 44 46 46 46 45 45 46 45 45 45 45 44 43 43 42 41 40 40 39 38 38 38 37 37 37 37 36 35 35 34 32 32 33 32 31

GFSSGP_sfc_temp_039.txt.gz
Temp
75 73 71 69 62 58 53 57 62 64 66 71 72 71 71 72 70 67 74 75 75 78 79 82 79 79 78 78 78 77 77 77 77 77 77 77 77 77 77 77 77 76 75 75 75 75 75 75 76
72 74 69 62 56 51 54 59 60 65 70 71 70 70 71 71 74 74 76 75 76 79 80 81 78 78 78 78 77 77 77 77 77 77 77 77 77 77 77 77 76 75 75 74 74 74 74 74 74
74 71 66 59 52 50 53 59 64 66 68 69 71 72 72 72 74 76 77 75 77 78 79 80 77 78 78 78 77 77 77 77 77 77 77 78 78 77 77 76 75 74 74 73 73 73 73 73 73
69 68 63 56 51 54 57 62 64 65 71 72 72 70 73 77 76 77 75 76 77 77 79 78 77 78 78 77 77 77 77 77 77 77 77 77 77 78 76 75 74 73 73 73 73 73 73 73 73
65 61 54 50 52 56 59 63 65 64 65 69 70 70 71 75 74 74 74 75 76 74 78 79 77 77 77 77 77 77 77 76 77 77 77 77 76 76 77 75 74 73 73 73 73 73 73 73 73
60 59 49 48 52 56 60 64 65 65 67 69 69 68 72 75 75 72 74 74 75 74 76 78 76 76 77 77 77 76 76 76 76 76 77 77 76 76 77 75 74 73 73 73 73 73 73 73 74
56 53 48 49 49 54 59 66 64 65 65 68 72 68 73 74 76 74 74 74 74 75 76 77 79 77 75 75 76 76 76 76 76 76 76 75 74 75 76 74 74 73 73 73 73 73 73 74 74
57 56 47 49 51 53 63 64 68 66 67 72 73 68 70 75 74 73 73 73 73 74 75 76 77 78 78 79 74 74 74 74 74 74 73 72 71 72 74 73 73 73 73 73 73 73 73 73 73
59 50 46 48 49 55 62 61 67 69 67 68 72 72 72 70 71 71 70 71 71 72 73 75 75 76 77 77 76 73 73 72 72 72 70 70 74 73 73 69 69 71 72 72 72 73 72 71 69
54 48 49 54 55 57 60 60 62 65 63 65 69 73 72 70 70 71 71 71 70 71 72 74 74 75 75 75 76 76 76 77 76 76 75 75 73 74 72 68 67 69 70 69 70 70 69 69 74
52 48 53 56 59 60 58 58 63 61 58 64 66 69 70 71 70 70 71 73 74 73 73 73 74 74 74 74 74 74 74 74 74 74 74 73 72 72 73 73 73 72 67 73 72 72 73 71 72
48 52 53 56 59 59 57 59 58 59 63 67 68 67 68 70 71 71 71 73 72 72 74 73 75 73 73 74 73 73 73 72 72 73 72 72 72 70 72 71 71 71 72 72 72 71 67 67 66
48 50 54 56 55 55 57 55 57 58 63 66 67 67 67 68 69 71 72 72 73 72 73 73 73 72 73 71 72 71 73 72 73 72 72 72 70 69 71 70 71 70 70 70 67 65 65 64 66
50 50 51 53 54 55 54 55 55 59 63 63 63 65 67 67 70 70 70 72 72 74 73 74 73 72 72 71 71 71 74 73 72 70 69 69 69 68 67 65 64 64 64 64 66 64 64 63 64
51 45 48 50 52 51 55 49 49 61 62 61 62 64 66 68 70 69 72 72 74 74 74 72 73 73 71 72 72 73 73 73 70 69 70 69 68 67 64 63 61 61 65 63 64 63 62 62 62
46 46 39 48 50 52 54 44 55 61 59 59 61 64 64 68 71 72 71 70 72 70 70 71 72 71 71 73 73 72 73 73 70 70 69 68 67 65 63 61 61 59 62 62 60 59 59 59 58
41 34 36 42 51 51 49 45 54 57 56 56 57 60 61 64 68 70 69 70 71 71 70 68 69 70 70 71 71 72 72 72 70 67 66 66 66 65 60 58 59 60 59 58 59 56 57 55 57
32 32 35 37 46 46 43 44 50 55 55 56 58 58 59 60 63 68 69 69 69 68 68 68 67 68 69 69 68 68 67 64 64 61 63 62 60 60 58 56 58 58 57 57 56 55 55 54 53
38 35 35 42 46 43 42 43 48 52 53 52 55 57 59 59 65 67 67 68 67 66 65 65 65 66 66 65 65 64 62 59 60 59 60 59 58 58 56 56 55 55 54 54 55 55 53 52 52
38 35 36 41 45 42 41 40 47 50 52 54 55 56 58 61 61 64 65 65 65 66 64 63 64 64 66 67 64 63 58 56 56 57 57 58 56 55 56 55 54 54 53 53 53 53 52 51 50
35 34 36 35 41 43 40 38 46 52 53 54 56 58 59 60 61 64 63 63 62 62 62 62 62 63 63 60 59 57 55 55 54 54 52 53 55 54 54 53 53 52 53 50 50 50 49 49 49
33 41 40 37 34 29 40 29 43 49 50 54 55 56 56 58 61 64 63 62 61 62 61 61 60 60 60 61 60 59 57 55 56 52 51 51 52 52 53 52 52 52 51 50 50 50 49 49 46
37 43 39 38 34 32 35 29 40 44 43 48 52 54 55 58 60 61 62 63 63 60 59 59 59 59 60 61 62 61 57 53 52 50 49 48 49 52 51 51 50 50 49 49 49 48 48 48 47
44 38 39 37 34 26 35 31 36 43 47 51 54 56 54 56 59 61 63 62 59 58 57 56 57 57 58 59 59 57 54 52 49 48 47 46 50 49 49 49 49 49 48 48 47 47 46 46 45
40 34 25 22 23 24 36 31 37 46 48 50 51 52 54 56 56 56 55 56 55 55 55 56 56 54 57 58 57 57 55 53 50 49 48 49 48 48 47 49 49 48 47 47 47 46 45 44 44
36 35 26 16 19 25 34 29 38 47 52 54 55 55 57 54 55 54 56 56 56 55 55 56 55 54 56 57 56 54 53 51 49 48 50 50 49 47 47 47 48 47 47 46 46 45 45 44 44
35 30 39 27 31 25 32 37 45 51 50 50 52 54 53 53 55 53 53 55 55 54 55 55 54 53 54 53 51 50 50 49 49 49 50 48 48 47 47 47 46 46 46 45 44 44 44 44 44
37 41 28 29 21 20 28 30 34 41 46 49 48 51 52 54 52 52 53 53 54 55 54 54 54 52 51 51 50 49 49 49 48 49 47 47 47 47 46 46 46 45 45 44 44 43 43 43 43
34 31 33 32 30 24 24 31 43 45 46 45 47 48 48 50 52 51 51 52 51 51 52 51 50 49 48 49 49 48 47 47 48 47 46 46 46 46 45 45 45 44 43 43 43 42 42 41 41
40 37 35 27 26 29 29 31 51 46 45 47 48 47 46 48 48 48 47 47 49 49 50 51 50 48 47 48 48 46 46 46 46 45 45 46 45 45 44 44 43 43 42 42 41 41 41 40 39

GFSSGP_sfc_temp_042.txt.gz
Temp
83 87 88 84 70 69 64 66 74 71 73 80 81 79 79 81 79 74 84 86 87 88 89 85 79 79 79 78 78 77 77 77 77 77 77 77 77 77 77 77 77 76 76 75 75 75 74 75 76
85 85 85 80 65 61 65 72 69 74 78 81 81 80 78 79 84 82 84 85 88 89 89 88 78 78 78 78 77 77 77 77 77 77 77 77 77 77 77 77 76 75 75 74 74 74 74 74 74
82 83 77 71 66 61 64 71 75 75 78 78 79 82 82 80 82 87 87 86 88 88 90 87 78 78 78 78 77 77 77 77 77 77 77 77 78 77 77 76 75 74 74 74 74 74 74 74 74
82 81 78 65 62 68 69 73 75 74 79 80 80 77 83 86 85 87 87 87 88 89 90 79 77 78 78 77 77 77 77 77 77 77 78 78 78 77 76 75 74 73 73 73 73 73 73 73 73
81 77 66 62 65 71 73 75 76 73 75 78 79 77 80 85 86 86 87 86 87 88 89 84 77 78 77 77 77 77 77 77 77 77 77 77 76 78 76 75 74 73 73 73 73 73 73 73 73
71 74 61 58 65 71 73 77 75 75 77 78 78 79 82 86 85 85 87 87 88 86 86 86 77 76 77 77 77 77 76 76 77 77 77 77 77 76 76 75 74 73 73 73 73 73 73 73 73
68 66 62 63 65 67 71 77 73 75 76 77 82 76 83 84 86 85 86 87 86 86 86 86 84 80 75 76 76 76 76 76 76 76 76 76 74 75 76 74 74 73 73 73 73 73 73 73 73
72 68 62 63 62 64 72 73 77 75 76 81 82 76 78 82 84 85 85 86 86 85 86 86 85 84 83 82 74 74 75 74 75 74 74 72 71 73 74 73 73 73 73 73 73 73 73 73 72
70 61 59 61 62 65 71 69 77 78 76 77 81 80 80 81 83 82 82 83 84 83 85 86 85 85 85 83 78 74 73 73 72 73 70 71 82 80 78 70 71 72 72 72 72 72 71 70 70
65 59 61 68 69 66 69 69 72 71 73 75 78 81 81 80 81 81 81 82 81 81 83 85 85 85 83 83 82 81 81 80 81 81 80 82 82 82 80 71 69 70 70 70 70 70 69 70 83
63 58 66 63 67 66 66 66 71 69 68 74 75 78 78 79 79 79 83 86 85 85 85 84 85 81 83 83 83 82 82 82 82 82 82 82 80 80 81 81 80 80 69 80 78 79 81 78 79
56 62 64 64 66 64 63 68 66 69 72 77 76 77 77 79 80 81 81 84 85 85 85 84 86 82 78 79 81 83 81 81 81 81 81 81 80 79 81 82 80 80 82 80 80 78 73 73 75
57 61 62 64 62 63 65 63 65 67 74 77 77 76 76 79 80 83 83 85 85 84 85 85 85 84 80 77 77 80 81 81 82 81 81 82 80 80 80 80 81 80 79 77 75 71 70 76 76
58 57 59 61 61 63 59 62 64 67 73 73 74 74 76 78 81 82 82 82 85 85 86 87 85 85 83 76 76 75 82 83 82 81 81 81 79 75 76 73 70 68 69 69 73 76 75 75 74
58 52 58 60 61 59 62 56 58 68 71 70 72 75 75 78 81 81 82 83 85 87 88 86 85 85 83 80 75 79 83 83 81 81 79 74 75 74 70 69 68 70 72 74 74 73 74 73 72
52 53 48 57 57 60 59 51 64 69 69 67 70 73 74 76 79 83 84 84 85 85 84 85 82 83 83 82 81 83 83 83 82 80 77 76 73 71 68 65 65 70 72 72 71 71 71 69 68
50 47 47 50 57 56 56 53 62 65 65 65 69 71 72 74 77 80 83 84 84 86 86 83 82 82 82 82 83 83 83 83 81 80 77 71 74 72 67 69 65 71 69 68 68 66 67 65 65
46 44 47 47 54 54 52 53 60 64 64 64 67 70 70 71 73 77 80 82 84 83 84 84 82 81 80 81 82 81 82 81 80 78 74 70 73 69 63 67 68 69 67 66 65 64 64 63 63
47 45 44 50 54 51 51 52 56 61 62 62 64 66 68 71 75 77 78 80 80 80 80 81 80 79 79 78 77 77 74 71 69 69 68 69 68 66 62 67 67 67 65 64 65 63 61 60 61
46 44 45 49 52 50 50 49 56 59 60 62 64 66 68 70 73 76 77 79 79 79 79 79 78 78 77 78 77 77 71 64 60 62 62 65 64 61 59 65 65 64 63 62 62 62 60 59 59
44 43 44 44 49 51 48 47 56 61 63 64 65 66 68 69 70 73 76 77 77 77 78 77 77 76 76 76 75 69 64 60 57 58 59 59 62 63 62 64 64 63 62 59 59 59 58 57 57
40 48 45 43 41 37 47 38 52 58 60 62 66 66 67 68 70 71 73 76 77 77 77 77 75 74 75 72 68 66 66 61 58 59 55 54 57 62 62 63 62 61 60 59 58 59 58 58 55
41 48 45 44 39 37 41 32 48 57 53 58 63 66 69 70 70 70 71 72 77 76 75 73 73 72 71 70 71 70 67 65 59 55 53 52 55 57 58 61 60 59 59 58 57 56 56 58 56
48 44 44 43 37 29 42 38 45 55 58 60 64 65 68 69 69 70 72 72 73 75 71 70 70 69 70 70 70 70 66 59 55 54 49 49 51 55 59 59 59 58 57 56 55 55 54 55 54
43 37 31 28 26 30 45 41 45 57 58 59 60 64 67 69 69 68 69 69 70 71 68 68 68 67 68 69 70 68 63 58 56 52 50 51 55 53 57 58 58 57 55 55 55 53 52 52 52
38 39 33 25 30 37 43 35 48 59 59 61 63 65 65 67 69 69 69 68 68 68 67 67 67 65 67 67 67 66 62 59 54 53 51 52 54 58 57 57 57 55 55 55 54 53 53 51 52
40 33 44 33 38 31 40 47 56 60 59 61 61 61 62 64 66 67 69 68 69 68 67 67 66 65 66 65 65 63 58 54 54 51 53 54 55 56 56 56 55 55 54 53 52 53 53 52 51
44 47 31 32 24 26 38 41 43 51 54 57 58 59 61 63 64 66 68 67 68 68 67 67 66 64 64 63 63 59 54 53 52 54 53 56 57 56 55 55 54 53 53 52 52 52 51 50 51
36 33 36 36 34 29 28 39 55 52 55 57 56 58 59 59 60 63 66 67 66 66 65 64 64 62 60 60 58 56 52 52 53 55 57 56 56 55 54 54 53 52 52 51 52 51 50 48 48
48 42 39 29 29 31 31 35 56 54 57 55 56 58 60 58 57 59 62 63 62 61 62 61 60 60 58 56 56 52 52 53 55 56 55 56 55 55 54 53 52 51 50 50 50 49 48 47 46

GFSSGP_sfc_temp_045.txt.gz
Temp
82 92 93 86 70 71 66 71 79 75 76 85 85 82 82 84 80 73 89 90 93 91 88 84 79 79 79 78 78 77 77 77 78 78 78 77 77 77 78 77 77 76 76 76 75 75 75 74 75
86 89 87 80 65 62 67 78 72 78 82 84 85 84 81 81 89 84 86 89 93 92 89 87 78 78 78 78 78 77 77 77 77 77 77 77 77 78 77 77 76 75 75 75 75 74 73 74 75
84 88 77 71 66 62 67 76 78 80 83 82 82 87 86 83 88 90 92 91 93 91 91 85 78 78 78 77 77 77 77 77 77 77 77 77 78 77 77 76 75 74 74 74 74 74 74 74 74
83 82 80 65 63 71 74 78 81 78 82 84 84 80 88 91 90 92 92 92 93 92 93 78 77 78 77 77 77 77 77 77 77 77 77 78 77 77 76 75 74 74 74 74 74 74 74 74 74
83 79 66 64 65 73 80 81 81 77 79 81 83 80 83 89 91 92 91 92 92 92 90 83 77 77 77 77 77 77 77 77 77 77 78 78 78 77 76 74 74 74 74 74 74 74 74 74 74
73 76 62 60 67 75 80 81 79 78 81 82 80 81 84 90 90 90 91 91 93 91 90 85 76 76 77 77 77 77 76 77 77 77 77 77 77 76 76 74 74 74 74 74 73 74 74 74 74
69 68 63 66 68 72 77 82 77 77 79 80 86 78 86 88 90 91 91 92 92 91 90 86 83 79 75 75 76 76 76 76 76 76 77 76 74 75 76 74 74 74 74 73 73 73 73 73 73
74 70 64 66 66 68 80 79 80 79 78 87 86 77 80 86 89 90 90 90 90 90 90 89 86 83 82 80 74 74 75 74 75 75 74 72 72 74 74 73 73 74 73 73 73 73 73 73 72
75 63 60 64 67 70 78 73 80 84 79 82 85 85 85 86 88 87 86 87 87 88 89 90 88 84 84 82 78 74 73 73 73 73 71 71 81 79 75 70 71 72 72 72 72 72 71 71 71
66 60 63 73 75 73 75 74 76 74 75 77 81 86 86 85 85 84 84 84 85 85 87 89 89 87 84 81 78 79 79 79 79 80 77 80 83 82 78 72 70 72 72 71 72 71 71 70 79
66 60 70 72 71 72 71 72 76 72 69 78 78 82 83 83 84 84 86 88 87 87 87 88 89 89 87 82 78 82 80 81 80 82 81 83 82 79 78 77 76 76 69 77 74 74 76 78 78
60 67 70 71 70 68 66 72 70 73 73 82 83 83 81 81 83 84 84 87 89 89 88 88 89 88 88 86 83 81 81 80 79 83 83 81 80 79 80 80 79 79 79 79 76 76 76 76 77
61 64 69 69 68 68 68 65 67 70 77 80 81 80 79 80 83 86 87 88 89 88 88 88 88 88 85 84 85 86 79 80 81 82 82 82 81 80 81 80 80 80 78 77 76 75 75 76 77
64 64 65 67 66 67 62 64 66 69 75 76 77 77 79 80 82 84 85 86 87 89 89 89 88 88 87 83 78 83 85 79 79 81 82 83 82 81 80 79 76 74 74 73 76 76 75 74 75
62 56 61 63 64 63 66 58 60 70 73 72 75 77 78 79 82 82 85 86 87 89 90 89 89 89 87 85 78 77 84 81 78 79 82 82 81 78 78 75 72 74 76 76 75 74 74 73 72
55 57 52 63 63 65 62 52 68 74 73 71 73 75 77 79 81 84 85 87 88 88 88 90 89 88 87 86 82 76 84 82 76 79 83 81 79 78 75 72 71 74 75 74 72 71 70 69 68
54 49 53 58 64 62 59 56 68 71 70 70 72 74 76 77 80 83 86 87 88 88 88 87 86 85 86 85 85 83 85 83 78 80 82 80 78 75 73 72 70 73 72 71 70 68 67 65 66
50 49 53 53 60 59 56 57 64 68 68 67 70 72 74 75 77 82 84 86 88 88 88 89 86 84 84 86 85 85 85 80 78 78 79 79 76 74 71 70 71 71 69 68 67 66 65 64 63
51 51 50 56 61 56 54 56 60 66 67 66 68 69 71 73 79 81 82 83 84 86 86 85 86 85 84 83 81 82 80 73 68 70 76 76 75 72 70 69 69 69 68 67 67 64 63 60 61
51 48 49 55 58 54 53 53 60 63 64 67 67 68 69 72 75 78 80 81 81 82 83 83 84 84 83 83 82 82 77 65 64 67 73 73 70 68 67 66 67 67 65 64 64 63 60 60 59
48 47 48 49 54 55 52 50 59 66 67 68 69 70 72 72 73 76 78 80 79 80 82 82 83 83 82 82 81 80 67 61 58 59 60 61 63 62 62 62 64 64 64 61 61 60 59 57 58
43 53 50 48 45 41 51 38 53 61 64 66 68 70 71 71 73 75 76 78 79 80 82 82 82 82 81 80 78 72 64 59 57 56 57 58 63 62 63 64 64 63 62 60 59 60 59 58 54
45 50 48 46 41 38 43 37 49 61 60 64 68 70 71 73 74 74 75 75 78 79 79 79 81 80 79 78 76 70 67 67 59 54 55 54 57 61 62 60 60 61 60 59 58 58 57 57 55
50 46 44 44 40 29 43 43 47 57 62 64 70 69 70 72 73 74 75 75 76 76 77 77 77 77 77 75 72 70 70 62 55 51 50 51 54 58 60 59 60 60 58 57 57 56 55 55 53
45 39 32 29 27 31 49 46 48 60 63 64 65 68 70 71 72 72 72 72 73 73 74 75 75 74 74 72 73 72 70 61 56 52 49 50 52 53 54 59 59 58 57 57 56 54 52 52 51
41 40 35 27 33 39 49 38 49 64 64 65 67 67 69 69 71 70 72 72 72 72 73 73 73 72 72 72 72 73 66 63 57 56 54 53 54 54 58 60 59 57 57 56 55 53 53 51 51
40 33 45 34 39 33 41 51 60 64 64 64 65 66 65 67 68 68 69 72 73 72 72 72 71 71 71 71 72 67 65 60 57 56 57 55 55 57 56 57 57 56 56 56 53 53 53 52 52
47 50 32 32 24 28 42 46 48 56 59 62 61 62 64 66 66 66 68 71 74 73 73 72 72 70 70 70 69 65 61 58 55 56 54 54 55 56 56 56 56 55 55 54 54 52 52 51 51
40 37 39 42 37 32 32 42 60 55 58 58 60 64 63 64 64 64 67 70 72 73 71 71 70 68 67 67 64 61 57 55 54 53 54 53 55 55 56 56 55 54 53 53 53 52 51 49 49
49 42 41 30 33 35 34 37 57 59 60 59 60 61 63 65 63 62 65 68 69 69 68 68 67 66 65 63 60 56 55 54 54 54 54 55 55 57 56 56 55 53 52 52 51 50 50 48 47

GFSSGP_sfc_temp_048.txt.gz
Temp
78 84 84 73 57 58 55 62 69 66 67 75 77 73 71 74 71 59 78 84 84 80 80 79 79 78 79 78 78 78 77 78 78 78 78 78 77 78 77 77 77 76 76 76 76 76 75 75 76
77 82 76 66 54 50 56 69 67 68 73 76 77 75 73 71 79 76 76 84 86 83 80 79 78 78 78 78 77 77 77 77 77 77 77 77 77 78 77 77 76 76 75 75 74 74 74 74 75
77 81 65 60 55 51 55 69 70 75 77 73 72 78 76 73 80 78 81 86 86 82 83 79 77 78 78 77 77 77 77 77 77 77 77 77 78 77 77 75 75 74 74 74 75 75 75 75 75
75 72 69 56 55 62 64 71 70 73 73 74 75 71 78 81 78 82 83 86 85 83 79 76 77 77 77 77 77 77 77 77 77 77 77 77 77 77 76 74 74 74 74 74 74 74 74 74 74
74 67 56 55 57 65 71 75 71 69 70 73 74 70 71 78 83 83 83 86 84 79 78 77 77 77 77 77 77 77 77 77 77 77 77 77 77 77 75 74 74 74 74 74 74 74 74 74 74
62 64 52 51 58 67 72 76 72 69 72 74 69 71 69 80 81 81 83 83 85 77 79 77 76 76 76 77 76 76 77 77 77 77 77 77 77 76 75 74 74 74 74 74 74 74 74 74 74
61 58 54 56 59 64 70 77 70 70 70 71 74 65 72 77 81 83 82 84 84 82 79 77 76 75 75 75 75 76 76 76 76 76 76 75 74 75 75 74 74 74 74 73 73 73 73 73 73
65 61 55 58 58 60 72 74 75 71 69 78 76 65 63 74 81 82 82 81 81 81 80 77 76 75 74 73 74 74 74 74 75 74 73 72 72 73 74 72 73 73 73 73 73 73 73 73 72
70 54 51 56 59 63 73 67 73 74 70 75 72 72 75 79 81 78 77 78 78 81 80 80 77 77 76 74 73 73 73 72 72 72 70 69 70 71 71 70 71 72 72 72 73 72 72 71 71
59 52 54 65 67 65 70 68 69 68 68 68 71 77 78 77 75 75 74 74 75 76 78 81 79 78 79 78 72 72 72 70 70 69 67 69 72 73 74 68 70 71 71 71 72 72 72 70 71
59 52 62 66 70 68 66 66 69 65 62 68 69 73 76 76 75 76 76 76 76 77 78 80 81 80 79 78 74 76 74 74 73 72 70 70 71 69 69 65 66 65 66 67 69 68 69 68 68
55 63 64 65 69 66 62 67 64 66 65 73 73 74 73 73 74 75 75 77 78 78 79 79 81 81 78 76 74 75 75 76 75 75 73 70 68 67 67 68 67 68 68 70 70 69 67 67 69
58 61 65 67 66 64 66 61 61 63 69 73 74 75 71 71 73 75 77 79 77 78 80 79 79 80 81 77 76 77 76 76 76 75 73 71 69 68 69 68 69 68 69 67 67 66 65 65 66
62 62 62 64 64 64 61 60 61 63 69 68 70 70 71 71 73 73 75 75 76 77 78 80 80 79 78 76 76 78 77 77 77 76 72 73 71 70 69 68 65 65 64 65 65 64 64 62 62
60 52 57 58 60 59 61 54 56 64 67 66 67 69 71 72 72 73 74 74 77 77 79 79 80 79 79 77 73 71 77 75 76 75 76 73 72 70 68 64 63 63 64 65 64 64 62 59 61
52 52 43 57 60 61 59 46 60 65 64 63 65 68 69 71 73 76 76 76 76 77 77 79 83 81 78 78 73 73 73 75 75 75 76 73 71 70 66 64 63 66 64 63 60 59 57 56 55
48 40 45 51 60 58 55 48 60 66 61 60 63 65 68 70 72 74 76 78 78 76 77 76 76 76 76 76 75 73 75 75 76 75 73 73 71 68 64 62 62 64 62 59 60 55 55 53 53
42 42 46 47 53 54 50 50 57 62 62 59 60 62 63 66 69 73 76 75 77 77 78 77 74 74 74 74 76 73 73 73 76 75 74 73 69 67 62 61 61 61 59 58 55 54 53 52 50
50 46 44 50 57 52 50 50 54 59 60 60 61 63 64 66 70 71 72 71 72 74 73 76 74 74 75 70 73 73 72 71 70 69 72 71 67 64 61 60 60 59 57 56 57 53 52 49 49
49 44 44 50 56 50 48 48 54 57 58 60 61 62 63 65 65 68 69 69 70 71 71 72 73 74 75 76 72 73 62 61 60 64 68 67 64 61 60 59 58 57 56 55 57 53 51 49 49
45 42 43 44 49 50 46 43 49 57 59 61 63 64 64 64 65 67 67 68 67 70 69 72 71 72 74 72 70 61 59 57 55 57 57 59 57 56 57 56 58 58 56 53 54 53 51 47 47
40 49 49 46 40 32 44 28 43 51 54 57 57 58 61 64 66 66 66 65 69 68 71 69 71 72 71 71 70 63 62 57 52 52 53 56 55 57 59 57 56 58 53 51 50 52 50 48 46
43 49 45 44 37 33 36 28 38 50 50 54 56 59 60 61 62 63 64 66 67 65 65 72 69 73 70 74 72 62 58 53 53 54 53 54 55 57 58 57 54 54 51 52 49 49 48 47 45
49 44 43 40 35 26 34 34 34 44 50 53 58 57 60 60 60 61 63 64 62 63 63 64 66 67 68 71 67 62 58 53 50 50 49 50 52 54 56 57 54 53 50 49 48 47 46 45 44
46 39 24 24 23 22 44 36 39 52 56 57 57 54 58 57 58 59 59 60 61 62 61 63 65 65 66 65 63 63 56 53 50 49 49 51 52 52 54 54 53 50 50 50 48 45 44 43 42
40 38 26 20 21 28 41 31 40 55 59 57 58 58 57 57 58 57 57 59 60 61 61 61 63 64 64 64 62 61 56 52 50 50 52 50 51 52 55 53 53 53 50 48 46 44 43 43 41
40 33 40 31 32 21 32 40 50 57 55 56 56 56 56 57 58 55 58 59 61 60 61 62 62 62 63 63 62 59 56 52 50 50 53 52 53 55 54 53 52 50 49 48 46 44 44 43 42
42 46 30 27 13 17 30 35 39 46 49 54 53 53 55 56 55 56 57 58 61 61 61 62 62 61 62 62 61 58 54 53 51 54 53 53 55 54 53 50 51 50 48 47 46 45 45 43 41
38 36 36 34 28 19 21 31 46 46 50 49 51 54 55 53 55 55 55 57 60 60 60 60 61 61 61 62 58 53 51 52 53 53 53 53 54 53 53 51 51 49 47 46 45 44 44 42 41
45 38 37 24 22 27 23 30 53 50 49 50 50 55 55 56 56 54 54 55 57 59 59 59 62 63 60 57 52 50 50 51 52 52 52 53 53 54 52 52 49 48 46 45 44 43 43 41 40

GFSSGP_sfc_temp_051.txt.gz
Temp
74 74 71 66 53 49 45 53 57 63 62 63 69 69 65 67 67 58 71 76 76 75 78 78 78 79 79 78 78 78 78 78 78 78 78 78 78 78 77 77 77 76 76 77 79 78 77 77 77
70 74 67 59 47 41 45 58 59 64 67 69 72 69 67 65 72 72 71 77 78 77 78 77 78 78 78 78 78 77 78 77 77 77 78 78 78 77 77 76 76 76 76 75 75 75 75 75 76
72 73 58 53 46 43 46 58 60 68 71 70 67 69 67 67 72 72 76 79 78 76 78 77 77 78 78 77 77 77 77 77 77 77 77 77 77 77 76 75 75 75 75 75 75 75 75 75 75
66 62 59 48 47 53 56 62 61 67 69 72 69 66 70 74 75 77 80 80 77 76 75 76 77 77 77 77 77 77 77 77 77 77 77 77 77 77 75 75 74 74 74 74 75 74 74 74 74
63 57 47 44 49 55 59 64 67 65 66 67 67 64 66 73 76 78 80 80 77 74 75 76 77 77 77 77 77 77 77 77 77 77 77 77 77 76 75 74 74 74 74 74 74 74 74 74 74
55 54 42 44 49 56 62 68 65 66 65 66 65 63 65 75 75 77 79 76 76 74 76 76 75 76 76 77 76 76 76 77 77 77 77 77 76 75 74 74 74 74 74 74 74 74 74 74 74
51 47 43 44 48 54 62 69 63 66 64 64 66 60 62 68 73 77 77 75 76 76 75 74 74 75 75 75 75 76 76 76 76 77 76 75 75 75 74 74 74 74 74 73 73 73 74 73 73
56 51 45 46 51 51 63 65 69 66 64 71 71 61 59 70 76 77 76 75 74 74 74 71 71 73 72 73 74 74 74 74 75 74 73 72 72 72 73 72 73 73 73 73 73 73 73 73 72
59 45 42 48 51 55 66 61 70 69 67 69 67 68 71 76 76 73 71 73 73 73 72 72 71 70 70 70 72 72 72 72 72 71 70 69 68 70 70 69 71 72 72 72 73 73 72 71 70
52 45 48 58 59 58 63 61 63 64 64 62 64 69 72 75 73 72 70 70 70 71 72 73 72 72 71 74 70 68 70 68 67 67 66 66 66 68 71 68 69 71 71 71 72 72 71 70 67
53 46 56 60 63 63 61 61 64 60 57 63 64 68 70 70 71 71 71 71 72 73 74 74 73 74 73 73 70 69 68 66 66 65 66 65 68 69 65 64 65 64 66 66 68 67 66 65 65
49 56 59 61 63 62 58 62 59 58 60 66 67 67 69 68 69 70 71 71 71 73 76 75 75 74 74 74 71 71 71 69 67 67 67 64 63 66 63 62 62 62 63 63 64 63 65 65 65
51 55 61 62 61 61 63 57 56 58 63 66 67 68 67 68 68 69 72 73 72 75 76 76 76 76 74 72 72 74 73 73 73 70 70 67 66 65 64 63 63 63 63 64 62 63 63 62 62
56 59 56 58 58 58 58 57 56 57 64 62 64 65 63 66 69 68 69 71 71 74 76 78 76 78 76 73 71 72 74 75 76 74 72 69 68 65 64 64 63 62 62 62 62 62 61 59 59
58 50 52 53 55 54 59 51 52 60 61 59 61 62 66 66 67 68 70 70 72 72 76 77 78 76 76 74 71 73 74 75 74 73 75 70 68 66 64 62 61 61 62 62 61 60 58 57 58
49 46 39 52 56 56 55 44 56 61 57 59 61 63 61 65 67 68 70 70 70 71 72 77 81 76 76 75 72 70 73 71 71 74 76 71 69 66 63 62 61 61 61 59 57 56 54 52 52
46 35 38 45 57 55 52 44 56 61 58 56 58 60 63 66 66 66 70 73 73 70 72 71 75 75 76 75 74 73 69 70 67 71 75 74 68 66 64 61 60 60 58 57 58 53 53 50 50
37 36 39 41 50 51 48 46 52 57 56 53 55 54 57 63 67 71 70 68 71 72 71 71 71 76 75 75 73 71 68 67 70 73 73 72 67 64 62 59 59 58 56 54 54 52 49 49 48
44 41 41 44 52 47 45 45 50 54 54 56 57 54 59 62 63 64 65 67 68 67 68 70 69 69 70 71 68 67 66 67 65 68 73 69 66 64 61 59 57 56 56 54 54 51 49 47 47
44 41 39 46 51 47 44 45 51 54 54 57 57 55 58 62 62 63 65 64 64 67 66 66 68 72 73 71 71 69 66 61 63 64 70 68 63 61 60 59 57 56 54 53 53 53 49 50 48
40 37 38 40 45 45 41 40 44 52 54 57 60 61 60 61 59 60 61 62 62 62 64 66 67 67 70 68 61 58 57 56 56 56 59 59 60 58 57 55 53 53 53 52 51 52 51 46 46
36 45 45 43 37 29 40 26 36 47 51 52 52 54 59 60 58 60 63 61 62 62 63 65 67 66 68 66 62 62 62 60 55 53 52 54 57 57 59 55 53 52 51 50 50 51 49 48 45
40 47 42 40 33 30 32 27 34 42 46 50 49 52 53 56 60 61 59 62 62 62 61 62 64 65 66 69 66 64 60 53 52 51 51 52 53 57 58 57 56 54 52 49 49 48 49 48 45
48 42 40 37 32 22 30 30 31 40 46 47 49 54 53 55 55 57 58 59 59 58 58 60 62 63 64 69 64 63 55 51 51 49 50 49 51 53 56 56 54 53 52 48 50 46 46 46 44
42 33 18 26 24 20 36 30 33 45 51 52 52 53 55 56 55 56 56 56 56 57 58 58 60 61 62 64 62 58 56 54 52 51 50 49 50 51 53 53 52 51 51 50 49 44 45 43 42
36 34 20 15 17 24 36 27 37 49 53 54 56 54 54 52 54 55 56 55 55 56 57 57 58 60 60 59 59 56 54 52 51 50 49 51 52 52 54 53 52 52 51 50 46 45 43 42 41
36 29 38 25 26 18 27 35 45 50 49 50 53 53 53 54 54 54 53 55 55 56 56 56 57 58 58 59 54 52 51 50 49 49 50 52 52 53 53 53 51 51 51 49 47 45 45 42 42
40 43 26 21 11 14 25 29 36 42 45 48 48 48 51 54 54 54 53 54 56 55 55 56 57 57 58 58 53 52 50 49 49 49 49 52 54 54 52 51 50 50 49 48 47 45 44 44 41
37 34 35 30 24 16 17 27 42 43 45 44 47 51 52 53 54 54 53 54 54 54 54 54 55 56 55 55 52 50 48 49 49 50 52 54 53 53 52 51 51 49 48 48 46 44 44 43 42
40 36 35 19 19 20 24 27 47 49 46 48 52 53 54 53 56 51 51 52 52 52 53 54 54 53 52 51 50 48 49 50 51 50 53 54 52 53 52 51 50 49 48 46 45 44 43 41 41

GFSSGP_sfc_temp_054.txt.gz
Temp
72 71 67 64 52 47 42 50 53 59 61 65 66 69 64 64 65 57 68 73 74 74 77 78 78 78 78 78 78 78 78 78 78 78 78 78 77 77 77 77 77 77 78 78 78 78 77 77 77
68 72 64 55 46 39 43 51 57 61 66 67 67 67 64 62 69 66 67 74 76 76 77 77 78 78 78 78 78 78 78 78 78 78 78 78 77 77 76 76 76 76 77 77 78 77 77 76 76
70 70 58 51 43 41 44 54 55 66 67 68 63 67 66 65 68 69 71 75 76 75 76 76 77 78 78 78 77 77 77 77 77 77 78 77 77 77 76 76 75 75 75 75 75 75 75 75 75
64 60 56 46 44 49 52 54 57 64 69 68 65 63 66 70 71 72 75 76 74 73 74 76 77 77 77 77 77 77 77 77 77 77 77 77 77 76 75 75 74 74 74 75 75 75 75 75 75
60 54 45 42 47 50 55 58 60 62 63 65 65 61 62 70 72 75 74 75 73 71 73 75 77 77 77 77 77 77 77 77 77 77 77 77 77 76 75 74 74 74 74 74 74 74 74 74 74
53 52 40 42 46 53 57 61 59 62 64 67 64 62 62 69 72 74 75 74 75 72 74 75 75 76 76 76 76 76 77 77 77 77 77 77 76 75 74 74 74 74 74 74 74 74 74 74 74
49 45 41 41 46 49 58 63 59 62 63 65 67 58 60 65 72 73 73 73 74 74 73 73 74 74 74 75 75 76 76 76 76 76 76 76 74 74 74 74 74 74 74 74 74 74 74 74 73
53 48 41 43 46 48 59 61 66 62 63 68 68 59 59 69 74 71 71 71 71 73 73 71 71 72 72 72 73 74 74 74 75 75 73 72 71 72 73 72 73 73 73 73 73 73 73 73 73
57 43 39 45 48 51 60 59 66 67 63 66 64 65 69 73 73 69 68 68 69 71 70 70 69 69 68 69 71 72 72 72 72 71 70 69 67 69 69 69 71 72 72 72 73 73 73 71 70
50 42 45 54 55 53 59 58 61 62 61 60 61 66 70 72 70 68 66 66 67 68 68 69 69 69 69 73 69 67 69 67 67 67 66 66 65 67 70 67 69 71 71 71 72 72 71 69 65
50 44 54 57 60 60 58 58 60 57 57 60 59 65 68 67 68 69 69 68 67 69 69 70 69 69 69 71 68 67 66 65 64 65 65 64 65 65 64 64 65 64 66 65 67 66 64 63 62
46 54 57 58 61 58 56 60 55 57 60 62 61 64 67 67 66 69 70 69 68 68 70 71 71 70 70 71 69 68 67 66 64 64 64 62 62 63 62 63 63 62 62 62 62 61 61 62 62
47 52 57 59 59 57 60 56 56 57 62 64 63 65 65 65 66 67 68 71 72 69 71 71 71 71 70 69 69 69 68 68 67 65 64 64 62 64 63 61 61 61 61 61 60 60 61 60 59
54 55 55 56 55 56 55 55 55 56 62 61 61 61 62 64 65 64 66 68 67 72 73 73 72 73 72 70 69 70 70 70 69 68 67 66 65 65 63 61 61 60 61 61 61 60 59 58 57
55 48 50 52 54 53 56 52 50 59 59 58 58 58 61 62 65 65 67 67 68 68 72 72 73 74 72 71 69 70 71 71 71 70 69 67 67 64 64 62 60 60 60 61 59 58 56 56 56
48 45 39 50 54 55 54 44 53 58 55 55 56 58 59 62 64 64 68 67 67 67 69 72 76 73 73 72 69 69 71 71 70 71 71 68 68 66 62 61 60 59 59 58 57 55 53 52 52
42 34 37 44 54 53 49 43 55 61 54 53 54 55 58 61 62 62 66 68 68 67 68 68 73 72 73 72 71 69 69 70 67 68 71 70 69 65 62 61 59 59 57 56 56 52 52 50 49
36 35 37 39 48 48 45 44 51 54 53 53 53 53 53 57 62 65 66 66 69 67 66 69 70 71 73 71 70 68 67 68 67 69 70 70 67 63 62 59 59 58 55 53 53 52 48 48 47
44 42 38 43 50 44 44 44 48 52 51 53 54 53 55 58 63 61 62 63 64 65 65 65 67 69 70 68 66 65 66 65 66 65 67 68 65 63 62 60 58 56 56 54 53 50 49 46 45
42 37 36 44 48 44 42 41 48 52 53 55 57 58 57 57 58 60 61 61 61 63 63 63 64 69 70 72 71 68 66 65 65 65 64 66 64 63 61 60 58 56 53 52 51 51 47 46 45
39 36 37 38 43 41 40 41 44 48 51 55 58 59 59 59 60 60 58 60 60 60 61 63 63 64 69 72 66 59 59 57 57 59 62 63 62 60 59 57 55 53 52 51 50 50 49 45 44
36 43 43 41 36 29 39 27 36 43 45 49 48 49 55 58 57 59 59 58 59 59 61 61 63 63 64 63 64 63 64 61 60 61 54 55 58 58 57 55 54 53 51 51 49 50 48 46 44
38 45 41 39 32 28 30 28 35 42 44 46 47 50 52 54 55 56 56 59 60 59 58 59 60 62 62 63 64 63 64 60 52 53 53 52 53 55 56 55 53 52 50 51 51 50 49 46 44
46 41 37 34 29 17 28 29 32 38 44 46 50 52 54 50 53 55 56 58 57 56 57 57 57 58 60 61 63 64 58 52 51 50 50 50 50 53 55 55 53 52 51 51 51 50 48 45 46
41 31 16 16 15 19 33 27 32 42 48 48 50 51 53 52 52 52 52 54 55 54 55 57 57 59 58 58 59 61 58 55 54 52 51 50 49 50 52 53 52 50 51 51 49 48 46 46 45
36 32 20 14 18 22 33 26 36 45 49 51 51 50 51 52 52 52 53 53 54 53 54 55 55 56 57 56 58 58 58 56 54 53 51 51 51 49 50 51 53 51 51 50 48 46 44 44 42
36 27 36 23 22 16 25 32 41 45 45 47 48 49 48 50 51 53 51 53 54 55 55 55 55 56 55 56 55 52 53 52 51 49 50 49 49 50 51 52 51 51 50 49 47 46 45 44 44
39 41 26 19 10 13 23 25 31 38 41 45 45 46 49 53 54 52 53 53 54 54 54 53 54 53 54 54 50 50 50 50 49 49 49 50 50 52 52 51 50 49 49 49 47 46 46 45 41
36 31 29 28 23 15 16 27 39 41 43 42 44 47 48 48 50 50 54 53 53 53 52 53 53 52 51 49 48 47 47 47 48 48 49 51 52 52 52 51 50 49 48 48 46 44 45 44 43
39 35 32 19 17 17 25 26 44 40 42 44 50 48 51 49 51 50 50 49 49 50 50 51 51 50 48 48 46 45 46 47 46 48 50 51 51 52 51 51 49 48 47 45 44 45 43 42 41

GFSSGP_sfc_temp_057.txt.gz
Temp
70 69 65 62 51 46 41 48 50 55 58 61 62 63 64 62 63 57 65 71 73 73 76 77 78 79 79 79 78 78 78 78 78 78 78 77 77 77 77 77 77 78 79 79 78 78 78 78 76
67 70 63 54 45 38 42 48 54 58 62 65 62 62 61 60 66 64 66 72 75 75 76 76 78 78 78 78 78 78 78 78 78 78 78 77 77 77 77 77 77 78 79 78 78 78 76 76 76
68 68 57 50 42 40 43 51 54 62 64 62 61 63 64 63 65 66 68 73 75 74 75 75 77 78 78 78 78 78 78 78 78 77 78 77 77 76 76 76 76 76 76 76 76 75 75 75 75
63 59 55 45 43 48 50 52 54 59 66 64 62 59 64 67 68 70 72 74 73 72 73 75 77 77 77 77 77 77 77 77 77 77 77 77 77 76 76 75 75 75 74 75 75 75 75 75 75
58 52 44 40 45 50 51 56 58 58 58 62 64 61 60 67 69 70 72 74 72 71 72 74 77 77 77 77 77 77 78 77 77 77 77 77 76 76 75 74 74 74 74 75 75 75 74 74 74
51 50 39 41 45 52 54 57 57 57 59 63 60 58 60 65 68 70 72 71 73 72 73 74 75 76 76 77 76 76 77 77 77 77 77 77 76 75 74 74 74 74 74 74 74 74 74 74 74
49 44 40 41 49 48 55 59 56 58 59 61 64 55 59 63 68 71 71 70 72 72 72 72 73 73 74 75 75 76 76 76 76 76 76 75 74 74 74 74 74 74 74 74 74 74 74 74 73
51 47 40 41 44 47 56 60 62 60 61 67 67 58 57 65 69 69 69 69 69 70 71 70 70 71 70 70 73 74 74 74 75 75 73 72 71 72 73 72 73 74 73 73 73 73 73 73 73
53 42 38 44 46 50 56 55 62 62 60 63 63 63 65 69 69 67 67 68 68 69 69 69 69 68 67 68 70 72 72 72 72 71 70 69 67 68 68 68 70 72 72 73 73 73 73 71 70
49 40 44 52 53 52 56 55 58 60 58 59 60 64 65 68 67 65 66 67 68 69 69 70 68 68 67 71 67 66 68 67 67 67 66 65 65 66 68 66 69 71 71 71 72 72 71 68 63
49 42 52 55 58 58 54 56 58 54 55 56 56 61 65 63 65 66 66 68 69 70 71 71 67 68 68 69 67 66 64 64 64 65 64 64 64 64 65 63 64 64 65 64 67 65 63 61 61
45 52 54 57 59 56 53 57 54 56 58 61 60 62 63 63 63 64 66 66 66 67 69 69 68 67 68 69 67 67 66 64 62 63 64 62 61 63 62 62 62 62 62 61 62 60 60 60 60
46 50 55 58 58 55 57 53 53 54 61 60 63 63 62 62 62 65 66 66 66 66 68 69 69 68 68 67 67 67 66 66 65 63 63 63 61 62 62 62 61 61 61 60 60 59 59 58 58
52 53 54 55 55 54 54 53 53 54 59 58 59 60 60 61 63 60 64 66 65 67 68 69 69 69 69 68 67 67 67 67 66 65 64 63 63 62 63 61 60 60 60 60 59 59 58 56 56
52 46 48 51 53 53 54 50 48 56 59 57 59 56 59 60 62 62 64 65 66 66 68 69 70 70 69 69 67 67 68 68 67 66 64 65 63 62 62 61 59 59 59 59 58 57 55 54 55
47 44 38 49 52 54 54 44 52 56 56 54 55 57 59 58 61 63 64 64 65 65 66 70 73 71 70 70 67 67 68 69 68 68 66 65 65 63 61 60 59 59 58 57 55 54 52 51 51
40 33 36 44 53 52 49 41 52 58 53 52 53 54 55 58 59 59 63 63 64 65 66 65 70 71 69 69 68 68 68 69 67 69 67 66 66 64 62 61 58 58 56 55 55 51 52 50 49
34 35 36 39 45 47 44 41 50 53 51 51 52 54 54 56 59 61 60 63 64 63 64 65 68 71 70 69 68 67 67 68 67 68 68 67 67 64 62 58 58 57 55 53 52 51 48 48 48
41 38 36 40 48 43 42 41 47 51 48 48 50 53 55 56 62 59 60 61 61 60 61 63 64 69 69 67 66 66 65 66 64 66 68 67 66 63 63 60 58 57 57 56 53 50 49 47 45
43 37 35 42 45 42 40 40 47 51 52 53 55 56 56 55 56 57 59 59 60 61 59 60 63 68 69 69 68 67 67 66 66 65 64 66 65 63 62 59 58 58 54 52 51 51 47 46 44
37 34 36 37 41 39 38 38 43 48 50 52 54 56 57 57 58 59 55 58 58 58 60 61 60 62 68 70 67 61 60 60 60 60 63 64 63 62 62 59 59 57 57 54 52 50 49 45 43
35 42 42 39 35 28 37 27 36 43 44 47 48 49 50 53 57 56 56 55 56 58 59 60 61 60 63 67 66 64 64 63 63 64 64 61 59 58 57 57 56 55 53 51 51 52 50 49 47
38 44 40 37 31 27 29 27 35 39 42 47 46 48 50 51 50 53 54 56 57 57 57 57 58 59 59 62 67 65 63 63 60 56 58 53 54 58 55 55 52 52 52 52 52 51 51 51 48
45 39 36 32 29 18 28 29 32 37 40 44 47 48 49 49 51 52 53 54 54 55 56 56 57 59 58 58 61 63 64 56 54 53 55 53 52 53 53 53 53 53 52 51 51 52 51 49 48
39 32 19 17 15 19 31 28 33 41 44 45 45 45 48 49 51 52 52 52 53 55 55 56 56 57 57 56 56 59 60 56 57 56 56 52 51 50 50 52 51 52 52 52 51 49 47 47 46
34 33 22 16 15 21 30 25 34 44 46 47 47 44 48 48 48 51 53 52 51 52 54 54 55 56 56 54 54 55 58 57 56 54 55 54 53 51 51 51 51 52 52 51 49 48 46 46 44
35 26 34 23 22 17 24 30 39 43 42 44 46 48 46 48 48 48 52 53 52 53 54 53 53 54 55 54 52 53 54 53 53 51 51 50 49 50 49 50 50 51 50 50 48 46 46 45 44
38 40 26 19 13 16 24 25 31 36 39 42 43 44 46 48 49 48 49 51 53 53 54 53 52 53 53 52 51 51 52 52 49 49 47 47 48 49 49 48 49 50 50 49 48 46 46 45 43
33 29 29 28 23 17 17 28 36 38 40 41 43 45 46 46 47 48 48 48 48 51 49 50 50 51 52 50 47 47 46 45 46 46 47 47 49 49 49 49 50 49 48 48 47 46 45 42 42
38 34 31 20 18 17 23 25 41 42 43 43 46 47 50 48 47 47 47 49 47 47 48 48 48 49 49 45 44 43 44 44 44 45 46 48 48 49 49 51 50 49 48 47 46 45 44 42 41

GFSSGP_sfc_temp_060.txt.gz
Temp
69 68 63 61 50 45 39 46 47 52 54 58 60 60 61 61 62 57 64 69 71 73 75 77 78 79 79 79 78 78 78 78 78 78 78 78 78 77 78 77 77 78 79 79 79 78 78 78 76
66 68 62 52 44 37 41 46 51 55 59 62 60 60 59 59 63 62 65 70 73 74 75 76 78 78 79 78 78 78 78 78 77 78 78 78 77 77 77 77 77 79 79 79 78 77 75 76 76
67 66 57 49 41 39 41 49 53 58 62 59 62 61 60 61 63 64 66 71 74 73 74 75 77 78 78 78 78 78 78 78 77 77 77 77 77 76 76 76 77 77 78 77 77 76 75 75 75
62 59 54 44 41 46 49 50 52 57 61 61 60 59 64 65 65 67 70 73 71 71 72 75 77 78 77 77 77 78 78 78 77 77 77 77 76 76 76 76 76 75 75 75 75 75 75 75 75
57 52 43 39 43 47 48 54 54 54 56 57 59 59 60 65 67 69 72 73 71 72 72 74 77 77 77 77 77 77 77 78 77 77 77 77 76 76 75 75 74 76 75 75 75 75 75 74 74
49 49 38 40 44 51 51 56 54 54 55 59 56 55 60 62 66 70 74 72 75 73 72 73 75 76 76 77 77 77 78 77 77 77 77 77 76 75 74 74 74 74 75 74 74 74 74 74 74
47 43 39 40 48 50 54 57 54 55 53 58 60 54 60 60 66 71 72 71 75 74 71 71 72 73 74 76 75 76 76 76 76 76 76 75 74 74 74 74 74 74 74 74 74 74 74 74 73
49 47 40 41 44 47 57 58 59 58 59 61 63 57 59 61 69 68 69 72 72 72 70 69 69 70 70 70 73 74 74 74 75 74 73 72 71 72 73 72 73 74 74 73 73 73 73 73 72
52 41 37 43 46 50 57 53 58 60 57 60 62 58 63 65 67 67 68 69 70 70 69 70 68 68 67 68 70 72 72 72 72 71 70 68 66 67 68 68 70 72 73 73 73 73 73 71 69
48 39 42 51 52 52 55 54 55 56 56 56 57 63 62 65 66 66 66 67 68 69 69 71 68 67 66 70 67 66 68 66 66 67 66 65 65 65 67 66 69 71 71 71 72 72 71 66 61
47 42 50 54 56 57 54 52 56 52 52 57 55 59 62 60 66 67 68 69 69 71 71 72 67 66 66 67 65 64 64 64 64 65 64 64 64 64 64 62 63 63 65 64 66 64 62 61 60
44 50 53 56 58 56 51 54 51 54 57 60 59 59 60 61 61 63 66 68 70 70 71 72 68 66 66 65 65 64 64 63 62 63 64 62 61 62 62 62 61 61 62 61 61 60 59 59 59
47 49 54 56 57 54 55 52 52 53 59 59 61 60 59 59 61 63 63 65 69 69 70 71 69 66 66 65 65 64 64 64 63 62 63 62 61 61 62 62 61 60 60 60 59 58 58 57 57
51 53 53 54 54 54 52 50 51 53 55 56 57 59 59 62 62 60 62 63 64 68 70 71 69 67 66 66 66 65 65 65 63 63 63 63 62 61 62 61 60 60 59 59 59 58 56 55 55
51 46 47 50 52 52 52 47 46 55 57 55 55 55 58 59 60 61 63 64 64 66 68 67 68 68 67 66 66 66 66 66 65 65 63 63 62 62 62 61 60 60 59 59 57 56 54 53 54
46 43 38 49 51 52 54 42 51 54 53 54 54 51 54 59 61 60 61 63 64 63 65 68 71 68 67 67 66 66 66 67 66 66 64 64 63 62 61 61 60 59 58 57 55 53 52 51 51
44 33 36 43 52 51 48 40 50 53 50 50 51 52 54 55 57 58 61 60 62 62 63 64 69 68 68 67 67 66 66 66 66 65 65 64 64 63 62 61 60 58 56 55 55 51 51 49 49
37 38 35 39 45 46 42 40 49 52 50 50 49 50 52 54 57 61 59 60 60 61 62 62 65 69 68 68 67 67 67 66 66 65 67 63 65 63 61 60 58 58 55 52 52 51 48 49 48
40 37 36 39 45 41 40 39 45 51 47 46 48 50 52 55 59 58 59 59 60 58 58 61 61 66 67 66 66 66 66 66 66 65 67 63 64 62 62 60 58 57 56 55 54 49 49 46 46
43 39 35 40 44 41 40 38 46 51 49 51 52 53 52 54 55 56 57 57 58 59 57 58 60 65 66 67 67 69 68 67 67 66 65 64 63 61 62 60 59 57 54 52 53 50 46 46 45
40 37 35 36 40 38 36 37 41 47 49 49 51 52 51 52 55 58 54 55 56 56 57 57 58 62 65 68 67 62 62 61 63 64 64 63 63 62 62 59 58 58 57 53 51 51 50 46 45
33 42 41 39 34 29 36 27 36 41 44 46 45 47 48 48 49 51 53 54 53 55 56 57 58 58 60 64 65 64 65 64 65 65 65 63 62 61 61 59 58 56 54 52 51 51 51 50 46
37 44 40 36 30 26 30 28 35 38 41 43 43 44 46 48 49 51 51 53 54 54 53 55 56 57 58 59 64 63 63 63 59 61 62 62 58 61 60 58 55 53 53 52 52 50 51 51 48
43 38 35 31 29 18 26 28 32 36 37 41 43 45 46 47 49 51 50 52 51 52 52 52 54 56 56 56 58 62 63 59 55 56 60 57 56 57 56 56 54 53 52 51 51 51 51 50 48
39 32 17 17 15 18 29 26 32 39 42 42 42 45 45 46 48 50 51 51 52 52 52 54 53 54 55 54 55 60 62 59 58 58 59 57 55 54 54 54 52 51 52 51 50 51 49 48 47
33 32 22 15 16 22 30 24 33 40 42 45 44 44 45 47 46 47 49 50 50 51 51 52 53 53 54 53 53 53 56 57 58 56 57 57 56 56 54 53 52 51 51 51 50 49 47 47 46
32 25 33 22 20 16 24 29 38 41 40 42 44 45 44 46 47 47 47 48 50 50 51 50 51 52 52 52 51 51 52 54 55 53 53 52 51 50 51 51 51 50 51 51 50 47 47 47 45
37 38 26 21 14 15 23 24 31 35 37 42 43 43 45 46 46 46 47 48 49 49 49 48 48 49 50 49 49 50 50 52 52 49 49 47 47 48 49 49 48 50 50 50 49 47 47 45 44
34 30 29 27 22 18 18 29 36 38 40 38 41 43 43 45 46 46 47 47 47 47 47 46 46 47 47 47 46 46 46 46 46 45 44 45 46 47 47 48 48 48 49 49 47 46 45 44 43
37 33 30 21 19 20 21 26 39 39 40 43 44 46 47 47 47 47 47 46 47 45 44 43 42 42 43 43 43 44 47 47 46 45 45 46 47 49 48 49 49 49 48 47 46 45 44 42 41

GFSSGP_sfc_temp_063.txt.gz
Temp
74 72 71 68 59 56 50 55 58 60 63 70 70 70 69 70 70 67 71 76 77 79 81 82 79 79 79 79 78 78 78 78 77 78 78 78 78 78 78 78 78 78 78 79 79 79 78 77 77
72 72 68 61 54 48 51 56 57 62 68 68 68 68 69 71 72 68 71 75 78 79 82 82 78 79 79 79 78 78 78 78 78 77 78 78 78 78 77 77 78 78 79 79 77 77 77 76 76
71 70 64 58 50 48 51 57 61 64 67 67 69 72 71 72 73 72 75 76 79 79 81 81 78 78 78 78 78 78 78 78 78 77 77 78 77 77 77 77 78 78 77 77 77 75 76 76 76
67 66 61 53 47 52 57 61 60 63 68 68 69 69 74 75 73 75 76 77 78 78 81 78 77 78 78 78 78 78 78 79 78 77 77 77 77 77 77 77 77 76 75 76 76 76 75 75 76
63 60 51 47 50 53 57 61 62 62 64 66 68 69 70 73 72 74 75 77 77 76 80 80 77 78 78 78 78 78 79 78 78 77 77 77 77 76 76 76 76 75 75 75 75 75 75 75 75
57 57 47 46 49 55 59 63 63 63 64 67 67 67 71 71 71 73 76 76 79 76 78 80 76 76 77 77 77 78 78 78 77 77 77 77 76 76 75 75 76 76 75 75 75 75 75 74 74
54 51 48 47 52 54 58 62 62 64 64 67 71 67 72 70 71 74 75 77 78 77 77 78 79 77 75 76 77 77 77 76 76 76 76 76 75 74 74 74 74 75 75 74 74 74 74 74 74
55 54 45 47 50 52 61 61 65 64 66 71 71 67 70 70 72 72 73 76 75 75 76 77 77 79 79 80 74 75 75 75 75 75 73 72 71 72 73 72 73 74 74 74 73 74 74 73 73
56 48 44 48 48 54 60 59 65 67 67 68 70 69 70 70 71 69 69 71 72 72 73 75 76 77 77 77 76 74 73 73 73 73 70 70 76 75 74 70 71 72 73 73 73 73 72 70 69
52 45 47 53 56 55 59 61 63 64 62 65 67 69 66 69 68 68 68 68 68 69 71 74 73 75 75 75 76 76 76 78 78 77 76 76 75 75 74 70 69 71 71 72 73 72 70 69 74
51 46 52 55 58 60 58 59 62 61 59 64 64 65 65 66 67 68 68 70 70 71 72 73 72 73 74 74 74 74 74 75 75 75 75 75 73 73 74 73 73 73 69 74 73 73 73 72 73
47 52 55 58 59 59 56 60 58 60 63 66 65 66 67 66 65 67 69 71 71 71 72 73 72 72 73 74 73 73 73 73 73 74 74 73 72 71 72 72 71 71 72 72 72 72 71 71 70
49 52 55 58 58 58 59 56 58 58 63 64 64 65 66 67 68 69 69 70 72 71 72 73 73 71 73 72 73 72 72 72 73 73 73 73 72 71 72 71 71 71 71 72 71 71 70 69 70
53 54 55 56 57 57 54 54 55 58 61 62 61 63 64 66 68 69 68 69 71 72 72 73 73 71 72 72 71 73 73 73 72 72 72 72 72 72 71 70 70 70 70 71 71 70 69 68 69
53 47 51 54 54 54 56 50 49 59 61 61 61 63 62 65 67 68 70 70 71 72 74 73 73 71 70 71 71 71 72 72 72 72 72 71 71 71 71 70 69 70 70 70 69 68 67 66 66
48 48 41 51 54 54 56 45 55 58 57 58 59 60 59 63 66 69 69 69 71 70 71 73 73 71 69 70 70 70 70 72 73 72 72 71 71 71 70 70 70 71 69 69 68 66 65 65 65
44 36 39 46 53 53 53 46 54 57 55 56 57 58 58 59 62 64 66 68 70 71 71 71 72 72 70 70 70 70 70 71 70 70 72 71 71 70 70 70 70 70 68 67 66 63 65 62 62
37 37 39 42 48 49 46 45 51 55 54 54 55 57 57 57 61 66 67 66 68 68 69 70 71 72 71 70 69 68 68 68 70 70 72 69 70 69 69 69 70 68 67 65 63 62 61 63 62
43 41 39 42 49 47 44 43 48 52 52 52 54 56 58 59 62 63 65 65 65 65 64 66 67 71 71 68 66 66 65 67 67 68 70 69 69 68 67 68 69 67 66 65 64 62 59 58 60
44 40 39 43 47 46 42 42 48 52 52 54 55 56 55 57 59 60 62 63 63 65 65 64 65 69 70 71 71 70 69 68 69 68 68 69 69 67 67 67 66 66 65 64 62 61 57 58 58
42 40 38 40 43 43 40 41 45 51 51 52 52 53 54 53 53 55 57 59 60 60 62 64 64 66 69 71 70 67 68 66 67 66 66 67 68 67 67 67 65 65 65 62 60 60 59 56 54
37 44 43 41 39 34 40 34 41 45 45 46 48 50 51 51 53 54 56 57 58 59 59 60 62 63 65 69 69 68 68 66 68 68 68 67 66 67 66 66 65 63 61 61 58 57 59 56 52
37 42 42 38 34 35 36 34 40 44 42 44 47 49 50 51 52 54 55 56 57 56 56 58 59 61 63 66 69 68 67 68 69 68 68 67 64 65 65 65 64 63 61 60 57 55 56 57 54
43 40 37 34 32 25 31 33 37 41 43 46 48 49 49 50 52 54 55 55 56 56 56 57 58 59 60 61 63 66 66 66 63 64 64 66 63 62 63 63 63 62 61 59 58 58 57 56 55
41 36 25 23 23 26 32 30 37 43 46 48 48 49 49 50 51 52 53 54 55 55 55 57 57 58 59 60 60 62 65 66 64 65 64 65 59 58 60 61 60 59 59 58 58 56 55 54 53
37 37 27 21 22 26 32 28 37 43 45 49 50 49 48 50 51 51 52 52 53 54 55 55 55 56 57 58 59 59 60 63 63 64 63 64 62 61 61 59 59 58 57 56 56 54 54 52 50
36 31 36 23 23 22 29 34 42 45 45 47 47 48 48 50 50 50 52 53 53 53 54 52 53 54 56 56 56 57 57 57 59 61 61 62 61 59 59 58 56 56 56 55 54 52 51 50 48
39 39 29 24 18 22 27 29 34 39 43 46 46 47 48 49 49 50 51 51 52 53 52 52 52 51 52 52 53 54 54 55 56 58 57 57 56 55 55 54 53 52 52 53 51 49 49 47 46
35 31 30 30 26 23 24 32 39 41 44 44 46 47 48 48 49 49 50 51 51 50 49 49 49 49 49 50 50 49 49 50 51 52 52 53 52 52 53 52 51 51 50 50 48 47 47 45 45
39 34 32 23 23 23 23 31 43 42 43 43 46 48 48 48 48 48 48 48 48 47 47 46 46 47 47 47 47 48 50 51 50 49 49 50 50 51 51 51 50 49 49 49 47 47 46 44 42

GFSSGP_sfc_temp_066.txt.gz
Temp
79 83 87 82 67 67 63 65 72 70 71 79 79 78 78 80 79 74 82 86 88 89 89 85 79 79 79 79 79 79 78 78 78 78 79 79 79 78 78 78 78 78 79 79 80 79 78 77 77
82 81 82 77 63 58 63 71 67 74 77 79 78 78 77 78 84 81 82 83 88 89 89 88 78 79 79 79 79 78 78 78 78 78 78 78 78 78 78 78 78 79 79 78 77 78 77 77 76
80 81 74 68 63 59 62 70 73 75 77 76 77 81 81 79 83 83 84 85 89 89 90 87 78 79 79 78 78 78 78 78 78 77 78 77 77 78 77 78 78 78 78 78 76 76 76 76 76
77 77 76 63 60 66 69 72 72 73 76 78 78 77 83 84 83 85 86 87 88 89 91 79 77 78 78 78 78 78 78 78 78 77 77 78 77 77 77 77 77 76 76 77 75 76 76 76 76
76 75 63 59 62 68 72 75 74 73 73 76 78 76 79 82 83 85 86 87 87 89 89 85 77 78 78 78 78 78 79 78 78 78 77 77 77 77 77 76 76 76 76 75 76 75 75 75 75
66 71 59 56 62 69 71 76 75 74 75 76 76 77 81 82 82 83 86 87 87 87 86 85 77 77 78 78 78 78 79 78 77 77 77 77 76 76 76 75 75 75 75 75 75 75 75 75 75
65 62 59 62 63 65 68 77 73 75 76 75 81 75 82 82 81 80 85 88 87 86 86 85 85 81 75 76 77 78 78 77 76 77 77 76 75 75 75 75 75 75 75 75 75 74 74 74 74
69 66 60 63 60 62 72 72 76 75 75 82 82 75 78 79 80 77 77 86 86 80 87 86 86 86 86 85 75 76 76 75 75 75 74 72 72 72 74 73 74 74 74 74 74 74 74 73 73
69 59 56 59 59 63 71 69 75 78 77 78 80 80 79 79 76 74 73 80 77 78 86 87 87 87 87 87 81 75 73 73 73 73 70 71 81 79 76 73 71 73 73 73 73 73 73 71 70
62 57 60 68 67 64 65 70 72 71 73 74 77 79 77 80 72 71 70 70 71 74 75 84 86 86 86 84 85 84 84 84 84 80 78 83 83 82 80 73 70 72 72 72 73 72 71 70 81
61 57 65 61 64 67 64 68 73 71 67 76 75 76 75 72 71 71 72 74 73 76 75 77 81 85 85 84 85 85 85 85 85 84 83 83 82 80 80 79 78 78 70 78 76 75 79 79 81
54 61 63 64 64 63 62 69 68 71 74 77 77 75 76 74 70 70 71 74 75 76 75 76 80 78 84 85 83 84 83 83 83 83 83 82 81 80 81 81 80 79 80 80 80 81 80 79 79
54 59 62 65 63 63 63 64 68 68 74 74 74 72 74 75 76 73 73 75 76 76 76 76 77 76 83 83 83 84 83 82 83 82 82 82 81 80 81 80 80 80 80 80 79 79 79 79 79
59 59 59 63 63 62 59 61 63 68 74 73 73 73 75 75 77 78 76 75 75 75 77 77 76 76 77 83 82 83 83 83 81 82 82 81 82 81 80 79 78 79 79 80 80 79 78 77 78
58 53 58 60 60 59 63 56 58 69 72 71 72 74 74 74 77 78 80 80 82 82 82 80 77 77 74 80 82 82 82 82 82 81 82 81 81 80 79 80 78 77 80 79 79 78 78 77 76
54 53 46 57 59 59 60 52 62 69 70 69 72 74 74 75 76 79 80 81 83 82 82 83 81 77 76 74 79 81 81 82 82 82 82 81 80 80 79 78 79 79 78 78 77 76 75 75 74
49 45 48 51 60 59 57 55 64 68 66 67 69 71 72 73 75 78 80 80 82 83 83 82 83 81 77 75 74 76 80 80 82 82 82 81 80 80 79 79 79 80 76 76 76 75 75 72 72
45 46 49 49 54 56 54 54 58 63 62 65 69 70 71 71 73 78 79 80 81 82 83 83 82 82 81 73 71 71 72 74 80 80 81 80 80 79 78 79 79 79 75 74 74 72 73 73 72
55 49 47 51 55 53 53 54 57 62 64 64 67 69 70 72 75 75 76 77 77 78 79 80 80 81 82 74 68 68 67 69 70 72 78 79 79 78 77 77 78 78 76 74 74 72 69 67 71
51 49 48 48 54 53 51 51 57 60 61 63 65 67 69 69 70 71 72 74 75 76 78 77 79 80 81 81 76 76 74 72 71 70 70 75 76 76 76 75 76 76 74 74 73 71 67 68 68
49 49 48 47 48 51 49 50 54 56 57 59 60 62 63 63 63 66 68 69 70 71 73 75 76 76 78 80 81 77 76 72 70 68 69 71 72 74 75 74 74 73 74 73 72 70 66 64 64
38 51 50 47 46 43 48 45 49 52 52 56 59 61 62 62 65 66 66 66 66 67 68 69 71 73 74 76 77 76 73 71 72 74 74 74 72 69 73 73 74 72 71 71 70 68 68 67 61
39 51 49 47 44 44 44 43 48 52 49 53 57 59 60 62 63 64 64 65 66 65 65 67 68 70 72 73 74 75 74 75 75 75 74 74 72 68 67 70 71 71 70 69 69 64 65 66 65
43 42 45 46 44 34 43 42 45 49 52 53 56 58 59 61 63 64 64 66 66 67 66 66 68 68 69 70 72 72 73 73 72 73 72 73 71 67 66 65 66 67 67 67 68 65 63 62 64
41 40 31 31 32 36 39 38 47 51 53 56 55 57 58 61 62 63 63 64 64 64 65 66 67 67 68 68 69 70 71 72 72 72 71 71 68 65 64 65 64 64 65 65 66 64 61 61 61
42 42 38 29 32 37 38 36 46 51 55 57 56 57 57 59 61 61 62 62 63 64 64 65 65 66 67 68 68 70 70 70 70 71 71 71 71 67 66 65 64 63 63 62 63 62 61 60 59
42 39 44 34 33 36 43 43 49 51 52 54 55 56 56 58 59 59 61 62 62 62 62 62 62 63 64 64 65 67 68 66 67 69 70 69 69 67 67 64 62 61 60 59 58 57 58 58 56
46 47 37 35 29 30 37 40 43 45 49 53 54 56 57 57 58 59 59 60 61 61 61 61 61 60 60 61 62 63 63 64 64 65 66 67 67 66 62 61 59 58 57 56 55 53 54 50 48
41 40 38 41 37 36 36 42 55 51 53 53 54 55 56 56 57 58 58 59 58 58 58 58 58 58 58 59 58 56 57 59 59 59 60 60 60 59 59 58 55 54 53 53 52 48 47 45 42
45 43 43 36 31 34 36 41 53 56 54 52 54 56 56 55 55 55 56 56 56 55 56 55 56 56 56 57 58 56 58 59 58 58 58 58 56 57 56 55 54 52 51 50 48 47 46 44 43

GFSSGP_sfc_temp_069.txt.gz
Temp
79 85 89 83 68 69 64 69 78 74 75 83 83 81 81 84 82 73 87 91 94 91 88 84 79 79 79 80 79 79 78 78 78 78 79 79 79 78 78 78 78 79 79 78 80 78 77 77 77
82 85 83 77 63 59 63 76 71 77 81 83 83 82 80 80 89 86 86 88 93 92 89 87 78 79 79 79 79 78 78 78 78 78 78 78 78 78 78 78 78 78 78 77 78 77 77 76 76
80 83 74 68 63 59 64 76 77 79 81 80 80 85 85 83 87 88 89 90 93 92 91 85 78 79 79 78 78 78 78 78 78 77 77 77 78 77 77 78 78 78 78 77 76 76 76 76 76
77 75 75 64 61 68 71 78 79 79 80 82 82 79 87 89 88 90 90 92 92 93 93 78 77 78 78 78 78 78 78 78 78 77 77 77 77 77 77 77 77 76 76 76 75 76 76 76 75
79 75 62 60 63 72 77 81 78 77 79 80 81 79 82 86 89 90 90 92 92 93 88 84 77 78 78 78 78 78 78 78 78 78 78 78 77 77 77 76 76 76 76 75 76 76 76 75 75
66 72 60 57 64 71 78 81 78 78 80 81 79 80 82 87 87 89 91 91 93 92 86 83 76 77 77 78 78 78 78 78 78 78 78 77 76 76 76 75 75 75 76 75 75 75 75 75 75
65 64 60 64 65 69 74 81 77 77 78 78 84 77 85 85 86 89 90 92 92 91 83 83 85 80 75 76 77 77 78 77 77 76 77 76 75 75 75 75 75 75 75 75 75 74 75 75 74
69 67 60 64 64 66 77 79 80 79 78 88 86 77 79 83 84 86 90 91 90 89 89 83 84 85 84 82 75 76 76 75 75 75 73 72 72 73 74 74 74 74 74 74 74 74 74 74 73
73 59 57 62 64 68 78 74 80 84 81 83 84 85 83 85 81 79 81 87 85 84 89 88 86 85 87 88 81 75 74 73 73 72 70 70 80 77 75 73 72 73 73 73 74 74 73 71 71
61 57 60 70 72 70 73 73 75 75 75 78 81 85 84 84 78 75 76 82 78 76 87 90 90 89 89 89 84 84 82 82 82 79 78 82 83 82 81 73 71 72 72 72 73 73 71 70 78
61 57 66 71 68 71 68 68 77 74 71 78 78 82 82 83 79 75 74 75 74 76 81 86 90 90 89 87 87 86 87 85 85 84 81 84 84 81 80 77 76 76 70 75 74 73 76 78 82
57 63 67 69 66 64 64 70 72 74 77 83 84 83 81 79 79 77 75 77 79 76 76 78 87 89 89 88 86 87 86 86 85 85 85 84 82 80 81 80 79 78 77 79 77 78 79 80 81
58 63 65 67 66 66 68 65 69 73 79 80 79 76 79 80 80 79 78 78 84 80 78 76 80 84 87 87 86 87 86 85 86 85 85 84 82 81 82 82 81 80 81 81 79 81 80 79 80
59 62 62 65 65 65 61 65 67 73 79 77 77 77 78 79 80 81 77 76 79 81 83 78 77 78 82 87 86 86 86 86 85 84 84 84 83 82 81 81 80 80 81 81 81 80 79 79 80
60 54 58 61 64 61 64 58 60 71 75 74 75 77 78 79 80 80 82 81 81 82 82 82 80 79 78 83 84 85 85 85 83 83 84 83 83 82 81 81 77 77 81 81 80 80 79 78 78
52 53 47 57 61 62 60 52 66 71 70 71 75 77 77 78 79 81 83 84 85 86 84 85 84 80 78 76 83 84 85 85 84 84 84 83 83 82 80 80 80 79 79 79 79 78 76 76 75
49 42 49 54 62 60 56 54 67 70 69 70 73 76 77 78 79 81 83 84 85 85 85 85 85 83 80 79 77 83 84 84 84 84 84 83 82 82 80 80 80 81 78 77 77 76 75 73 73
44 47 53 51 57 58 55 55 64 67 66 68 72 74 75 75 77 81 82 83 84 84 85 85 85 84 84 82 75 73 75 83 84 83 84 83 83 82 80 80 80 80 78 72 76 75 75 74 72
56 53 52 57 58 55 55 57 60 65 64 65 69 72 73 74 79 81 81 82 81 82 82 84 83 84 84 83 73 69 67 70 76 81 83 82 83 81 80 79 79 79 78 74 73 74 72 71 73
53 52 52 56 59 53 56 55 62 63 63 65 67 70 72 74 77 77 77 78 79 79 80 80 82 83 84 84 81 74 72 70 72 71 74 78 81 80 79 78 77 78 77 76 71 71 70 69 70
46 50 53 51 54 54 53 51 55 61 64 66 65 67 70 69 69 71 73 73 74 74 77 78 80 81 82 83 84 79 78 78 72 69 70 72 75 78 77 77 76 76 76 74 74 71 69 65 66
43 57 57 52 47 41 52 44 54 59 56 58 62 65 66 66 67 68 68 68 68 70 72 73 75 77 79 80 80 80 77 74 76 76 75 73 73 72 72 74 74 73 73 73 73 73 70 67 63
43 54 55 52 49 48 45 42 51 55 51 56 61 62 64 65 66 66 66 67 68 67 67 69 70 72 74 76 76 77 76 78 78 78 76 77 76 72 69 69 69 70 69 70 69 70 69 67 65
51 51 49 49 46 35 48 46 44 50 54 56 60 62 63 64 66 67 67 69 68 68 68 69 70 70 72 72 73 73 73 75 74 74 74 76 76 75 71 68 67 66 67 66 66 67 66 65 65
43 39 31 30 30 36 47 42 50 54 59 59 59 61 62 64 65 66 65 66 66 66 67 68 69 69 71 71 71 72 72 73 73 73 74 73 73 70 68 68 66 65 65 65 65 65 63 63 62
38 37 34 30 34 39 43 38 48 57 60 60 61 61 62 63 64 64 64 65 66 65 65 66 66 67 68 69 70 71 72 71 72 73 74 74 73 73 71 66 65 64 64 63 63 62 61 60 60
37 36 47 39 42 40 43 48 52 53 55 57 58 59 59 61 62 62 64 64 65 64 64 64 64 65 65 65 67 69 70 69 68 70 71 71 72 70 68 65 63 63 62 62 60 58 57 57 57
45 48 38 37 30 32 42 45 46 47 50 55 56 58 59 60 61 62 62 62 63 63 63 63 63 62 62 63 64 63 64 64 65 66 67 67 68 68 66 62 60 59 58 57 56 55 54 53 47
43 41 42 43 40 37 36 44 56 52 54 55 57 58 59 59 59 60 61 62 61 61 61 61 61 60 60 61 61 60 61 62 62 62 62 62 63 62 62 61 60 58 56 55 52 49 48 44 43
49 47 48 37 34 37 37 41 58 58 57 57 57 58 60 58 57 58 58 59 59 58 58 58 59 58 59 60 61 60 61 61 61 60 60 60 59 60 58 59 57 55 53 51 49 47 45 43 41

GFSSGP_sfc_temp_072.txt.gz
Temp
77 80 80 73 55 57 54 60 70 67 66 72 77 71 70 73 70 59 79 84 84 81 80 80 79 79 79 79 79 78 79 78 78 79 79 79 79 79 78 78 79 79 79 80 79 78 77 77 77
77 80 74 65 53 49 54 66 66 69 73 75 73 72 70 70 80 76 77 84 86 83 81 79 78 79 79 79 79 78 78 78 78 79 79 79 79 78 78 78 78 78 78 78 78 77 77 76 76
75 78 63 58 54 50 55 67 69 74 76 71 69 74 74 72 80 79 82 85 87 83 83 79 78 79 79 78 78 78 78 78 78 77 77 77 78 77 77 78 78 78 77 76 77 76 76 76 76
70 64 64 54 53 60 63 70 72 73 74 72 71 68 77 80 79 81 84 87 86 83 80 76 77 78 78 78 78 78 78 78 78 77 77 77 77 77 77 77 76 77 76 76 76 76 76 75 75
69 56 48 50 55 64 69 74 72 67 71 73 71 68 70 77 83 83 83 87 85 80 78 77 77 78 78 78 78 78 78 78 78 78 79 77 77 77 76 76 76 76 76 76 76 76 76 75 75
57 59 45 44 54 65 70 75 73 69 72 73 67 69 68 79 80 81 84 84 86 80 79 78 76 77 77 77 77 78 78 78 78 79 78 77 76 76 75 76 75 76 76 76 76 76 75 75 74
57 55 48 51 55 62 69 77 70 68 68 70 71 65 71 76 81 83 83 84 83 82 79 77 77 76 75 76 76 77 78 77 77 77 76 75 75 75 75 75 75 75 75 75 75 75 75 75 74
62 58 51 54 56 61 73 75 75 71 69 78 75 64 61 73 80 82 83 82 81 79 79 79 78 77 77 77 75 76 76 75 76 75 73 71 72 72 73 73 73 74 74 74 74 74 74 74 73
67 51 48 52 57 62 73 72 77 77 71 75 75 71 75 77 77 74 76 79 78 79 79 80 80 79 79 77 76 74 74 73 73 71 70 69 69 69 70 71 72 72 73 73 74 74 73 71 70
57 49 51 62 66 65 69 71 71 68 67 69 70 75 77 74 72 70 71 73 72 72 79 78 79 78 79 83 74 73 74 74 75 74 68 71 70 70 73 69 70 73 72 72 73 73 71 69 66
56 49 59 63 67 65 66 66 71 68 62 68 68 72 75 73 71 69 69 72 72 69 74 82 81 81 79 78 77 76 75 75 75 73 71 72 72 69 68 64 66 65 67 67 69 67 66 66 67
52 58 60 65 65 63 60 65 64 67 67 74 72 73 73 71 71 69 69 70 72 73 73 75 77 80 79 77 75 76 76 74 73 75 74 72 70 69 68 67 66 66 66 66 65 65 66 68 70
53 58 62 65 65 63 65 61 62 65 70 72 73 73 71 72 73 72 72 72 73 73 74 72 73 76 79 76 75 75 75 74 74 74 76 73 71 69 69 69 69 68 68 67 67 67 70 69 69
57 59 61 64 63 63 60 59 62 65 71 68 70 67 66 68 70 71 71 71 71 74 73 74 73 73 75 75 76 75 75 75 74 73 73 75 72 70 70 69 68 68 69 69 69 68 68 68 68
58 51 55 58 61 58 61 54 57 66 69 66 67 65 69 70 70 69 72 71 72 72 75 72 75 75 72 72 77 74 75 76 73 73 75 74 73 71 71 69 68 68 69 70 69 69 68 67 68
50 50 43 55 58 59 58 46 59 66 65 64 66 65 67 70 71 71 73 73 75 75 75 76 77 74 75 71 73 74 75 74 73 73 73 74 74 72 70 69 68 69 68 68 66 66 65 64 64
46 38 41 48 58 57 54 48 60 66 63 63 63 65 67 68 70 71 73 72 73 74 74 76 77 75 74 75 71 73 76 74 73 73 73 73 74 73 70 69 69 70 68 67 67 65 64 62 61
38 39 44 44 53 55 51 50 59 63 61 61 63 65 67 67 69 72 73 73 73 73 73 74 74 75 74 73 73 70 69 72 74 71 73 74 74 73 70 69 69 70 67 66 65 64 63 62 61
47 46 45 50 57 52 51 50 55 60 58 58 60 61 63 66 68 70 71 69 69 71 72 72 73 74 73 73 67 66 68 66 67 70 74 74 73 73 70 70 68 69 67 66 66 64 63 60 61
48 46 46 53 55 51 51 50 57 59 58 59 61 61 62 63 66 68 68 64 68 69 69 69 70 71 72 72 71 68 67 67 70 66 68 69 70 70 71 69 69 67 66 65 66 66 64 61 60
45 41 43 48 51 47 45 45 52 58 60 61 62 61 61 60 60 62 63 64 63 63 64 67 69 70 71 72 71 68 67 65 64 66 69 69 68 68 68 67 67 66 66 64 65 64 64 63 58
39 49 48 51 43 33 46 32 47 54 55 57 55 57 58 56 58 60 61 61 60 59 60 61 63 64 67 68 68 66 67 65 65 65 67 68 69 69 67 66 66 65 64 64 62 64 63 61 59
40 46 50 47 42 40 39 31 45 52 50 51 52 55 56 57 58 58 59 61 60 59 58 60 62 63 64 65 65 63 62 64 66 66 65 65 65 67 66 67 63 66 66 65 65 62 63 63 60
44 40 43 45 41 29 38 35 37 44 50 51 54 55 57 57 58 59 60 62 60 60 59 60 62 62 63 62 62 61 60 61 62 63 63 63 64 65 65 65 65 65 64 64 63 63 61 60 62
38 34 30 28 28 25 43 36 41 50 55 54 53 54 56 57 57 57 57 57 58 57 58 61 60 60 61 61 61 61 61 60 60 62 62 63 62 63 63 63 64 63 63 63 63 62 61 61 60
35 37 32 25 23 28 40 29 38 51 56 58 57 55 56 56 56 56 56 56 57 57 56 56 57 58 58 58 59 59 60 58 58 60 61 61 62 62 64 62 63 63 62 62 62 61 60 60 59
36 34 39 33 36 27 32 37 43 47 51 52 53 54 53 55 55 55 56 56 56 55 55 55 55 56 56 56 56 55 55 55 55 57 58 58 59 61 58 59 59 61 60 60 60 59 57 57 57
39 45 32 32 26 26 31 33 34 40 46 50 51 51 53 54 55 54 54 54 54 54 54 54 55 54 54 54 53 54 54 54 54 55 54 55 55 56 55 55 55 56 56 56 56 54 54 51 48
36 34 38 39 34 26 23 30 45 45 48 49 51 53 53 53 53 53 54 54 53 52 52 52 52 52 52 53 53 51 52 53 53 51 51 52 52 52 52 54 57 54 53 52 51 48 47 45 43
45 43 42 27 27 30 27 29 50 48 49 51 51 54 54 54 52 53 52 52 51 50 50 50 50 50 50 51 51 50 50 50 49 48 49 50 48 49 48 51 50 49 49 48 48 46 45 43 41

GFSSGP_sfc_temp_075.txt.gz
Temp
75 76 70 65 51 48 44 52 57 63 61 63 67 68 64 65 66 58 73 78 77 76 78 79 79 79 79 79 79 78 78 78 78 79 79 79 79 79 79 79 79 79 80 79 78 78 77 77 76
73 76 67 57 45 39 45 55 58 64 67 67 71 67 67 64 71 73 71 77 78 77 78 78 78 79 79 78 78 78 78 78 79 79 79 79 79 78 78 78 78 78 79 78 77 77 76 76 76
73 75 58 49 44 41 46 59 60 67 71 69 66 68 67 67 72 73 77 79 78 77 78 78 78 78 78 78 78 78 78 79 78 78 78 78 78 78 78 78 78 77 77 77 77 76 76 76 76
65 62 60 45 44 51 56 60 65 65 68 71 68 63 70 74 74 77 80 80 77 77 75 76 77 78 78 78 78 78 79 78 78 78 77 77 77 77 78 76 76 76 76 76 76 76 76 75 75
60 56 47 44 46 54 61 65 65 65 66 67 68 63 64 72 77 78 79 80 77 75 75 76 77 78 78 78 78 78 78 78 79 79 78 78 77 76 77 76 76 76 76 76 76 76 75 75 75
51 55 43 42 46 57 62 67 68 67 65 66 66 63 62 72 75 77 80 78 77 74 75 76 75 76 77 77 78 77 78 78 78 78 77 76 77 76 76 76 75 76 76 76 76 75 75 74 74
51 48 47 47 48 54 60 71 68 64 63 65 71 60 61 68 75 77 77 77 77 76 75 74 75 75 75 76 76 77 77 77 77 77 76 75 74 75 76 75 76 75 75 75 75 75 75 74 73
52 51 48 49 49 51 63 68 73 68 65 70 72 59 60 69 75 74 77 77 75 75 74 72 73 75 75 76 74 75 75 75 76 75 73 71 71 72 73 73 74 74 74 74 74 74 74 74 73
57 47 45 49 50 56 67 63 73 74 69 69 67 67 70 74 74 72 74 73 73 74 73 73 72 72 77 77 76 74 74 73 73 71 69 68 66 68 70 69 71 72 73 73 74 74 73 71 70
48 44 49 59 59 58 65 64 64 63 65 63 64 67 71 71 69 68 72 68 69 70 73 75 74 73 76 78 73 72 75 71 71 70 67 67 65 65 70 68 69 72 72 72 73 73 71 69 64
51 47 57 60 62 63 61 58 70 64 61 64 63 64 68 68 66 67 68 70 69 70 74 76 75 75 74 75 70 69 69 70 70 68 67 67 68 65 64 64 66 65 66 66 68 67 65 63 63
47 56 58 61 63 61 59 64 66 66 65 68 68 68 66 66 66 66 66 66 68 69 70 74 75 78 72 74 73 71 70 70 69 69 69 66 65 64 63 62 63 63 63 63 63 63 63 63 64
47 53 59 62 61 59 61 59 62 63 66 68 70 69 67 66 65 67 68 67 68 69 70 71 71 75 75 74 74 73 73 72 71 71 71 68 67 66 65 63 63 63 63 63 62 62 63 63 63
51 54 56 58 57 61 58 58 60 62 67 66 68 65 65 68 67 65 67 68 66 68 70 71 71 70 72 73 72 71 71 73 70 71 72 70 70 68 66 64 64 64 65 64 65 64 64 63 64
52 45 50 53 56 55 59 53 55 63 65 61 60 61 63 65 68 67 68 68 68 67 70 69 71 71 69 70 70 70 71 72 70 70 71 71 70 68 67 65 65 66 66 65 64 64 64 63 65
49 46 40 50 55 57 55 44 57 64 60 60 59 60 62 65 68 68 68 69 70 70 70 69 75 71 70 69 69 72 71 70 70 70 70 71 71 69 67 66 66 67 66 65 64 63 62 62 62
43 37 39 47 54 53 51 45 58 63 60 57 59 62 61 63 64 66 69 67 69 69 69 70 71 70 71 70 69 69 72 70 70 70 69 70 71 70 67 66 66 66 65 64 64 62 62 60 59
36 36 39 38 50 50 47 47 56 61 60 58 57 60 61 61 65 67 69 69 70 67 69 69 71 70 70 69 68 67 68 71 72 68 70 71 71 70 67 66 66 66 64 63 62 62 60 60 60
42 39 38 43 50 46 45 47 52 57 57 55 56 59 60 63 67 68 68 67 66 66 67 67 67 72 71 66 64 64 65 66 66 67 68 70 71 72 69 68 66 65 65 66 63 62 61 58 58
43 40 39 45 52 49 45 46 52 56 54 56 58 58 60 57 60 61 63 61 64 64 64 65 67 68 68 71 69 65 65 65 66 66 67 68 68 68 71 68 68 65 63 62 63 62 59 58 58
40 36 37 42 46 48 44 40 46 54 57 56 60 60 60 59 58 58 59 59 60 59 59 61 61 62 65 67 67 65 65 64 63 64 66 66 66 66 66 65 65 66 65 63 63 63 60 60 57
38 47 47 46 41 31 41 28 40 49 54 55 57 57 57 57 58 57 57 57 58 57 57 59 60 61 63 63 63 64 63 63 63 63 65 65 65 65 65 64 64 62 62 61 61 63 62 58 57
38 45 44 45 40 35 36 30 36 46 49 54 51 52 54 55 56 56 57 58 59 58 57 57 59 61 61 61 61 59 60 61 62 63 63 64 64 65 65 64 63 63 62 62 61 60 60 60 59
44 41 41 41 38 29 33 32 31 38 49 50 52 50 53 54 55 57 58 59 57 57 57 57 59 59 59 59 59 59 57 57 58 59 61 62 62 62 63 63 65 64 63 63 63 63 61 62 62
41 35 29 28 28 23 36 31 37 44 48 52 50 50 52 53 54 55 55 55 55 55 55 58 56 56 56 56 56 56 56 55 55 56 57 59 60 60 62 63 62 62 62 64 63 62 61 60 60
36 36 31 25 21 25 37 28 37 45 50 53 54 53 53 51 52 53 55 54 54 54 53 54 54 54 55 54 53 53 53 53 54 54 55 56 57 58 59 59 60 62 62 62 61 60 60 60 59
37 33 38 30 30 25 30 33 43 45 45 49 51 53 50 50 51 52 53 52 52 52 52 52 52 52 52 52 52 52 52 52 51 52 52 52 53 57 55 56 58 58 58 58 58 57 57 57 55
40 43 31 29 24 22 27 27 32 38 41 46 47 50 50 51 51 51 51 51 51 52 51 51 51 51 51 51 51 51 50 51 50 50 49 50 50 51 52 52 52 51 52 54 54 53 52 51 48
36 35 36 35 31 25 20 29 41 43 45 45 46 49 51 51 50 50 49 50 50 49 48 48 49 50 49 50 49 48 48 48 48 47 47 46 47 47 48 49 49 49 51 50 49 48 47 45 44
43 38 38 26 25 29 24 30 46 43 45 47 48 50 51 50 50 49 49 48 47 46 46 46 47 47 47 48 47 46 46 45 44 44 44 45 43 44 44 45 44 43 43 43 46 45 45 43 41

GFSSGP_sfc_temp_078.txt.gz
Temp
75 72 67 63 51 46 41 49 54 59 58 62 64 66 64 61 64 58 69 74 75 75 78 78 79 79 79 79 79 78 78 78 79 79 79 79 79 79 78 79 79 80 79 78 78 78 77 77 77
72 73 66 56 44 38 43 50 56 59 65 66 66 64 64 62 68 67 68 75 77 77 77 77 78 78 79 78 78 78 78 78 78 79 79 79 79 78 78 78 78 79 78 77 77 76 76 76 76
71 71 58 53 42 40 43 53 55 65 67 67 65 67 65 63 69 69 72 76 77 76 77 77 78 78 78 78 78 78 78 78 78 78 78 78 78 78 78 78 77 77 77 76 76 76 76 76 76
63 63 56 49 42 48 51 54 59 63 67 67 66 62 66 71 72 72 75 76 75 74 75 76 77 78 78 78 78 78 78 78 78 78 77 77 77 78 77 77 76 76 76 76 76 76 75 75 75
58 56 45 41 44 51 58 57 60 60 62 65 64 60 61 71 73 75 74 76 73 73 74 76 77 78 78 78 78 78 79 78 78 78 78 78 77 77 76 76 75 75 76 76 76 76 75 75 75
50 52 44 40 46 57 62 62 60 60 63 65 63 60 60 68 72 74 76 75 75 73 74 76 75 76 77 77 77 78 78 78 77 77 77 77 76 76 76 76 75 76 76 76 76 75 75 74 74
48 44 41 44 48 54 61 67 59 60 62 63 65 58 61 66 71 75 74 75 74 74 73 74 76 75 75 76 76 76 77 77 76 76 76 75 74 75 76 75 75 76 76 76 75 75 75 74 74
51 47 43 44 49 50 64 64 63 60 60 69 66 58 58 66 70 73 73 73 72 73 74 73 73 74 74 74 74 75 75 75 75 74 72 71 71 72 74 73 74 75 75 74 74 74 74 74 73
54 42 45 46 50 53 64 62 69 68 61 69 62 63 69 71 71 70 70 71 72 72 72 73 72 72 73 76 75 74 73 73 72 71 69 68 66 68 68 69 71 73 73 73 74 74 73 72 70
51 40 45 55 57 56 59 59 58 60 61 61 61 66 68 69 69 67 67 67 68 68 70 71 71 71 75 78 76 72 73 70 69 68 66 66 64 65 69 67 70 72 72 72 73 73 71 69 63
50 44 53 57 62 62 55 54 61 58 55 63 61 64 65 65 65 65 67 68 68 69 71 71 70 71 71 73 70 67 67 67 68 66 66 65 65 62 64 63 66 66 66 66 68 67 65 62 61
44 51 54 57 60 57 54 60 54 59 61 67 67 66 64 64 65 66 65 66 66 68 69 71 72 71 69 71 69 68 68 67 65 66 66 64 62 61 61 62 63 63 63 63 63 63 63 62 62
45 48 55 58 59 59 58 56 57 59 69 69 69 64 63 63 63 64 66 66 67 67 69 70 71 69 71 69 71 68 68 68 68 67 67 65 62 61 61 62 62 62 62 62 61 62 61 61 61
52 52 52 56 56 59 57 57 60 64 67 66 66 62 61 63 64 63 64 65 66 67 68 69 70 69 71 71 70 70 70 69 68 68 68 66 66 65 63 62 62 61 62 62 61 61 61 61 61
49 45 49 52 53 54 58 53 54 63 64 64 63 60 63 63 64 64 66 65 66 66 68 69 69 69 69 68 68 68 69 71 68 69 69 67 67 65 65 64 61 62 62 62 61 61 61 61 62
44 45 37 49 52 56 57 46 56 62 61 61 62 59 59 62 64 64 66 67 66 68 67 67 73 69 68 68 68 68 67 70 69 69 69 68 68 68 65 64 63 63 62 62 61 61 60 59 59
41 32 37 42 52 53 51 46 57 62 59 59 60 59 59 61 62 63 65 66 67 67 68 68 68 69 68 68 68 68 69 67 68 67 68 69 69 68 67 65 64 64 63 62 63 60 60 58 58
35 39 36 36 46 47 46 46 53 59 57 56 57 56 57 60 63 66 65 64 66 66 66 67 68 68 67 67 67 66 67 67 68 65 67 69 69 68 67 64 64 64 63 62 60 60 59 59 59
41 38 40 39 47 44 43 46 52 57 54 55 56 56 57 61 63 65 65 62 60 62 64 65 66 68 66 65 64 64 64 65 65 66 67 68 69 68 67 65 64 63 65 66 62 60 60 57 57
44 38 35 41 48 44 44 45 50 54 53 53 56 57 59 58 57 58 61 58 61 60 61 63 64 65 67 66 65 65 64 64 65 66 66 67 67 66 67 65 65 64 62 61 61 61 58 58 56
38 37 36 38 43 43 40 41 45 50 54 55 57 58 59 58 57 53 56 57 56 56 57 60 60 62 63 65 65 64 64 63 63 63 64 65 66 65 65 64 63 62 63 63 62 61 60 61 56
35 44 44 42 36 30 41 29 39 48 49 53 53 55 55 56 55 54 55 55 55 55 55 57 59 60 61 61 61 63 64 63 62 63 63 63 64 64 65 64 63 62 61 61 61 62 61 57 57
39 46 44 41 36 37 35 31 35 42 44 50 56 57 54 54 54 54 55 57 56 56 56 55 57 58 58 59 59 58 59 60 61 62 62 63 63 64 64 64 62 62 61 60 60 61 60 61 61
44 42 42 41 38 29 33 32 30 38 45 49 55 55 52 51 53 54 55 56 55 54 54 55 55 55 55 55 55 57 57 56 56 57 58 60 61 62 63 62 62 62 62 61 61 60 61 60 61
40 36 27 27 28 24 34 32 38 41 46 49 51 50 50 51 51 52 53 54 53 53 54 55 54 53 53 52 51 52 53 53 54 55 56 58 58 59 62 61 61 60 60 62 62 62 61 60 59
37 34 23 19 22 24 34 28 36 42 46 49 51 51 51 50 50 51 52 53 52 53 52 53 52 52 52 52 51 50 50 51 51 51 53 54 56 57 57 59 59 60 62 62 61 60 59 59 59
37 34 37 27 27 20 28 33 42 41 40 44 46 48 48 49 49 50 50 50 51 50 51 51 51 51 51 50 50 49 49 50 49 49 50 50 52 55 54 54 55 55 56 57 57 55 53 55 52
41 42 32 32 25 20 25 27 32 35 38 43 45 44 46 50 49 48 48 48 49 50 49 49 49 48 49 49 48 47 47 47 47 47 46 47 48 50 50 50 50 49 51 51 50 47 49 49 46
36 35 36 34 27 21 18 27 39 41 43 43 43 46 46 49 49 48 47 47 47 47 46 47 48 47 47 46 45 44 44 44 44 43 43 44 44 45 46 47 46 45 45 48 49 48 47 45 44
41 38 36 23 26 22 22 28 43 42 44 45 45 47 47 49 49 47 47 46 45 45 45 45 45 45 45 45 44 43 43 42 42 42 42 43 41 42 43 43 42 41 41 40 45 45 45 44 42

GFSSGP_sfc_temp_081.txt.gz
Temp
73 69 65 62 51 46 41 47 50 54 54 59 62 63 63 61 62 57 66 71 74 74 77 78 79 79 79 79 78 78 78 78 79 79 79 79 79 79 79 79 79 79 78 78 78 77 77 77 77
69 71 63 54 44 38 42 48 53 56 61 63 62 62 60 60 66 65 67 73 76 75 77 77 78 78 79 78 78 78 78 78 78 79 79 79 79 78 78 79 79 78 78 77 77 76 76 76 76
70 70 58 50 41 39 44 51 52 59 62 62 59 63 61 62 65 67 70 75 76 75 76 76 78 78 78 78 78 78 78 78 78 78 78 78 78 78 78 78 78 77 77 76 76 76 76 76 76
65 60 59 49 41 47 52 53 54 58 63 64 61 59 63 68 69 71 74 75 74 73 74 76 77 78 78 77 78 78 78 78 78 78 77 77 78 78 77 77 76 76 75 76 76 76 75 75 75
57 53 47 44 44 49 56 58 58 57 57 61 62 58 59 67 70 72 74 75 75 73 74 76 77 77 77 77 77 78 78 78 78 78 77 77 77 77 77 76 75 75 76 76 76 76 75 75 75
50 51 42 40 46 54 59 62 57 57 58 60 60 56 59 66 70 73 75 73 77 75 74 75 75 76 77 77 77 77 77 77 77 77 78 77 76 76 76 75 75 76 76 76 75 75 75 74 75
47 44 40 45 45 51 59 65 57 55 56 58 63 54 59 65 69 72 72 72 74 74 73 74 74 75 74 75 76 76 76 76 76 76 77 75 74 75 75 75 75 76 76 75 75 75 75 74 74
49 45 41 41 46 49 62 63 62 58 55 65 61 56 58 65 69 70 71 71 71 73 74 73 72 73 73 73 74 74 74 74 74 74 73 71 71 72 74 73 74 75 75 74 74 74 74 74 73
53 42 44 44 46 50 62 61 67 62 58 61 60 61 65 68 70 68 70 71 72 72 75 72 72 72 71 72 73 73 73 72 72 71 69 68 66 67 68 69 71 73 73 73 74 74 73 71 70
48 44 43 52 52 52 57 60 63 58 55 58 60 64 65 68 68 67 68 68 69 70 73 74 73 71 71 76 71 69 71 69 67 66 65 64 64 65 68 67 70 72 72 72 73 73 71 68 62
49 43 51 54 55 56 55 55 60 57 52 58 58 61 63 65 66 68 69 70 69 70 72 73 71 71 71 74 72 67 67 66 65 65 64 63 64 63 63 64 66 66 66 66 68 67 64 62 60
43 49 52 56 56 54 52 57 54 57 57 62 63 64 64 62 64 66 67 67 66 67 68 70 70 69 68 68 69 67 67 65 64 64 64 62 60 61 61 61 63 63 63 63 63 63 62 61 61
48 52 53 55 55 54 57 53 55 55 62 63 65 65 63 61 62 63 65 66 66 67 68 68 68 68 67 67 67 66 65 66 65 64 64 63 61 59 61 61 61 62 62 61 61 61 61 60 60
53 53 50 53 53 54 53 53 56 58 58 60 61 62 61 61 61 61 63 64 66 67 67 68 68 68 67 69 67 68 66 66 65 65 66 64 63 61 61 61 61 61 61 61 61 60 60 60 59
51 45 49 48 50 51 54 51 52 60 57 58 59 60 61 61 62 63 64 65 66 67 68 67 68 68 68 68 67 67 68 67 66 66 65 66 64 62 62 61 60 61 61 61 60 60 60 59 60
46 46 39 46 49 51 53 43 54 60 55 54 58 60 61 61 63 63 64 65 66 66 67 68 72 68 68 70 67 66 66 66 67 66 66 66 66 64 62 62 61 62 60 60 60 59 58 58 58
40 31 37 41 49 49 47 42 56 61 58 56 58 63 61 62 65 64 64 64 66 66 66 66 68 67 66 66 68 67 67 66 66 66 65 66 67 66 64 63 63 61 60 59 60 58 58 57 57
33 32 33 35 43 44 43 42 54 59 59 60 61 61 59 60 63 65 65 64 64 64 66 66 66 67 66 66 65 65 66 65 65 64 66 66 68 67 65 63 62 61 60 59 58 59 57 58 57
40 38 35 38 44 44 41 42 51 55 56 56 57 60 59 60 64 65 63 63 61 61 64 65 65 66 65 64 63 63 63 64 64 64 66 66 68 67 65 65 62 62 62 62 61 59 58 56 56
43 37 34 39 45 43 40 42 50 54 54 56 57 58 57 56 60 58 58 58 62 61 59 62 64 65 65 64 64 64 64 64 65 65 65 66 65 65 65 64 63 62 62 61 60 60 57 57 55
38 39 35 37 40 40 38 38 45 52 51 53 56 57 56 56 55 53 54 53 54 57 57 60 61 62 64 64 64 63 63 63 62 63 64 65 64 64 64 63 62 61 61 61 61 60 59 59 55
36 44 42 41 35 29 39 26 37 49 50 51 54 53 54 53 53 53 54 55 55 53 55 57 58 59 60 60 62 63 63 61 62 62 63 63 63 64 64 63 62 61 61 60 60 60 60 60 60
40 46 43 41 35 30 30 29 33 40 43 50 53 56 54 54 54 54 54 55 54 54 54 54 55 56 56 57 58 59 60 61 61 61 62 62 62 63 64 64 62 61 60 60 59 59 61 61 61
45 43 41 40 35 28 31 31 30 36 43 44 51 52 54 53 53 53 54 54 52 52 54 54 54 53 53 53 54 55 55 56 55 56 57 59 60 61 62 62 62 62 61 60 60 59 59 60 60
42 36 28 27 28 25 31 30 37 40 44 46 49 50 50 50 49 50 51 52 52 51 52 54 53 51 51 51 51 51 52 53 54 54 54 55 56 57 59 60 60 60 60 60 60 61 60 58 59
36 34 23 19 24 25 31 26 35 42 46 47 48 50 48 47 49 49 50 50 50 51 51 51 50 50 50 50 49 49 50 50 50 51 52 53 54 57 56 57 58 59 59 59 59 60 59 58 57
36 30 36 26 24 19 26 31 40 41 42 42 43 45 45 46 47 49 49 49 49 49 49 48 48 48 48 48 48 47 48 48 48 48 49 49 51 54 55 56 56 56 56 56 57 54 54 52 51
38 40 30 32 15 18 24 25 31 37 40 40 41 43 44 46 46 47 47 47 48 48 47 48 47 46 46 46 46 45 44 45 45 45 45 46 47 49 49 49 50 51 51 51 50 49 51 47 46
36 35 34 31 27 20 18 27 36 38 41 40 41 42 44 45 46 46 47 46 46 45 46 46 47 46 44 44 43 42 41 42 42 41 42 42 44 44 45 45 45 44 45 46 46 46 47 46 44
39 37 35 22 26 26 18 27 39 39 41 42 41 44 44 46 45 45 45 45 43 44 44 44 44 44 44 43 41 40 41 40 39 39 40 41 40 41 41 42 41 40 40 40 43 42 45 43 42

GFSSGP_sfc_temp_084.txt.gz
Temp
70 68 63 61 50 44 39 47 48 52 51 55 61 61 61 58 61 56 64 69 72 75 76 77 79 79 79 79 79 78 78 78 79 79 79 79 79 79 79 79 79 78 78 78 78 78 77 77 77
67 68 61 52 43 37 41 47 51 54 57 58 61 59 58 58 63 65 67 72 75 75 76 76 78 79 79 78 78 78 78 78 78 79 79 79 79 79 79 79 78 78 77 77 77 77 76 76 76
69 66 55 49 40 38 42 50 52 58 60 59 60 60 59 59 63 66 68 74 74 74 75 76 78 78 78 78 78 78 78 78 78 78 78 78 78 78 78 79 78 77 76 76 76 76 76 76 75
64 60 58 46 40 45 49 55 54 57 60 60 57 58 62 66 66 69 73 76 73 73 73 76 77 78 78 77 77 78 78 78 78 78 78 78 78 78 77 77 76 75 75 76 76 76 75 75 75
59 55 47 41 42 47 50 58 58 56 55 58 56 58 58 66 68 71 73 74 73 74 73 75 77 78 77 77 77 78 78 78 78 77 77 77 77 77 77 76 75 75 75 76 76 75 75 75 75
52 51 42 41 44 52 54 60 60 55 55 59 57 57 58 68 71 74 76 74 77 74 73 75 75 76 77 77 77 77 77 77 77 77 77 77 77 76 76 75 75 75 76 75 76 75 75 75 75
47 45 39 40 47 46 56 63 53 57 53 55 57 53 59 66 72 74 75 76 76 76 72 73 74 74 74 75 76 76 76 76 76 76 76 75 74 75 75 75 75 76 75 75 75 75 74 74 74
48 46 41 40 44 46 59 62 61 59 55 61 59 53 56 61 71 71 73 74 74 74 75 74 72 73 72 73 74 74 74 74 74 74 73 71 70 72 74 73 74 75 75 74 74 74 74 73 73
53 44 45 43 44 48 61 60 63 62 60 58 58 58 63 66 69 70 69 70 71 73 75 74 71 71 71 71 72 72 72 72 72 70 69 68 66 67 69 69 71 73 73 73 73 73 73 71 69
50 45 42 51 50 50 56 59 62 60 58 55 57 64 68 68 67 67 68 67 68 70 72 74 73 71 70 74 70 68 70 67 67 66 65 64 64 64 68 67 70 72 72 72 73 73 71 66 61
50 41 49 51 55 56 54 53 61 55 53 57 56 58 64 64 66 66 68 69 69 71 73 74 73 70 70 71 68 66 66 65 65 65 64 62 63 63 64 65 66 66 66 65 67 66 64 62 59
45 52 51 54 55 54 53 54 52 56 62 60 59 59 61 62 64 66 67 67 69 70 72 73 73 70 69 68 68 66 65 64 63 63 63 61 60 61 61 63 63 64 64 63 63 62 62 61 60
48 50 51 53 54 52 55 51 53 54 62 61 62 62 60 62 64 66 68 69 68 69 71 72 71 68 67 66 66 66 65 66 64 63 63 62 60 60 60 61 61 62 62 61 61 61 61 60 59
48 49 49 52 54 54 52 50 53 55 60 61 60 60 59 61 62 61 64 65 65 66 68 69 68 68 67 66 66 67 66 67 64 63 63 63 61 60 60 60 60 60 61 61 60 60 60 60 58
47 44 48 47 52 49 52 46 47 53 56 60 60 57 58 61 61 62 65 64 65 66 66 66 68 67 66 66 66 65 67 66 65 64 64 63 63 61 61 60 60 60 60 61 60 59 59 58 59
43 43 36 48 48 50 50 40 50 52 52 55 62 59 57 60 62 62 63 65 65 66 66 67 71 67 67 66 65 65 65 65 65 65 65 64 64 63 61 60 60 60 60 60 59 59 58 57 57
42 35 37 40 49 46 46 39 51 53 52 51 61 58 57 62 64 63 64 65 66 65 65 66 67 66 66 66 66 65 65 65 66 64 65 65 65 64 62 61 61 60 59 59 59 58 58 57 57
33 34 41 38 43 47 40 39 47 51 52 50 54 54 57 61 63 64 65 64 65 65 66 66 66 67 65 65 64 64 64 64 64 64 65 65 66 65 63 61 61 60 58 57 57 58 57 57 57
39 36 36 41 45 45 38 42 45 49 50 52 51 52 55 61 64 66 65 63 63 63 63 64 65 66 65 63 62 62 64 63 63 63 65 66 67 65 64 62 61 60 59 60 58 57 57 56 55
41 38 35 39 43 42 39 40 47 49 50 55 55 55 59 63 59 61 63 61 62 63 61 62 63 64 65 65 63 64 63 63 64 64 64 64 63 63 63 63 61 60 60 59 58 58 56 56 55
39 38 34 36 40 39 37 36 41 46 49 50 55 61 63 64 63 58 57 59 57 59 60 60 62 63 64 64 64 63 63 62 62 63 63 63 63 63 62 62 62 60 61 60 59 59 58 57 55
35 45 43 39 35 31 36 28 34 43 46 47 51 53 58 61 55 55 53 53 53 53 56 58 59 60 61 62 62 62 62 62 62 62 62 63 63 63 63 63 61 61 60 60 60 59 59 59 59
38 46 42 39 33 31 29 29 33 37 40 49 52 52 54 56 56 55 53 54 53 53 52 54 55 55 56 58 58 60 61 61 61 61 61 61 62 63 63 63 61 60 59 59 59 58 58 58 58
44 42 40 37 33 23 30 30 28 33 41 42 48 53 55 56 55 55 53 52 50 50 51 52 53 52 53 53 53 54 55 57 57 57 58 59 60 61 61 62 62 61 60 60 59 59 58 58 58
42 34 29 27 27 24 30 28 35 37 42 45 47 49 51 54 54 53 51 49 48 49 49 51 51 50 50 51 50 50 50 51 52 53 53 54 55 57 58 59 60 60 60 60 60 59 58 58 58
38 34 22 17 22 23 30 25 35 41 44 46 48 49 50 49 51 52 51 49 48 49 48 49 49 49 49 49 48 48 49 49 49 49 51 52 53 57 58 56 58 58 59 59 59 58 59 58 56
36 32 35 25 22 20 26 30 39 39 42 43 43 44 45 45 47 49 48 48 47 47 48 47 47 47 47 47 47 46 47 47 47 47 48 48 49 55 55 55 55 56 57 58 57 55 53 52 51
38 40 28 29 16 18 23 22 31 37 40 40 41 40 42 43 44 45 46 46 46 46 45 46 46 45 44 44 44 43 43 44 44 44 43 44 45 47 50 51 51 52 52 52 52 50 49 46 47
37 31 34 31 25 19 18 27 35 37 40 40 40 41 41 43 43 44 44 44 44 44 44 44 45 44 43 42 41 41 40 41 41 41 40 41 42 43 43 44 45 47 48 49 48 47 48 46 45
38 35 34 24 24 25 18 26 39 37 39 40 40 42 42 44 44 43 42 42 42 42 43 42 43 43 42 42 41 40 39 39 38 38 39 40 39 40 40 41 41 41 40 41 42 42 43 43 43

GFSSGP_sfc_temp_087.txt.gz
Temp
72 72 70 67 58 54 50 54 58 59 62 68 66 68 69 71 70 67 72 75 78 79 82 81 79 79 79 79 78 78 78 78 79 79 80 79 79 79 79 79 79 78 78 78 78 78 78 77 77
72 71 66 59 52 47 50 55 56 61 65 65 65 68 68 69 69 67 70 75 79 80 82 82 78 79 79 79 78 78 78 78 79 79 79 79 79 79 79 79 78 78 78 77 77 77 77 76 76
72 70 62 56 49 48 51 55 59 63 65 67 67 70 69 68 68 70 75 77 80 79 81 81 78 79 79 78 78 78 78 78 78 78 78 78 79 79 79 78 77 77 76 76 76 76 76 76 76
67 64 61 51 47 52 56 58 60 63 66 66 64 66 70 71 70 74 77 78 78 79 81 78 77 78 78 78 78 78 78 78 78 78 78 78 78 78 79 77 76 75 76 76 76 76 75 75 76
63 58 50 46 48 53 57 61 63 61 63 65 65 64 66 69 73 75 77 78 77 77 80 80 77 78 78 78 78 78 78 78 78 78 78 78 78 78 77 76 75 75 76 76 76 76 75 75 75
53 55 48 45 50 54 60 63 63 62 62 65 65 63 65 71 73 73 77 77 79 77 79 80 76 76 77 77 77 77 77 78 77 77 77 77 77 77 76 76 75 76 76 76 76 75 75 75 75
54 50 45 50 50 53 58 65 62 62 63 64 67 62 66 68 71 75 75 78 78 79 79 80 80 78 74 75 76 76 77 76 76 76 76 75 75 75 75 75 75 76 75 75 75 75 75 75 74
53 51 47 48 49 52 61 64 65 65 62 68 68 61 63 68 72 72 74 77 77 77 79 79 79 80 79 79 74 74 74 74 75 74 72 71 71 72 74 73 74 75 74 74 74 74 74 73 73
55 46 46 49 49 54 62 62 64 66 64 65 66 65 67 70 72 69 70 71 72 76 77 77 77 78 78 79 76 73 72 72 72 72 69 70 76 76 76 71 71 73 73 73 74 73 72 70 70
51 47 49 54 54 56 60 61 62 62 61 61 63 66 70 68 69 67 68 68 69 71 74 75 75 77 77 78 78 78 77 78 77 76 75 75 74 75 75 71 70 72 72 72 73 72 70 70 75
51 46 53 55 57 60 58 59 64 61 58 64 63 64 67 67 65 64 67 69 69 72 73 74 75 76 77 77 77 77 76 76 75 75 74 73 73 74 75 75 72 74 70 76 74 74 74 72 74
46 52 54 55 57 57 56 59 59 60 63 66 65 66 66 64 64 65 66 69 69 69 73 74 75 74 76 77 76 76 75 74 74 74 73 73 72 72 73 74 73 74 74 73 73 74 73 72 71
46 52 54 57 56 56 57 56 59 59 62 64 64 64 64 64 65 68 70 69 70 70 73 74 74 73 75 75 75 75 75 74 74 73 73 73 72 72 72 73 72 72 72 73 72 73 73 72 72
50 52 53 54 55 55 54 54 57 60 63 63 65 64 63 65 65 66 67 68 70 70 72 75 72 73 74 74 74 75 74 75 73 73 73 72 73 72 71 71 71 71 71 72 72 72 72 72 71
51 46 48 50 53 53 56 49 51 59 59 61 62 65 64 64 66 67 67 68 70 70 70 72 71 71 74 74 74 73 72 74 72 73 73 72 72 71 71 71 70 71 71 71 71 70 70 70 70
46 46 39 49 51 54 54 45 54 59 58 60 61 63 64 64 65 66 68 68 69 69 68 69 71 70 72 74 73 73 73 74 74 73 73 72 72 71 71 70 71 72 71 70 70 70 69 69 69
42 36 38 43 50 50 50 45 54 57 55 58 59 63 63 63 66 67 68 69 69 69 69 68 69 69 70 71 73 73 73 73 74 73 73 73 72 71 71 71 72 71 70 69 69 68 68 68 69
35 37 39 40 46 49 45 46 51 54 54 57 56 61 62 62 64 67 68 68 68 68 69 70 69 69 69 69 69 71 70 71 73 72 73 73 73 72 70 70 71 70 68 67 67 67 67 68 69
43 39 39 43 46 47 46 45 50 52 52 53 54 57 59 62 66 67 69 67 66 67 65 67 68 67 66 66 66 67 68 68 69 70 71 71 73 71 70 70 69 68 68 68 68 67 67 67 66
42 38 38 42 46 46 44 45 49 51 51 53 55 56 59 62 64 65 68 67 67 67 65 65 67 68 69 67 67 67 67 68 70 69 69 70 70 70 69 69 68 68 67 67 67 66 66 66 65
39 38 36 39 43 44 42 41 45 49 52 54 56 58 61 64 64 66 65 66 64 65 66 65 66 67 68 68 67 66 66 66 66 68 68 67 67 67 68 68 68 67 67 66 67 65 65 64 62
34 45 43 40 39 35 42 32 39 46 47 51 56 56 58 62 63 61 61 63 63 62 61 63 64 65 66 67 67 67 67 65 67 68 68 68 68 67 67 67 67 67 66 66 65 65 65 65 63
36 47 44 40 36 36 36 35 39 41 45 49 51 53 57 60 62 62 61 59 60 58 58 59 59 61 62 63 66 67 66 67 67 67 67 67 68 68 67 67 66 66 65 66 65 64 64 64 64
38 43 42 39 35 28 33 34 35 38 44 49 55 55 57 59 61 61 58 57 56 56 56 57 57 57 59 60 61 62 63 63 63 64 64 65 65 66 66 66 67 66 65 65 65 65 64 64 63
35 38 29 27 27 25 33 32 39 43 45 48 51 54 55 58 61 60 57 54 55 54 55 56 57 55 56 57 57 58 59 59 60 59 60 61 62 63 63 63 65 65 65 65 65 64 63 63 62
39 36 27 20 23 26 32 29 39 46 48 50 50 52 52 53 55 56 56 56 54 53 54 54 54 54 55 55 54 54 55 56 55 56 57 58 59 60 61 61 62 63 64 64 64 64 63 62 60
36 30 37 26 26 27 31 35 43 44 45 46 47 48 49 50 52 54 55 54 53 52 53 53 52 52 53 53 53 52 52 52 52 52 53 54 55 57 57 58 59 58 59 61 60 58 55 55 54
38 41 31 28 19 22 28 30 37 42 44 46 46 47 48 48 48 50 51 51 51 52 51 52 52 51 50 50 50 49 49 49 49 50 49 50 51 52 53 54 54 53 53 54 54 52 52 51 50
36 34 33 33 29 25 24 32 41 42 44 43 43 45 46 46 46 48 49 49 49 49 49 49 50 49 48 48 48 48 47 47 47 47 47 48 48 49 49 50 51 51 51 51 53 52 52 50 49
39 36 36 27 26 23 24 33 45 43 43 42 43 45 45 46 47 47 47 47 47 47 47 48 47 48 47 47 46 46 46 46 46 45 45 46 46 46 46 47 46 46 47 49 50 49 49 49 48

GFSSGP_sfc_temp_090.txt.gz
Temp
78 82 84 79 66 66 63 64 71 69 70 78 77 78 78 79 79 73 82 87 90 89 86 85 79 79 79 79 79 78 79 79 79 79 79 79 79 79 79 79 79 78 79 79 78 78 78 77 77
80 80 80 75 62 57 62 70 66 71 74 76 76 77 77 78 80 74 80 84 89 90 86 87 78 79 79 78 78 78 78 79 79 79 79 79 79 79 79 78 78 78 78 78 77 77 77 76 76
79 79 73 67 62 59 63 68 71 71 74 75 77 79 80 77 79 79 84 86 90 90 87 86 78 79 79 78 78 78 78 78 79 79 79 79 79 79 78 78 77 77 77 77 76 76 76 76 76
75 73 74 62 59 66 68 71 72 70 73 76 76 75 79 79 79 83 86 88 89 90 89 79 78 79 78 78 78 78 78 78 78 78 78 78 79 79 78 76 76 76 76 76 76 76 76 76 76
69 68 58 58 62 68 70 72 73 70 73 74 75 72 74 77 80 83 85 84 86 90 90 84 78 78 78 78 78 78 78 78 78 78 78 78 78 78 77 76 75 75 76 76 76 76 75 75 75
60 64 55 55 61 66 71 73 74 73 70 73 75 74 72 74 76 80 82 79 82 86 87 85 77 77 77 78 77 77 78 77 78 78 78 77 77 76 76 75 75 76 76 76 76 75 75 75 75
59 60 57 61 62 63 69 74 71 72 72 70 75 71 73 73 75 77 81 82 81 86 87 86 85 80 75 76 76 77 77 77 76 76 76 75 75 75 76 75 75 76 76 75 75 75 75 74 74
64 59 58 62 61 61 71 72 74 73 71 74 74 70 70 76 75 75 79 79 83 87 87 88 86 85 85 83 74 74 75 75 75 74 73 72 72 73 74 73 74 75 74 74 74 74 74 74 73
64 52 52 59 61 65 73 69 72 75 73 73 71 72 74 77 76 72 73 76 79 84 84 88 87 85 85 85 79 74 72 72 72 72 69 71 83 82 78 73 72 73 73 74 74 74 72 71 70
57 52 57 67 68 67 71 69 72 70 70 69 70 73 75 76 75 70 69 72 76 79 80 83 85 85 85 83 83 85 84 84 84 83 81 85 84 84 83 74 70 72 72 72 73 72 71 71 83
57 54 63 65 66 68 68 68 73 70 67 73 71 72 73 69 67 66 67 72 71 78 76 81 80 85 85 83 83 84 85 85 85 84 84 84 82 81 82 82 77 76 71 79 77 77 81 79 83
52 60 62 64 64 64 65 71 68 71 73 77 79 76 75 73 70 67 67 68 71 72 78 76 78 83 84 85 84 85 85 84 84 83 84 83 82 82 83 83 82 81 81 79 80 82 81 80 80
52 58 61 64 62 64 68 65 67 68 74 76 75 73 75 76 74 74 69 70 71 72 75 77 76 82 83 83 83 85 85 84 84 83 83 84 82 82 83 83 83 82 82 82 81 81 81 80 80
58 58 60 62 62 62 62 65 66 70 72 72 72 73 74 75 75 73 74 75 75 74 74 77 78 80 83 83 83 84 85 84 83 83 82 82 83 82 81 81 80 81 81 82 81 81 80 80 80
57 51 55 58 62 60 63 58 59 71 70 70 72 74 73 75 77 75 73 75 77 78 78 76 77 76 80 82 83 83 84 84 83 82 83 81 81 80 79 80 80 80 81 81 80 79 79 79 80
50 52 45 56 59 62 61 52 64 70 69 68 71 73 74 75 77 76 75 75 78 79 78 78 77 78 77 80 82 83 84 83 83 83 83 81 81 80 79 79 79 81 80 79 79 79 78 78 78
46 42 46 51 59 58 58 54 64 69 67 68 71 73 73 76 77 77 76 75 78 79 78 77 77 75 75 77 78 82 82 83 83 83 83 82 81 80 80 80 80 80 79 78 78 78 77 76 76
40 44 48 48 54 56 54 56 60 65 66 67 70 72 72 74 79 78 75 74 76 79 80 79 76 76 74 75 74 74 79 81 82 82 82 82 82 81 79 80 80 80 78 77 76 75 76 75 76
51 48 47 53 55 53 54 55 59 63 64 66 69 69 70 74 81 79 77 74 73 76 78 78 77 74 73 70 69 70 70 73 76 78 79 81 81 81 80 80 79 79 77 77 77 75 73 74 75
43 47 46 52 52 53 54 53 59 62 62 65 67 70 71 71 77 77 76 75 71 73 75 75 76 76 73 74 71 71 71 70 73 74 76 78 79 79 79 78 77 78 76 75 75 73 72 73 75
43 47 48 46 50 52 52 48 53 60 62 65 67 69 72 71 73 75 74 71 71 69 72 70 72 71 72 72 70 71 70 68 68 70 71 73 74 74 73 75 76 75 74 73 74 73 70 70 71
37 52 50 48 46 38 50 40 52 57 57 61 64 67 68 71 74 76 74 71 71 71 73 73 69 71 70 71 69 68 68 68 69 71 73 74 73 73 73 74 74 74 73 72 72 72 71 70 69
37 49 49 48 46 45 43 41 52 53 54 58 63 66 69 71 72 73 71 72 71 69 67 70 71 71 71 71 70 70 69 71 71 70 70 72 73 74 72 72 72 72 72 72 72 71 71 72 69
39 44 46 47 44 32 46 43 48 51 55 59 64 67 68 70 71 73 73 69 67 67 67 64 66 66 67 68 69 69 68 69 68 68 69 72 73 74 73 72 72 71 71 71 72 72 71 70 69
35 38 30 29 30 34 44 41 49 56 56 61 64 67 69 70 71 72 72 67 65 64 65 65 66 62 65 66 64 64 67 68 68 69 70 70 71 69 70 70 69 68 68 69 70 70 69 68 67
34 35 35 27 31 37 40 37 47 59 63 64 62 64 64 68 70 71 72 71 65 61 64 64 65 64 65 64 64 64 64 64 64 64 65 67 68 68 67 67 67 68 67 68 68 67 66 66 65
36 34 44 36 37 36 41 45 53 57 57 57 59 61 61 64 65 68 70 68 67 65 64 64 64 64 64 64 64 64 63 62 62 61 63 63 62 63 64 64 65 65 65 64 64 63 61 61 58
35 42 36 36 28 30 36 40 48 51 54 56 58 60 63 63 64 65 66 66 65 63 61 63 64 63 62 62 63 61 61 60 60 61 59 59 60 59 60 61 61 61 61 60 60 56 55 54 53
35 36 40 42 38 36 33 41 52 51 54 54 56 57 58 60 60 62 63 63 62 60 59 59 60 60 60 60 60 60 59 58 59 58 58 57 58 58 58 57 59 58 58 56 55 54 54 52 51
39 43 44 37 31 34 37 42 53 55 54 55 57 56 56 57 58 59 60 60 59 59 58 57 57 57 57 57 58 57 57 57 58 56 55 56 55 55 55 56 56 55 55 55 55 54 55 55 55

GFSSGP_sfc_temp_093.txt.gz
Temp
78 84 87 81 65 67 63 68 80 75 77 85 85 83 82 82 78 70 90 94 92 89 87 84 79 79 79 79 79 78 79 79 79 79 79 79 79 79 79 79 79 79 79 79 78 78 78 77 77
83 84 82 75 61 58 63 75 70 75 81 84 82 82 81 80 85 80 86 91 93 90 88 86 78 79 79 79 79 78 79 79 79 79 79 79 79 79 78 78 78 78 78 78 77 77 76 76 76
79 83 73 67 62 59 64 76 74 77 79 79 81 86 86 80 84 85 90 93 94 90 89 86 78 78 78 78 78 78 78 78 78 79 79 79 79 78 78 78 77 77 77 76 76 76 76 76 76
75 73 72 62 60 67 73 78 79 73 78 82 85 79 82 84 84 89 90 93 93 90 89 78 78 78 78 78 78 78 78 78 78 78 78 78 78 78 77 76 76 76 76 76 76 76 76 76 75
73 69 60 59 63 71 78 78 79 73 76 78 81 78 78 77 85 88 89 92 92 91 84 84 78 78 78 78 78 78 78 78 78 78 78 78 78 77 76 76 75 75 76 76 76 76 76 75 75
58 67 55 55 62 72 77 78 77 76 77 77 78 80 73 76 79 87 90 92 94 91 83 85 77 77 77 77 77 77 77 77 77 77 78 77 77 76 76 75 75 76 76 76 75 75 75 75 74
56 60 57 61 64 68 72 79 76 76 75 72 81 77 75 74 78 82 84 86 90 89 84 86 84 80 75 76 76 77 77 77 77 76 76 75 75 76 75 75 75 76 75 75 75 75 75 74 74
61 57 58 64 63 65 74 76 79 78 74 78 77 73 72 76 75 81 83 80 84 83 86 85 86 85 84 82 74 75 75 75 75 74 73 72 72 73 74 73 74 75 74 74 74 74 74 73 73
65 46 51 60 64 69 76 73 79 82 76 77 75 77 79 82 77 76 74 76 86 83 82 84 85 85 84 84 79 73 73 72 72 72 70 70 82 79 76 73 72 73 73 74 74 73 73 71 71
56 48 55 68 72 70 72 73 74 73 74 73 73 76 79 80 75 70 72 75 81 80 80 81 85 84 84 82 82 81 81 82 83 82 79 84 85 85 83 74 70 72 72 72 73 72 71 71 80
59 53 63 67 72 65 68 70 75 72 69 75 73 73 74 74 72 71 72 78 79 78 77 83 82 86 83 83 83 80 83 86 86 86 85 87 85 83 82 78 74 73 70 76 75 74 78 81 83
54 62 63 66 59 64 65 67 72 74 75 81 81 78 75 74 71 70 70 75 79 78 80 79 84 81 83 84 84 79 84 87 86 85 86 85 83 82 84 83 79 77 78 76 78 82 82 80 81
57 61 65 66 61 62 66 66 69 72 78 81 82 78 77 75 74 74 72 72 76 75 79 82 84 82 84 83 83 81 85 86 86 85 85 86 84 83 84 84 83 83 83 81 81 82 82 81 82
61 60 61 65 59 62 63 66 69 71 79 76 77 76 78 77 77 76 75 73 74 73 74 81 82 84 84 82 82 83 81 86 86 84 84 85 85 84 83 83 82 83 83 83 82 81 81 80 81
55 51 57 60 64 59 65 59 63 73 75 73 75 77 77 78 78 78 77 76 77 77 77 73 77 78 83 80 81 83 82 85 83 84 84 83 84 83 82 82 81 81 83 82 81 81 80 80 80
48 50 46 56 61 63 62 52 65 73 73 70 74 76 76 77 79 77 78 79 80 81 78 78 77 79 78 82 81 78 81 83 82 85 85 83 83 82 81 80 80 82 81 80 79 79 78 78 78
42 38 47 50 59 60 58 54 68 72 71 69 72 75 77 78 80 80 78 78 80 81 81 80 78 77 79 79 79 78 79 81 85 85 85 84 83 82 81 80 81 82 80 79 78 78 78 77 76
38 41 49 49 56 58 55 56 66 70 70 69 72 75 76 77 79 82 79 79 80 81 81 80 79 78 77 77 76 75 77 79 82 80 79 82 84 82 80 81 81 81 78 77 77 77 77 76 76
42 47 49 54 60 56 55 56 63 66 67 68 71 73 75 76 81 83 79 78 78 79 79 80 77 78 74 72 72 72 71 72 76 78 80 81 82 82 80 80 81 80 78 78 78 76 74 73 74
38 42 48 55 59 55 54 55 62 64 65 68 70 72 74 76 79 81 79 78 77 77 77 78 79 79 76 73 73 74 74 74 75 74 77 79 79 78 79 79 78 79 78 77 77 75 72 72 73
38 43 47 50 53 55 52 51 56 63 66 68 70 73 75 75 76 78 78 76 76 75 76 76 77 80 78 75 72 72 71 69 69 71 73 73 72 75 76 77 78 77 77 74 74 73 71 69 72
37 52 51 51 46 40 53 40 53 58 60 64 67 69 71 74 76 79 77 74 74 74 73 76 76 72 71 73 72 69 69 68 69 72 72 73 72 71 69 69 72 74 73 72 72 73 72 70 67
37 45 50 49 46 46 46 42 52 59 56 60 65 68 71 74 75 76 76 73 74 74 71 74 70 73 71 71 71 68 67 71 69 68 68 71 74 70 68 69 69 69 71 71 72 71 71 71 69
41 45 43 48 44 32 46 45 49 53 58 62 66 69 71 73 74 77 74 74 73 72 70 70 71 69 69 70 67 69 67 67 67 65 66 70 72 72 71 71 70 70 70 70 70 71 71 70 70
36 38 30 28 28 34 50 44 51 59 61 65 66 69 72 73 74 74 75 71 71 69 68 66 70 67 66 69 68 70 69 71 69 67 67 67 70 68 69 70 68 68 68 68 69 70 69 68 67
34 35 32 27 29 36 45 40 50 62 66 65 66 69 72 72 74 74 75 74 71 68 62 63 62 63 67 66 67 67 66 65 65 66 65 69 70 70 70 68 69 69 68 66 66 65 65 65 64
35 33 45 39 45 39 43 49 56 59 60 61 63 64 65 68 71 73 74 76 75 66 65 65 65 65 66 66 67 66 66 65 63 62 65 65 65 65 65 65 66 67 67 66 64 63 63 63 61
35 38 36 37 29 30 40 44 46 51 56 60 61 62 65 68 69 70 72 74 73 71 68 67 64 66 66 66 66 65 65 63 64 64 62 62 62 62 63 63 63 63 63 62 62 58 56 54 52
34 35 40 44 40 36 33 42 56 54 56 57 59 62 64 66 67 68 69 72 71 69 66 66 65 62 61 62 63 62 61 61 62 61 60 60 60 60 61 60 61 61 61 58 56 55 54 52 52
45 41 46 37 36 39 38 41 58 57 57 59 61 60 61 62 64 66 68 66 65 63 63 63 62 61 61 60 62 60 60 60 60 59 58 59 58 58 58 58 59 58 58 59 56 53 53 53 53

GFSSGP_sfc_temp_096.txt.gz
Temp
75 77 77 71 55 55 52 58 69 69 70 76 78 74 72 73 66 58 84 85 81 79 79 79 79 79 79 79 78 78 78 78 79 79 79 79 79 79 79 79 79 79 79 79 78 78 78 77 77
74 77 73 64 51 48 52 66 65 69 74 76 76 73 72 68 76 75 76 85 83 81 80 79 78 78 78 78 78 78 78 78 78 79 79 79 79 78 78 79 79 78 78 78 77 77 77 76 76
73 73 63 57 53 49 54 67 71 72 75 73 69 76 74 71 78 78 82 86 85 81 82 79 78 78 79 78 78 78 78 78 78 78 78 79 78 78 78 78 77 77 76 76 76 76 76 76 76
69 64 63 53 52 59 62 70 72 70 72 74 75 71 73 75 78 80 85 87 83 82 80 76 78 78 78 78 78 78 78 78 78 78 78 78 78 77 77 76 76 76 76 76 76 76 76 75 75
65 59 50 51 54 63 68 74 74 68 70 72 74 68 66 72 79 83 85 87 83 83 78 77 77 78 78 77 77 77 78 78 78 78 78 78 77 77 76 75 75 75 75 76 76 76 75 75 75
54 56 48 46 55 64 70 74 73 69 72 74 70 68 65 72 75 81 84 86 84 79 79 78 76 76 77 77 77 77 77 77 77 77 77 77 76 76 76 75 75 75 76 75 76 75 75 74 74
50 50 48 52 55 61 68 75 68 69 69 67 71 65 65 70 76 80 84 86 82 80 80 78 77 76 75 76 76 76 77 76 76 76 76 75 75 75 75 75 75 75 75 75 75 75 75 74 74
53 50 49 55 54 59 70 71 74 71 67 72 72 64 62 69 76 77 78 80 80 80 81 78 77 77 76 75 74 75 75 75 74 73 72 71 72 73 73 73 74 74 74 74 74 74 74 73 73
61 45 45 51 57 62 74 69 74 76 70 72 70 70 72 74 75 73 72 73 78 79 81 80 78 77 77 76 74 73 72 72 71 71 69 69 71 72 71 71 71 72 73 73 73 73 72 71 70
52 44 49 60 64 65 66 71 71 68 67 65 66 73 74 73 72 70 68 69 73 73 77 78 81 78 77 79 74 73 73 72 73 72 68 71 71 73 76 69 70 72 72 72 73 72 71 70 67
53 46 56 61 66 61 61 66 74 67 62 66 64 68 72 70 69 69 70 71 75 75 75 78 79 80 78 76 76 75 74 75 75 73 72 72 73 70 73 69 71 68 68 68 69 68 68 67 69
49 56 59 62 58 56 57 60 62 66 67 74 71 71 70 69 68 69 70 71 73 73 76 76 77 78 76 78 78 75 75 77 74 74 75 73 70 70 71 70 68 68 69 71 69 68 69 72 72
51 56 61 62 58 58 62 60 60 60 69 76 74 72 69 69 67 69 70 71 71 72 75 76 75 74 77 76 77 75 76 77 75 74 75 74 71 70 71 72 70 69 70 70 68 69 71 71 71
53 55 59 61 57 57 57 59 61 63 70 69 73 69 69 70 68 68 67 68 71 72 73 75 75 75 77 73 76 75 77 77 75 73 73 75 72 72 72 71 72 71 73 71 70 70 70 69 70
50 46 55 54 55 53 57 54 53 62 68 70 70 67 70 70 70 70 69 68 71 71 72 74 75 77 76 73 73 76 77 79 77 74 75 74 73 72 72 71 70 70 71 72 71 70 69 68 70
42 46 39 50 56 56 53 44 59 65 63 62 68 66 67 69 71 71 72 72 72 73 72 72 75 74 74 74 73 72 76 75 77 75 74 75 75 73 71 69 69 71 70 70 68 68 67 66 66
38 34 38 46 57 57 52 47 60 67 66 63 63 65 67 68 70 70 72 74 75 75 74 72 72 72 72 73 73 72 73 75 77 77 74 76 75 74 71 70 70 71 69 68 68 67 66 65 65
32 32 41 44 52 53 51 51 60 65 63 60 63 63 66 69 70 71 71 73 72 75 76 75 73 73 72 71 70 71 72 73 76 75 76 77 77 74 72 71 71 70 68 67 66 66 66 65 65
40 41 41 48 55 51 49 51 56 62 64 60 61 63 64 67 71 72 71 71 72 71 73 74 72 71 72 70 67 66 66 69 71 73 74 76 77 75 73 71 71 71 69 68 68 67 65 63 64
36 37 41 49 54 51 49 49 57 59 59 59 62 63 64 65 68 69 69 69 69 69 70 71 72 71 71 70 69 67 67 67 67 69 71 73 73 74 73 71 70 71 69 69 68 67 64 65 65
36 35 41 39 50 51 50 45 52 59 59 60 63 64 66 65 66 67 67 66 68 68 68 69 71 72 70 70 67 67 66 66 66 67 66 68 69 69 70 70 67 68 68 67 67 67 65 62 63
34 44 42 46 42 33 46 30 42 49 56 58 57 59 60 63 66 68 67 64 64 65 67 69 69 70 69 68 66 64 64 62 63 65 66 67 67 67 67 67 67 66 66 65 64 65 63 63 61
37 42 43 42 42 42 41 35 40 52 51 55 58 59 61 63 64 66 65 66 65 63 60 64 67 67 66 66 66 64 65 66 65 66 67 66 67 67 66 66 66 66 66 66 66 64 64 64 62
42 42 43 41 38 28 37 38 39 46 52 54 60 61 62 62 64 66 65 65 62 61 61 61 62 65 65 65 64 63 64 64 64 64 63 65 66 66 66 66 65 65 65 65 65 65 65 63 63
36 35 28 27 27 28 41 37 41 52 58 58 60 60 63 62 63 63 63 61 60 59 59 58 59 59 62 63 64 65 65 65 65 64 63 64 64 64 65 66 64 64 65 65 66 65 65 65 65
34 34 28 20 21 28 42 31 40 53 56 58 58 59 62 62 62 63 63 62 60 59 57 57 59 57 59 59 60 60 61 60 60 61 62 63 63 63 63 63 63 64 64 64 64 63 64 64 63
34 31 37 30 36 28 35 38 47 52 52 53 53 58 55 56 61 62 63 62 60 57 56 56 56 57 57 58 58 60 60 58 57 58 58 58 59 61 60 60 60 61 61 61 62 61 62 62 62
35 37 31 32 24 25 32 33 39 46 48 52 51 52 53 55 57 59 62 62 61 58 57 58 57 57 59 60 59 60 58 58 58 56 55 55 56 57 57 58 58 58 57 56 57 57 56 56 54
33 32 35 37 33 25 24 31 44 46 51 51 52 54 56 56 59 59 59 61 59 57 56 56 56 57 57 58 59 57 56 55 54 53 52 52 52 53 55 55 55 55 54 54 54 54 54 53 52
43 38 39 31 32 31 30 31 49 49 52 53 53 55 53 56 57 57 57 56 55 54 55 54 53 53 53 55 56 56 55 55 52 51 51 52 51 51 51 52 53 53 52 52 53 52 52 51 51

GFSSGP_sfc_temp_099.txt.gz
Temp
74 73 70 61 53 46 42 50 57 63 62 72 70 69 66 68 67 60 76 76 76 76 78 79 79 79 79 79 78 78 78 78 79 79 79 79 79 79 79 79 79 79 79 78 78 78 78 78 78
71 72 62 56 44 39 43 55 58 64 68 67 75 69 67 65 70 72 70 76 77 77 78 78 78 78 78 78 78 78 78 78 78 79 79 79 79 79 79 79 78 78 78 77 77 77 76 76 76
72 70 54 51 43 42 44 58 63 67 68 68 68 74 67 65 74 75 76 77 77 76 77 78 78 78 78 78 78 78 78 78 78 78 78 78 78 79 78 78 77 77 76 76 76 76 76 76 76
66 59 57 46 44 52 53 61 69 67 66 69 68 63 67 71 74 76 79 78 76 75 75 76 77 78 78 78 78 78 78 78 78 78 77 77 78 78 77 76 76 75 75 76 76 76 76 75 75
61 56 48 44 47 53 58 67 68 65 65 68 69 61 62 71 74 81 79 79 76 74 75 76 77 78 78 78 77 77 77 78 78 77 77 77 77 77 76 75 75 75 76 76 76 76 75 75 75
52 54 45 43 47 56 59 69 68 65 67 68 68 61 60 70 73 77 79 79 77 74 76 77 76 77 77 77 77 77 77 77 77 77 77 77 76 76 75 75 75 75 76 76 75 75 75 75 75
50 49 45 45 48 53 60 70 64 65 65 63 66 58 62 65 72 74 81 76 76 76 75 75 75 75 74 75 76 76 76 76 76 76 76 75 75 75 75 75 75 75 75 75 75 75 74 74 74
53 50 48 48 47 51 65 69 69 66 62 71 70 57 60 66 72 74 79 75 75 75 74 73 74 75 74 74 74 74 75 74 74 73 73 71 71 72 73 72 73 74 74 74 74 74 74 73 73
55 44 43 49 50 56 65 65 69 70 66 68 67 64 69 72 73 72 72 73 73 74 74 74 73 73 73 73 73 73 72 72 71 70 69 69 70 70 70 69 71 72 73 73 73 73 72 71 71
49 43 44 53 55 54 58 64 68 66 61 62 63 67 71 72 70 68 69 70 71 71 73 74 73 73 73 76 71 72 71 69 69 68 67 67 69 69 71 68 70 72 71 72 73 72 71 69 65
49 43 52 53 57 57 57 61 63 61 56 62 61 64 68 69 67 67 67 71 72 72 73 74 74 73 73 72 71 71 71 69 68 67 67 67 68 67 68 66 66 66 66 66 68 67 66 64 64
43 51 53 58 56 56 56 60 59 59 59 66 67 68 68 67 68 67 69 69 70 73 73 75 74 73 73 74 72 72 71 70 69 68 69 66 66 68 70 66 66 66 66 65 65 64 65 65 66
44 49 55 59 54 52 58 56 55 57 63 66 68 67 66 67 67 69 68 69 70 71 73 72 73 73 73 73 74 72 71 71 72 70 70 70 68 67 68 66 66 66 66 66 65 65 66 66 68
48 50 52 57 52 53 53 55 56 60 64 63 65 63 64 65 66 65 68 68 70 71 73 73 73 73 75 71 75 71 71 72 72 70 70 70 69 68 66 68 67 66 67 67 66 66 66 67 66
47 43 51 51 51 50 56 49 51 58 61 60 62 60 62 65 65 67 66 67 70 71 71 71 71 72 71 72 72 71 72 75 71 71 72 71 69 68 67 68 66 66 68 68 66 66 66 65 66
43 42 37 49 52 53 54 42 54 58 55 56 61 59 61 64 65 65 67 66 69 68 69 71 74 73 72 72 71 70 71 71 73 72 71 72 72 70 68 67 67 68 67 67 66 65 64 64 63
37 34 35 44 54 49 49 44 53 59 53 54 57 63 61 63 63 64 67 68 68 72 68 70 72 71 72 72 71 71 73 71 72 72 71 72 72 71 69 67 67 68 66 66 66 64 63 62 62
31 33 38 39 49 48 44 47 54 55 54 53 58 60 59 63 64 65 67 68 69 70 70 69 69 70 70 69 69 70 71 71 74 71 75 73 72 72 69 68 68 67 65 65 64 64 63 63 63
39 35 35 42 52 47 45 47 51 57 53 52 56 60 59 61 65 66 67 67 68 68 67 70 69 69 69 68 66 66 68 68 69 72 73 75 75 71 70 68 68 67 66 66 66 65 64 62 62
35 35 36 44 52 49 47 47 54 57 58 60 59 60 58 60 62 63 64 64 67 66 69 66 68 70 70 70 67 67 65 66 67 69 71 72 72 71 70 69 68 68 67 66 66 65 62 63 62
34 34 37 40 46 48 46 43 47 56 57 58 60 61 61 62 62 63 61 62 63 64 64 68 68 69 69 68 65 65 65 65 65 65 66 66 67 67 68 68 68 67 68 66 66 65 64 61 61
32 39 41 43 39 33 43 30 42 49 53 55 55 55 58 60 62 62 64 61 62 63 64 66 66 67 68 66 66 64 63 62 64 66 66 66 66 66 67 66 66 65 66 65 64 65 64 62 60
35 41 42 40 36 35 36 33 39 47 48 50 55 54 57 58 60 60 61 65 62 62 62 63 64 66 66 66 64 63 63 63 64 63 65 65 66 67 66 65 65 65 65 65 64 64 63 63 62
42 40 40 39 36 26 34 32 35 43 48 47 51 54 58 59 61 60 64 62 59 57 59 59 62 63 63 64 63 62 61 60 61 62 62 63 64 65 66 65 64 64 64 64 64 64 64 64 64
36 34 28 26 27 23 38 34 38 46 53 54 54 54 56 58 61 58 57 56 56 56 57 57 59 59 61 60 60 61 60 61 62 62 62 61 61 62 64 65 64 63 64 65 64 63 63 63 62
34 33 25 23 23 24 38 30 38 49 50 57 56 56 58 58 57 56 59 58 58 56 55 57 57 56 58 59 60 60 61 59 60 61 61 62 62 61 62 62 62 63 63 64 63 62 62 62 62
34 30 37 31 31 25 30 35 45 47 48 51 52 53 53 56 57 56 58 60 56 55 55 55 55 56 56 56 55 55 55 56 55 56 56 56 58 60 58 59 59 58 59 59 59 59 59 60 60
36 38 31 30 23 22 26 29 34 39 44 50 50 52 53 54 56 56 61 59 56 56 54 54 54 54 54 54 54 54 54 55 54 54 54 54 55 56 56 56 56 55 55 55 55 55 55 56 55
31 29 34 34 29 24 20 28 41 41 45 45 47 51 53 54 55 56 55 55 55 53 52 52 53 53 53 53 53 53 56 54 52 51 52 53 52 53 53 53 54 53 52 53 52 52 53 54 53
37 35 38 26 28 25 22 28 46 46 48 49 49 52 51 54 54 54 52 51 52 51 51 51 51 52 52 52 52 52 54 54 53 52 51 51 50 50 51 51 51 50 50 50 51 50 50 52 51

GFSSGP_sfc_temp_102.txt.gz
Temp
74 71 66 60 49 44 39 47 54 58 61 70 69 67 68 65 65 59 71 74 75 75 77 78 78 79 78 79 78 77 78 78 78 79 79 79 79 79 79 79 79 78 78 78 78 78 78 78 78
71 72 61 53 42 36 42 49 56 61 66 67 70 64 64 62 69 68 69 75 76 77 77 77 78 78 78 78 78 78 78 78 78 78 78 79 79 79 78 78 78 78 78 78 77 77 77 77 77
70 70 54 46 41 42 45 53 61 65 69 66 66 70 67 64 69 71 74 76 77 76 77 77 77 78 78 78 77 78 78 78 78 78 78 78 79 79 78 78 77 77 76 76 76 76 76 76 76
63 58 57 45 41 49 50 58 64 65 68 70 66 60 67 69 71 73 76 76 74 74 75 76 77 78 78 77 77 77 77 78 77 77 77 78 78 78 77 76 75 75 75 76 76 76 76 76 76
57 54 46 45 45 49 53 64 66 63 64 68 65 60 62 69 73 75 75 75 73 73 75 76 77 78 77 77 77 77 77 77 77 77 77 78 77 77 76 75 75 75 75 76 76 76 75 75 76
48 53 44 41 46 54 54 65 66 64 64 65 61 60 62 70 72 73 74 74 74 73 75 76 76 77 77 77 77 77 77 77 77 77 77 77 77 76 75 75 75 75 76 76 76 75 75 75 75
44 47 43 45 47 51 55 66 61 62 64 62 64 58 62 67 71 74 73 74 74 74 74 75 75 75 75 75 76 76 76 76 76 76 76 75 74 75 75 75 75 75 75 75 75 75 75 75 75
48 47 44 46 45 48 60 66 68 66 64 69 65 57 59 65 71 72 74 73 74 73 73 72 73 74 73 73 74 74 74 74 75 74 72 71 71 72 73 72 73 74 74 74 74 74 74 74 74
52 42 39 45 48 51 63 63 67 70 66 66 64 63 67 70 70 70 69 70 71 72 72 72 72 72 72 72 73 72 72 71 72 71 69 69 67 68 68 69 71 72 73 73 73 73 73 72 71
47 41 44 53 53 53 57 64 66 63 60 60 62 68 69 70 69 67 68 67 69 70 71 71 71 71 71 75 71 69 71 69 68 69 68 68 67 66 69 67 69 71 71 72 73 72 71 68 64
46 41 51 53 55 56 55 57 64 62 55 59 61 64 66 67 68 68 68 69 70 71 72 71 71 71 72 70 69 69 68 67 66 66 66 67 67 66 65 64 65 65 66 66 67 66 64 64 63
43 48 52 52 54 54 53 57 57 60 56 62 67 70 68 65 66 68 68 68 69 70 71 72 72 71 71 71 70 68 68 65 65 65 65 64 65 65 64 64 64 64 64 63 63 62 63 63 64
42 46 52 55 51 53 55 54 57 59 61 61 64 67 66 66 66 67 69 70 70 70 71 71 71 71 71 70 71 70 69 68 67 66 68 66 66 66 65 64 64 64 64 64 63 63 64 63 63
46 47 49 54 50 51 49 53 55 58 59 58 61 61 64 67 65 65 66 68 70 71 71 71 71 71 72 71 71 71 70 70 68 67 69 67 68 67 66 65 65 64 64 65 64 64 64 64 64
47 42 47 50 50 48 51 48 51 57 58 55 56 57 61 63 64 66 67 69 71 71 71 70 71 72 72 71 70 70 71 71 70 69 68 69 68 66 66 66 64 65 65 65 64 64 63 62 64
42 43 36 47 49 50 48 40 53 55 56 54 54 53 56 61 64 64 66 66 68 68 69 71 72 71 71 71 69 68 70 70 71 71 70 69 69 67 64 65 65 65 65 64 63 63 62 62 62
38 33 34 42 51 47 46 42 51 56 54 53 53 52 56 58 61 62 64 66 68 70 69 70 71 71 72 71 70 71 69 70 72 70 70 69 69 68 66 65 65 66 64 64 64 62 62 61 60
30 32 33 37 46 47 43 45 49 53 53 52 51 51 53 57 61 62 64 65 66 68 70 71 71 72 69 67 68 67 67 67 69 69 69 71 69 69 66 66 66 65 64 63 63 63 61 61 61
34 34 34 40 49 45 44 46 48 51 51 50 51 53 55 58 64 63 63 64 65 65 66 68 68 68 70 68 67 66 65 67 68 70 70 72 72 70 68 66 66 65 64 64 64 63 63 61 61
34 33 33 40 48 46 44 44 48 49 50 50 51 51 55 60 61 61 61 62 64 66 66 65 67 68 70 69 68 66 65 66 67 69 70 71 71 71 68 67 66 66 65 65 65 64 62 62 62
34 33 35 36 44 44 44 40 44 49 52 52 51 52 58 61 60 58 58 60 62 63 65 66 67 68 69 68 65 64 65 64 64 66 67 67 68 68 68 66 66 66 66 64 63 63 62 61 60
30 39 39 39 35 31 41 29 38 42 49 52 52 52 58 61 60 60 59 59 60 63 64 65 66 67 67 66 66 65 65 63 64 65 64 65 67 66 66 66 66 65 65 64 64 64 63 61 60
34 41 39 39 35 35 36 33 36 45 45 52 56 56 59 58 58 59 61 62 62 61 62 63 64 65 64 65 65 64 62 63 63 64 64 64 66 66 65 65 65 64 64 64 64 63 63 62 61
41 39 41 39 36 25 34 34 35 41 46 52 54 55 57 57 57 58 59 60 59 58 59 61 62 63 63 63 62 62 62 60 61 60 61 63 63 64 64 64 64 64 63 64 64 63 63 63 62
36 34 27 26 26 22 34 33 37 45 52 56 55 54 57 58 56 56 56 56 56 56 57 59 61 60 60 61 61 61 61 61 61 61 60 60 60 61 63 64 64 63 64 64 63 63 63 62 62
33 32 27 22 20 26 38 29 38 47 52 55 57 56 57 56 56 56 55 56 57 55 54 56 58 59 58 58 59 59 59 59 59 60 60 59 59 60 61 62 61 61 61 62 62 61 62 62 61
33 30 36 28 28 24 28 35 44 47 47 49 52 53 53 54 55 55 55 57 55 54 55 55 56 56 57 58 57 57 57 57 56 55 56 55 56 57 57 58 58 59 59 59 58 58 57 57 58
35 38 27 27 23 19 25 28 34 39 42 44 47 49 50 52 53 52 55 57 55 55 55 54 55 54 55 55 55 55 55 54 53 53 53 53 53 54 55 55 55 55 56 55 55 54 54 53 54
33 31 33 35 26 21 19 26 37 39 42 45 44 46 48 48 51 51 53 54 54 52 53 52 52 52 52 52 52 52 51 51 51 51 51 52 53 53 52 54 53 52 52 51 51 52 52 52 52
37 33 34 22 25 21 19 27 42 40 43 45 45 48 48 50 50 50 52 51 51 51 50 51 50 50 50 50 50 49 50 49 49 49 49 49 48 48 51 49 49 49 49 49 49 50 49 49 52

GFSSGP_sfc_temp_105.txt.gz
Temp
72 70 63 58 46 42 38 45 50 56 59 70 70 69 64 64 64 56 69 73 74 74 76 77 78 78 78 78 78 77 78 78 78 79 79 79 79 79 79 79 78 78 79 79 79 79 78 78 78
66 70 61 52 43 35 41 47 52 60 66 68 68 67 63 61 65 67 69 73 75 75 76 76 78 78 78 78 78 77 78 78 78 78 78 79 79 79 78 78 78 78 78 78 78 77 77 77 77
66 68 54 48 41 39 44 48 60 63 66 66 67 68 64 61 67 70 73 75 75 75 76 76 77 78 77 77 77 77 77 77 78 78 78 78 78 78 78 78 77 77 77 77 77 76 76 76 76
58 57 54 45 43 47 48 52 61 62 66 66 64 62 63 67 70 71 75 75 74 74 75 76 77 77 77 77 77 77 77 77 77 77 78 78 78 78 77 76 76 75 75 76 76 76 76 76 76
54 51 44 42 45 52 54 57 63 63 64 64 64 61 62 67 71 74 74 75 73 72 75 76 77 77 77 77 77 77 77 77 77 77 77 78 77 77 76 75 75 75 75 76 76 76 76 76 75
49 47 41 39 44 52 51 60 60 63 65 62 61 59 61 68 71 73 74 73 74 73 74 76 75 76 76 76 76 76 76 76 77 77 77 77 76 76 75 75 75 75 76 76 76 75 76 75 75
46 41 39 45 43 47 52 60 57 63 64 60 62 57 62 67 72 73 74 74 73 74 74 74 74 75 74 75 75 76 76 76 76 76 76 75 75 75 75 75 75 75 75 75 75 75 75 75 74
49 43 39 44 44 44 56 60 63 63 64 63 64 56 60 67 71 72 72 73 73 72 73 71 72 73 73 73 74 74 74 74 74 74 73 71 71 72 73 72 73 74 74 74 74 74 75 74 73
55 41 37 41 46 48 58 58 65 70 64 63 62 62 67 70 70 70 69 69 70 71 71 71 71 71 71 72 72 72 72 72 71 70 69 68 67 68 68 69 71 72 73 73 73 74 73 72 71
44 39 42 48 52 51 53 57 63 63 62 60 60 64 68 68 69 67 66 67 68 69 71 71 71 70 71 73 70 70 71 70 69 67 66 65 65 65 68 67 69 71 71 72 73 72 71 67 63
43 39 45 50 54 53 50 52 61 61 60 58 59 63 66 66 68 68 68 68 68 71 71 71 70 70 71 70 68 67 67 68 67 66 66 65 65 64 64 64 65 65 66 65 66 65 63 63 62
40 46 47 49 54 55 49 53 55 59 56 59 60 66 65 66 67 68 68 69 68 70 71 72 70 70 70 69 69 66 66 65 65 66 65 65 64 63 62 62 63 62 62 62 61 61 61 62 62
39 46 49 51 54 51 52 50 54 57 57 59 61 65 65 66 66 69 70 70 70 70 71 71 71 70 69 68 69 68 67 66 65 65 65 65 64 64 63 63 62 62 62 62 61 61 62 62 62
42 47 48 51 51 50 46 49 53 55 59 57 59 63 65 66 67 68 68 68 69 71 71 71 71 71 70 69 68 68 68 67 66 65 65 65 66 65 64 63 63 63 63 63 63 62 63 62 62
42 39 45 49 49 46 48 43 48 55 58 54 54 55 59 64 67 67 67 68 69 71 71 70 71 71 70 69 68 69 69 69 67 66 67 67 66 66 65 64 63 63 63 64 63 63 62 61 62
38 41 36 46 49 49 44 35 49 55 56 51 51 51 55 58 64 67 67 69 70 69 70 71 72 70 70 70 69 68 69 69 68 68 67 67 67 66 64 64 63 64 64 63 63 62 61 60 60
36 28 34 41 49 46 44 37 47 54 56 52 50 49 53 55 59 62 66 67 69 70 69 69 70 70 70 70 69 68 68 69 69 68 67 67 67 66 65 64 64 64 63 62 62 61 61 60 60
30 32 32 37 44 46 41 41 46 49 53 52 50 49 51 54 57 62 63 65 66 68 69 70 70 70 70 68 67 66 66 67 67 68 68 67 67 66 65 64 64 64 62 61 61 61 60 60 60
33 33 31 38 46 43 40 43 44 47 48 50 49 49 50 53 58 61 63 65 65 65 67 69 67 69 69 67 66 65 65 64 65 66 68 69 69 68 66 65 64 63 63 62 62 61 61 60 60
33 32 31 38 46 45 42 41 46 46 48 49 50 49 49 51 56 59 59 61 66 66 66 66 67 67 68 68 68 66 66 65 66 66 67 68 68 67 66 65 64 63 63 63 62 62 61 63 61
32 33 32 36 42 43 43 39 42 46 49 50 51 52 51 51 53 56 55 59 61 63 64 66 66 67 68 67 65 65 65 64 64 65 65 67 68 68 68 67 65 64 63 62 62 63 63 61 60
30 39 39 37 37 31 40 29 38 42 45 47 49 50 49 51 54 56 57 58 60 62 64 65 65 67 66 66 65 65 66 64 64 64 65 65 67 67 67 66 65 65 64 63 63 64 62 61 60
33 42 38 36 35 35 35 31 36 42 41 44 48 50 52 54 55 58 58 59 60 61 62 63 64 64 63 65 65 63 62 63 63 63 64 64 64 65 66 65 64 64 64 64 64 63 63 62 61
38 38 38 37 35 24 33 33 34 37 44 46 51 51 53 54 58 62 58 59 58 58 59 61 62 63 63 64 63 63 61 61 61 61 61 61 63 64 64 64 64 64 64 63 63 64 63 63 62
34 35 27 25 24 22 36 34 38 44 49 51 52 55 56 60 58 58 56 55 56 57 58 59 60 60 62 61 61 61 61 61 61 60 60 60 60 61 62 63 62 62 62 62 61 61 60 61 61
32 33 21 19 20 25 35 30 39 45 50 53 56 59 59 59 58 57 56 55 56 56 57 58 59 60 61 60 59 59 60 60 60 60 59 59 59 59 60 60 60 61 61 61 60 59 59 60 61
32 30 36 26 26 24 29 34 43 45 47 47 51 53 53 54 54 56 55 54 54 54 55 57 58 59 58 58 57 58 57 58 57 57 57 57 57 58 58 59 58 58 58 58 58 57 57 57 58
35 37 30 23 16 21 25 26 32 38 42 46 48 49 52 54 54 54 55 55 54 54 53 54 55 56 56 56 56 56 56 56 54 54 54 54 54 55 55 55 55 55 54 54 54 53 54 53 53
31 28 33 34 25 21 21 27 38 38 41 45 46 49 49 51 52 52 55 54 52 52 51 51 53 53 54 54 52 53 52 52 52 52 51 51 51 52 52 52 52 52 51 52 50 51 51 50 50
36 32 33 24 24 24 18 27 42 40 43 45 46 47 48 49 50 50 53 52 50 51 50 50 51 51 51 50 51 50 49 49 48 48 48 49 48 50 48 49 48 48 48 48 47 47 48 48 49

GFSSGP_sfc_temp_108.txt.gz
Temp
68 67 64 58 46 46 39 43 47 51 58 66 69 63 61 65 61 54 67 71 73 75 76 77 78 79 79 78 78 77 78 78 79 79 79 80 80 79 79 79 79 80 80 80 80 79 78 78 77
63 67 61 53 43 39 40 44 49 56 62 69 69 64 60 65 63 68 69 73 75 75 76 76 78 78 78 78 77 77 78 78 78 79 79 79 79 79 79 78 79 79 79 79 78 77 77 77 77
64 66 52 47 44 39 42 47 56 59 65 62 66 68 62 63 65 70 72 74 75 75 75 76 77 77 77 77 77 77 77 77 78 78 78 79 79 78 78 78 78 77 77 77 76 77 76 76 76
57 53 50 43 42 47 48 50 53 58 64 64 63 65 65 69 71 72 74 75 75 74 74 76 77 77 77 77 77 77 77 77 77 77 78 78 78 78 77 77 76 76 76 76 76 76 76 76 75
54 50 39 39 43 47 54 53 56 58 60 62 63 63 67 69 71 74 74 76 75 73 74 75 76 77 77 77 77 77 77 77 77 77 78 78 78 77 76 75 75 75 76 76 76 76 76 75 75
49 50 38 34 43 48 52 55 55 56 63 61 58 64 65 68 70 73 75 74 76 74 74 75 75 76 76 76 76 76 76 77 77 77 77 77 77 76 75 75 75 75 76 76 76 76 76 75 75
44 43 38 38 40 47 48 58 54 57 58 61 60 59 62 67 71 73 74 74 74 74 73 73 74 74 74 75 75 75 76 76 76 76 76 75 75 75 75 75 75 76 75 75 75 75 75 75 74
44 43 40 38 38 41 54 56 60 60 59 65 61 57 60 68 70 72 72 72 71 72 71 70 72 73 72 72 73 74 74 74 74 74 73 71 71 72 74 73 74 75 74 74 74 75 74 74 73
49 39 35 40 40 45 58 53 60 66 63 64 61 59 65 71 71 70 69 70 69 70 70 70 70 70 71 71 72 72 72 72 71 70 69 68 67 68 68 69 71 72 73 73 74 74 73 71 70
42 36 39 47 48 46 55 54 53 56 61 62 60 64 68 69 68 67 67 67 68 68 69 70 70 70 70 72 70 70 70 68 67 66 66 65 65 65 67 67 69 71 71 72 73 72 70 66 62
40 37 45 47 50 51 52 53 56 52 52 61 57 62 66 67 67 67 67 69 69 69 70 70 69 71 69 72 71 71 69 66 64 64 65 64 65 64 64 64 65 65 65 65 65 63 62 61 61
36 43 45 48 50 49 49 55 52 52 53 63 59 65 66 66 66 66 67 68 67 69 69 70 69 69 68 72 70 69 70 65 64 64 64 63 63 62 62 62 62 62 62 62 61 60 61 61 61
39 41 45 48 50 50 52 50 49 51 55 61 60 62 63 65 66 67 68 69 69 69 69 70 70 69 68 68 66 65 68 66 65 64 65 64 62 61 61 61 61 61 61 60 60 60 61 60 61
42 43 42 46 48 51 48 48 49 52 57 58 60 61 65 66 65 66 67 66 67 70 69 71 70 70 68 67 65 65 65 65 65 65 65 64 64 63 62 61 61 61 62 62 61 61 61 62 62
42 36 40 43 47 46 49 43 44 51 52 55 55 56 61 66 66 67 68 67 68 70 71 70 70 71 68 67 66 66 66 66 65 65 65 65 65 64 63 62 62 62 62 62 62 62 62 61 62
36 37 32 41 47 46 46 37 46 50 47 50 51 52 56 60 69 67 69 69 70 70 70 70 72 70 69 69 67 66 67 66 65 65 65 65 66 65 64 63 63 63 63 62 62 61 60 59 59
33 29 31 38 48 47 43 40 47 48 47 50 49 48 53 56 60 65 68 70 71 72 71 70 71 70 69 68 68 66 66 66 66 65 65 65 65 65 65 64 63 63 63 62 62 60 60 59 59
25 29 32 35 42 46 40 41 45 45 45 47 50 48 51 54 56 62 64 68 69 70 71 71 70 70 69 68 67 66 64 64 64 66 66 65 65 64 64 63 63 63 62 61 61 60 59 60 60
33 30 30 38 45 43 41 41 45 47 43 46 49 48 50 53 57 60 63 64 66 68 68 70 69 69 68 66 65 64 64 62 62 63 65 66 66 65 64 64 63 62 62 63 61 60 60 58 59
33 31 32 39 43 44 40 39 43 44 44 46 48 48 50 53 55 58 60 63 64 64 66 66 68 68 69 67 68 66 66 64 66 65 65 67 67 66 66 64 62 62 61 61 61 61 59 60 59
33 31 33 35 42 43 40 38 40 44 47 48 50 51 51 53 54 55 57 61 63 64 64 65 66 67 67 66 65 64 64 64 63 63 64 65 66 65 65 64 63 62 62 61 60 60 61 59 59
27 37 38 40 35 31 38 29 38 42 43 46 49 49 48 50 52 54 56 57 61 63 64 66 66 66 67 67 66 65 64 63 63 64 65 65 65 66 66 66 65 63 62 62 62 62 62 61 59
33 39 38 36 33 35 34 31 34 43 40 44 46 48 51 51 51 52 54 58 59 62 63 63 64 65 65 66 67 65 65 66 64 64 64 65 65 66 65 65 64 63 63 64 64 63 62 62 61
37 38 38 37 33 25 32 33 31 37 42 44 46 48 50 52 53 53 55 57 58 59 61 63 64 64 64 65 64 64 64 63 63 63 63 64 63 63 64 65 65 64 64 64 63 63 63 62 62
33 29 23 20 20 24 34 32 36 42 47 48 49 49 50 55 54 54 53 54 56 58 58 60 61 62 63 64 63 63 62 62 62 62 62 62 62 62 62 62 62 62 62 62 62 61 61 60 61
32 29 21 19 22 27 36 29 37 43 49 52 53 53 51 55 56 55 55 54 54 57 57 59 59 60 62 61 61 61 61 60 60 60 61 60 60 60 61 60 60 60 60 60 59 58 59 60 59
33 30 36 27 25 21 26 31 41 45 45 44 49 52 53 57 56 56 57 55 54 55 57 58 58 60 60 61 58 59 58 58 58 58 58 57 57 58 59 59 59 58 58 57 57 56 56 57 58
35 37 26 26 20 22 25 27 30 37 40 43 45 50 52 53 55 56 56 54 55 56 55 56 57 59 58 56 56 56 56 56 56 56 55 55 54 55 55 55 54 54 53 53 53 52 52 51 51
33 31 32 31 26 22 21 27 38 37 39 42 43 47 48 51 53 54 55 53 51 51 52 52 54 54 54 54 53 54 53 52 53 52 51 51 51 51 51 51 51 51 50 50 50 50 50 51 51
35 33 33 23 24 22 21 27 42 40 42 44 44 46 47 47 49 49 51 53 50 50 50 51 50 52 51 51 51 50 50 50 49 48 48 49 47 48 48 48 47 46 46 45 46 46 46 46 47

GFSSGP_sfc_temp_111.txt.gz
Temp
69 69 68 62 51 48 46 49 55 57 62 70 70 68 69 71 67 64 72 76 78 79 81 80 78 78 78 78 78 78 78 79 79 79 79 80 80 80 80 80 80 80 80 80 80 79 79 78 77
68 68 63 55 45 40 45 54 53 60 66 70 71 70 68 69 70 69 70 76 79 80 81 81 78 78 78 78 78 78 78 79 79 79 79 80 79 79 79 80 80 80 79 79 78 78 77 77 76
68 67 55 49 46 41 46 54 57 62 66 67 69 71 68 69 70 72 75 77 79 79 80 80 78 78 78 77 77 78 78 78 78 79 79 79 79 79 79 79 78 78 77 77 77 77 76 76 76
61 58 54 42 43 51 51 59 59 62 67 70 69 67 71 74 72 77 76 78 78 78 80 78 77 77 77 77 77 77 78 78 78 78 78 78 79 78 78 77 77 76 76 76 77 76 76 75 75
59 53 42 40 42 52 56 60 61 59 65 68 68 68 70 68 74 76 75 77 76 77 79 79 77 77 77 77 77 77 77 77 77 78 78 78 78 78 77 76 76 75 76 76 76 76 75 75 75
51 52 39 36 42 50 56 60 58 60 62 66 65 66 70 71 72 73 76 75 78 76 77 79 75 76 76 76 76 76 77 77 77 77 77 78 77 77 76 75 75 76 76 76 76 76 75 75 74
46 44 40 42 42 46 52 59 56 58 59 62 69 64 66 67 72 75 75 75 76 77 77 78 78 76 74 75 75 76 76 76 76 76 76 76 75 75 75 75 75 76 75 75 75 75 75 75 74
48 45 40 43 41 43 55 59 61 57 58 70 69 63 66 69 73 74 73 73 74 74 76 76 77 78 77 77 73 74 74 74 75 74 73 72 72 73 74 73 74 75 74 74 74 75 75 74 73
53 39 36 40 41 46 56 54 61 65 62 65 69 66 71 72 72 70 68 69 70 72 74 75 75 76 76 77 74 73 72 72 72 71 69 70 77 77 76 72 71 73 73 74 74 73 72 71 70
44 37 39 49 50 48 53 54 57 57 58 59 62 70 72 72 70 68 66 66 68 69 71 74 74 74 74 75 74 75 76 77 77 76 75 75 75 76 76 71 70 72 72 72 73 72 70 70 75
43 37 46 48 52 52 50 53 59 53 51 57 59 59 70 68 68 69 67 66 68 70 71 73 73 74 74 73 73 73 73 73 73 73 74 73 73 74 75 74 74 74 69 75 74 73 74 73 75
37 44 46 48 51 50 49 53 52 56 56 62 60 60 61 66 67 69 67 66 67 69 71 72 73 73 74 74 72 73 72 71 72 72 72 72 70 71 71 72 72 72 73 72 72 73 73 73 73
39 43 46 48 48 49 52 48 49 53 59 62 62 61 60 62 67 67 67 67 68 69 70 71 72 72 75 73 70 73 72 72 71 71 71 72 70 70 71 71 71 71 72 73 72 73 73 73 74
43 42 44 46 46 48 47 49 49 53 58 56 58 58 60 62 67 66 66 64 64 68 70 71 71 73 73 71 69 70 71 71 71 71 71 71 71 70 70 69 69 70 71 71 72 72 73 73 74
41 35 38 42 44 44 49 43 45 54 54 53 54 56 57 63 68 64 69 67 68 70 71 70 71 72 71 70 69 69 69 71 71 71 71 70 71 70 70 70 69 70 71 71 71 71 71 72 72
35 35 31 43 43 46 46 36 50 55 52 51 53 52 55 59 68 65 68 69 70 71 70 70 72 70 70 70 69 70 71 72 72 71 71 71 71 71 70 70 70 71 71 71 70 70 70 71 71
33 26 32 37 45 45 43 39 48 50 50 50 48 46 54 58 67 68 66 66 66 71 71 70 71 70 70 69 69 70 70 71 71 71 71 71 71 71 70 70 71 70 69 70 70 69 70 69 70
21 26 31 31 41 44 39 41 44 48 50 48 44 46 52 55 66 69 68 67 68 70 71 71 71 70 70 69 69 69 69 71 71 71 71 71 71 71 71 70 70 70 69 69 68 69 68 70 69
31 30 28 35 41 40 38 41 45 46 45 42 43 46 50 54 58 61 68 68 68 70 71 70 69 70 69 67 66 66 67 67 68 69 70 70 71 70 70 70 70 69 69 69 69 68 68 67 68
31 30 31 37 42 41 41 41 46 43 43 43 44 47 50 53 56 59 64 65 65 67 70 69 69 69 69 69 69 69 68 67 68 67 68 70 70 69 70 69 68 68 68 67 68 68 66 67 67
31 30 31 34 41 43 41 36 40 43 45 46 48 50 50 52 55 56 61 66 64 64 67 69 69 69 69 68 68 67 67 67 67 66 67 67 68 67 67 68 67 67 67 67 67 66 67 65 64
29 36 35 38 35 30 38 29 38 41 42 44 47 48 49 53 56 57 58 61 63 64 65 66 66 66 67 66 66 66 66 65 67 67 66 66 67 67 67 67 67 66 65 65 65 65 64 62 62
33 34 36 39 35 33 34 33 35 42 39 43 47 48 49 55 57 57 58 59 60 64 64 65 65 64 66 65 66 64 62 64 64 65 65 65 66 68 67 67 67 65 64 64 63 62 63 64 64
37 37 36 38 34 27 32 34 33 37 41 45 48 48 50 54 56 58 60 59 59 62 63 64 64 64 66 66 64 62 62 63 66 65 65 64 65 65 66 65 66 66 65 65 65 64 64 64 64
34 30 23 25 24 25 34 34 37 43 46 49 48 47 51 54 56 57 57 57 58 60 62 63 64 63 64 64 64 65 63 64 64 64 64 64 63 64 64 65 65 65 65 65 65 64 63 64 63
32 31 25 20 22 27 37 29 36 45 47 52 53 49 51 55 57 58 58 58 58 59 60 61 63 62 63 64 63 63 63 63 64 64 64 64 63 63 64 64 64 64 65 65 65 63 63 64 64
33 29 35 28 29 28 29 36 43 47 46 46 49 49 49 52 56 59 59 58 58 59 60 61 62 62 62 63 62 63 64 62 61 62 62 61 62 62 63 63 62 63 63 62 62 61 60 62 61
35 39 28 28 21 23 28 29 31 38 40 43 47 48 48 50 54 57 58 58 57 58 59 60 61 61 61 60 60 60 60 60 60 61 59 59 60 61 61 60 60 58 58 59 59 58 57 57 55
33 33 34 32 28 25 24 27 41 38 39 41 44 47 48 47 52 56 57 57 56 56 56 57 58 58 57 58 58 59 58 58 58 58 57 57 58 58 58 58 57 56 55 55 56 56 55 55 55
37 33 33 26 26 24 27 29 43 41 42 44 44 47 48 47 50 51 54 55 54 55 55 55 56 56 56 56 56 56 56 57 56 55 55 56 55 55 55 55 53 53 52 53 53 52 52 53 53

GFSSGP_sfc_temp_114.txt.gz
Temp
75 79 82 75 61 61 57 61 71 69 69 80 81 79 78 83 76 71 82 88 91 89 87 83 79 79 79 79 79 78 79 79 79 80 80 79 80 80 80 80 80 81 80 80 80 80 78 78 78
77 76 75 69 54 53 56 67 63 69 76 77 80 79 74 75 82 76 77 84 88 89 85 85 78 78 78 78 78 78 79 79 79 79 79 79 80 80 80 80 80 80 79 79 79 78 77 77 76
74 74 65 59 53 52 57 67 67 72 77 74 75 82 80 77 79 82 83 85 87 87 85 83 77 78 78 78 78 78 78 78 79 79 79 79 79 80 80 79 79 78 77 77 77 77 76 76 76
70 67 64 50 50 59 61 69 69 69 75 78 76 73 84 86 81 84 85 85 85 85 86 78 77 77 77 77 78 78 78 79 78 78 78 78 79 79 79 78 76 76 76 76 76 76 75 75 75
69 63 51 49 51 59 66 70 71 68 72 75 77 72 78 79 82 81 80 84 83 84 84 81 77 77 77 77 78 78 78 78 78 78 78 78 78 78 78 76 76 76 76 76 76 76 75 75 75
57 60 47 45 51 59 64 70 69 69 73 72 72 74 77 83 79 75 78 81 81 82 82 81 76 76 76 77 77 77 77 77 77 78 78 78 78 77 77 76 75 76 76 76 76 76 75 75 74
53 52 47 49 51 55 60 68 66 67 68 69 75 70 80 76 83 79 77 78 79 82 82 81 82 78 74 75 76 76 77 76 77 77 77 76 76 75 76 75 75 76 76 75 75 75 75 74 73
57 49 45 49 48 50 63 65 68 68 66 77 77 67 71 81 82 82 77 76 78 77 81 81 82 83 82 79 73 74 75 75 75 75 74 72 72 73 74 73 74 75 75 75 74 75 74 74 72
60 44 40 45 48 53 63 61 67 72 68 70 73 74 78 81 77 76 71 70 72 74 78 82 83 84 84 82 76 72 72 72 72 72 69 71 81 80 78 74 72 73 73 74 74 74 73 71 70
51 44 46 55 57 55 60 58 61 62 64 65 66 74 76 75 75 70 69 67 68 70 75 80 82 82 84 84 77 78 78 81 80 78 80 83 83 84 83 74 70 72 72 72 73 72 71 72 81
51 44 53 55 57 58 56 56 61 56 53 65 64 69 71 70 71 72 70 71 69 69 75 79 80 81 84 83 81 78 78 79 80 82 82 84 84 82 81 75 75 78 72 79 77 76 82 82 83
44 52 53 53 56 54 52 58 56 59 61 68 69 73 71 69 67 65 71 71 67 67 72 77 80 81 83 84 83 83 80 81 82 82 82 79 77 81 80 76 78 77 82 81 81 82 82 81 82
46 49 52 54 53 53 55 52 54 57 64 66 68 66 68 69 68 66 63 73 68 66 70 73 77 81 82 81 82 82 81 81 81 81 80 77 77 79 80 80 80 81 82 81 81 81 81 81 82
51 49 49 51 50 51 49 51 54 57 63 62 62 63 65 68 67 63 59 68 68 66 69 74 75 80 80 79 81 81 81 81 80 80 81 79 80 80 80 80 80 80 81 81 81 81 80 80 82
49 41 46 48 49 47 51 45 48 58 62 59 59 63 66 68 67 64 62 66 64 62 70 73 75 78 80 73 77 79 79 79 79 79 80 80 80 79 79 79 78 79 81 80 80 80 81 81 81
42 41 34 49 51 51 48 38 52 59 59 56 58 62 63 68 67 65 64 61 69 63 68 75 75 76 78 73 72 74 77 79 79 79 79 79 80 79 78 78 78 79 79 80 79 79 78 79 79
36 30 37 43 53 50 46 42 53 59 58 56 59 61 58 65 65 63 63 61 65 67 67 71 73 74 75 74 72 71 75 78 80 80 80 79 80 79 79 78 78 79 78 77 77 76 78 76 76
31 30 36 38 46 47 44 45 52 54 54 53 57 58 56 59 61 63 62 63 64 68 69 72 72 73 75 74 74 74 76 78 79 79 80 79 80 79 78 78 78 78 77 76 76 75 76 77 77
35 32 32 40 46 43 39 46 50 51 51 53 54 55 54 57 62 64 61 60 63 68 70 71 70 72 71 71 69 70 72 74 76 79 79 78 79 78 77 78 77 77 76 76 76 75 74 73 74
36 32 33 40 47 45 43 43 51 52 51 53 53 53 54 57 60 61 62 62 61 66 69 70 70 69 71 72 71 70 72 75 76 76 76 77 78 77 77 76 76 76 75 75 74 73 70 74 76
35 32 33 34 40 45 44 39 45 46 49 51 54 57 53 55 59 59 61 63 63 64 67 69 69 69 70 71 70 70 71 71 71 72 73 74 75 74 74 75 74 74 73 71 73 74 73 72 71
30 37 35 35 31 30 45 29 37 41 42 47 52 53 53 57 59 59 61 63 63 63 66 68 68 68 70 73 69 68 68 67 70 72 72 71 73 72 72 70 71 72 72 71 71 72 70 64 63
33 36 34 36 33 33 35 35 33 40 40 45 52 54 57 57 55 58 62 65 65 63 62 64 65 66 66 69 68 67 69 71 71 71 70 70 70 72 71 71 73 71 70 66 64 63 64 66 67
38 36 36 35 33 29 35 38 33 38 44 49 53 53 54 55 55 60 65 63 63 62 62 63 64 63 65 65 65 65 64 64 64 67 67 67 67 66 67 67 68 67 65 65 67 69 67 67 68
36 34 30 27 28 27 36 37 36 46 48 49 51 52 51 51 55 60 61 60 63 63 63 64 63 62 62 63 65 63 63 62 64 65 65 66 66 66 65 66 65 65 65 66 68 69 67 65 65
32 34 29 23 25 29 39 30 34 49 52 54 54 50 50 50 55 59 64 62 61 62 63 63 63 63 63 63 63 63 63 62 62 62 63 63 63 65 65 64 65 65 66 68 67 65 65 66 66
34 33 36 33 35 33 31 38 48 50 50 52 50 48 48 50 51 59 62 63 63 62 62 63 62 63 63 63 62 62 63 60 62 62 63 63 63 63 64 64 64 65 67 68 68 67 67 68 66
38 38 33 36 28 25 29 32 31 41 43 47 46 45 47 50 56 63 62 62 62 63 61 62 63 63 64 63 62 63 61 60 62 62 62 62 61 62 63 63 65 65 66 66 67 66 65 65 64
36 35 38 38 35 32 29 30 42 42 44 46 47 46 46 48 50 59 60 61 61 63 62 61 62 62 61 63 64 64 64 64 63 62 61 61 61 62 63 63 63 62 63 64 64 63 63 63 61
42 38 38 34 32 33 36 30 49 49 48 49 48 47 47 48 49 56 59 60 60 61 61 58 59 59 61 61 61 61 60 60 59 59 60 61 61 63 62 62 61 62 62 64 63 61 62 62 61

GFSSGP_sfc_temp_117.txt.gz
Temp
76 82 84 77 61 62 58 63 75 73 76 86 87 83 81 85 77 62 87 93 95 91 87 83 79 79 79 79 79 79 79 79 79 79 80 80 80 80 80 80 80 80 80 80 80 79 79 79 78
81 80 77 70 56 53 58 70 69 74 79 84 83 84 79 78 87 80 85 91 94 92 87 85 78 78 78 78 78 79 79 79 79 79 79 80 80 80 79 80 80 80 79 79 78 77 77 77 77
78 78 67 61 56 52 58 71 74 78 80 80 78 84 82 80 89 86 87 90 93 89 85 84 78 78 78 78 78 78 78 78 79 79 79 79 80 80 80 80 78 78 78 77 77 76 76 76 76
75 71 67 54 53 62 63 69 75 76 78 81 80 75 87 93 92 91 85 89 92 85 84 78 77 78 78 78 78 78 78 78 78 78 78 78 79 79 79 78 76 76 76 76 76 76 75 75 75
73 66 54 52 54 62 69 73 74 72 74 76 78 74 80 91 90 89 85 87 90 84 82 81 77 78 77 77 78 78 78 78 78 78 78 78 79 79 78 76 76 76 76 76 76 76 75 75 74
60 63 50 47 54 63 68 72 72 72 75 76 75 76 79 93 87 85 85 86 88 82 80 82 76 76 77 77 77 77 77 78 78 77 78 78 78 77 76 76 76 76 76 76 76 75 75 74 74
57 56 49 52 54 58 65 73 68 69 71 73 80 71 80 87 88 84 86 81 81 81 77 80 81 79 74 76 76 77 77 77 76 76 77 76 76 76 76 75 75 76 76 75 75 75 75 74 73
61 56 49 52 51 53 65 68 71 69 68 80 82 70 72 84 85 86 84 80 77 80 77 79 81 82 82 80 74 75 75 75 75 75 74 72 72 73 74 73 74 75 75 74 74 74 74 73 72
63 48 43 47 50 55 65 63 70 74 70 73 77 76 81 82 81 78 75 76 72 75 75 77 80 84 84 82 77 73 73 73 72 72 69 71 80 79 76 73 71 73 74 74 74 74 73 71 70
53 47 48 57 59 57 61 62 64 65 66 67 70 74 79 78 77 74 72 73 70 72 73 75 81 85 86 82 78 79 78 77 77 77 77 81 82 82 79 72 70 72 72 73 73 72 71 72 78
52 45 55 57 60 61 58 59 64 61 58 63 67 71 72 74 75 67 72 74 71 71 72 73 83 86 86 82 78 76 77 78 77 77 81 85 83 81 76 73 76 76 71 77 75 74 78 82 83
48 55 56 56 59 57 54 59 57 60 61 68 69 72 74 72 74 69 63 67 72 70 71 71 82 85 87 84 77 77 77 77 77 77 83 85 84 81 75 76 75 78 80 79 79 80 82 82 83
50 53 56 57 56 56 57 53 54 57 64 69 69 68 67 68 69 71 65 64 60 69 70 69 76 83 87 85 82 78 76 77 81 81 85 85 83 83 76 75 76 80 82 81 81 82 81 82 83
53 53 53 56 54 55 52 52 54 57 63 64 66 66 67 68 63 65 67 65 62 66 69 68 70 81 86 84 84 81 78 78 84 83 81 77 81 83 78 75 78 81 82 82 81 81 81 81 82
52 45 50 52 53 51 54 46 48 58 62 61 63 65 67 68 68 67 69 65 63 60 69 67 69 79 83 82 83 84 83 83 82 82 79 75 81 81 81 81 81 81 82 82 81 81 81 80 81
44 44 36 50 53 55 51 36 52 60 58 58 61 64 65 67 67 70 72 67 65 63 67 68 69 77 79 81 82 82 82 82 81 82 81 80 82 82 80 80 80 81 81 80 79 79 77 78 77
41 31 38 43 54 53 50 40 52 59 59 57 60 63 64 65 67 67 70 67 66 61 66 68 68 74 75 78 79 80 80 80 80 80 81 81 81 81 80 80 80 80 79 79 78 77 78 76 76
32 32 37 38 47 48 42 42 51 58 59 58 60 63 62 63 63 68 68 66 65 64 63 67 69 71 73 73 71 75 77 79 80 79 79 79 80 80 79 79 79 79 77 77 76 76 77 76 76
40 36 34 42 48 45 44 43 46 55 56 56 59 60 62 63 66 67 66 65 63 63 62 65 67 71 71 68 66 68 72 77 77 78 78 78 80 79 79 79 78 78 76 77 77 76 74 73 75
39 35 35 42 47 44 44 44 51 54 53 54 56 58 59 62 64 66 65 64 60 62 62 63 68 70 71 69 70 72 75 76 76 75 77 78 79 78 78 78 77 77 76 75 75 75 72 72 74
36 33 34 35 41 43 40 41 46 53 55 57 57 59 61 61 62 65 65 63 61 59 62 64 66 69 70 71 71 72 73 74 73 74 75 75 77 77 77 76 76 76 76 74 74 73 72 70 73
29 41 35 33 31 28 45 31 42 49 50 52 55 57 59 61 64 65 63 62 60 60 61 65 66 67 70 72 69 69 68 68 72 72 73 72 76 75 75 74 74 74 72 72 71 73 73 70 64
32 38 35 35 32 31 36 29 38 50 43 46 51 55 59 61 63 61 62 63 63 63 62 64 65 66 68 69 70 69 68 70 71 72 70 71 73 73 72 72 70 69 71 72 71 69 66 66 66
39 35 35 33 32 28 37 31 31 35 40 47 50 54 55 56 59 60 63 65 64 63 62 63 62 65 67 69 69 68 69 70 68 68 68 69 69 69 69 70 70 69 70 68 66 63 65 68 68
37 33 29 26 26 29 35 32 33 39 43 47 47 48 51 55 56 60 62 62 62 62 61 61 61 62 64 64 65 64 63 65 68 68 68 66 65 66 66 67 67 67 67 67 65 64 65 67 67
32 34 29 23 26 30 43 31 32 44 51 50 50 48 51 52 54 59 63 61 62 61 61 61 60 60 61 61 62 62 63 63 64 64 67 66 66 67 68 67 66 64 64 65 65 65 66 65 64
36 34 39 30 32 32 32 34 40 47 48 45 45 47 48 50 52 56 62 61 62 61 60 61 62 62 62 62 61 62 61 62 61 62 63 63 63 65 66 65 65 65 65 64 65 64 63 64 66
38 41 33 35 26 25 30 31 29 37 40 43 43 45 47 48 52 54 59 62 64 64 64 64 64 63 62 62 62 61 62 62 63 62 61 62 62 63 63 63 63 63 63 63 65 64 66 64 63
36 36 38 39 36 28 28 28 38 41 43 43 44 45 46 47 49 52 55 61 61 62 62 62 63 61 61 62 61 61 62 62 62 62 62 61 61 62 62 62 62 62 61 63 64 63 64 63 61
42 40 40 33 34 37 36 29 48 49 46 46 45 46 46 47 49 54 55 60 60 59 59 59 60 60 61 62 62 62 61 62 61 62 62 62 62 62 62 61 60 60 61 63 63 62 62 62 61